<?xml version="1.0" encoding="UTF-8" standalone="no" ?>
<gpx xmlns="http://www.topografix.com/GPX/1/1" xmlns:xsi="http://www.w3.org/2001/XMLSchema-instance" xsi:schemaLocation="http://www.topografix.com/GPX/1/1 http://www.topografix.com/GPX/1/1/gpx.xsd" version="1.1" creator="VisuGPX - https://www.visugpx.com">
  <metadata>
    <name>Revel-golf de bresson-revel</name>
    <desc><![CDATA[File with points/tracks from Locus Map/3.39.3]]></desc>
  </metadata>
  <trk>
    <name><![CDATA[2019-08-19 14:39:00]]></name>
    <desc><![CDATA[Golfbress]]></desc>
    <trkseg>
      <trkpt lat="45.18359" lon="5.87462">
        <ele>696.26</ele>
        <time>2019-08-19T12:39:05.000Z</time>
      </trkpt>
      <trkpt lat="45.1835" lon="5.8748">
        <ele>693.61</ele>
        <time>2019-08-19T12:39:10.000Z</time>
      </trkpt>
      <trkpt lat="45.18339" lon="5.87499">
        <ele>689.16</ele>
        <time>2019-08-19T12:39:15.000Z</time>
      </trkpt>
      <trkpt lat="45.18334" lon="5.87522">
        <ele>696.72</ele>
        <time>2019-08-19T12:39:20.000Z</time>
      </trkpt>
      <trkpt lat="45.1833" lon="5.87543">
        <ele>701.45</ele>
        <time>2019-08-19T12:39:25.000Z</time>
      </trkpt>
      <trkpt lat="45.18325" lon="5.87565">
        <ele>704.19</ele>
        <time>2019-08-19T12:39:30.000Z</time>
      </trkpt>
      <trkpt lat="45.1832" lon="5.87586">
        <ele>708.19</ele>
        <time>2019-08-19T12:39:35.000Z</time>
      </trkpt>
      <trkpt lat="45.18314" lon="5.87607">
        <ele>710.94</ele>
        <time>2019-08-19T12:39:40.000Z</time>
      </trkpt>
      <trkpt lat="45.18307" lon="5.87626">
        <ele>714.51</ele>
        <time>2019-08-19T12:39:45.000Z</time>
      </trkpt>
      <trkpt lat="45.183" lon="5.87647">
        <ele>716.28</ele>
        <time>2019-08-19T12:39:50.000Z</time>
      </trkpt>
      <trkpt lat="45.18297" lon="5.87668">
        <ele>720.98</ele>
        <time>2019-08-19T12:39:55.000Z</time>
      </trkpt>
      <trkpt lat="45.18294" lon="5.87685">
        <ele>723.32</ele>
        <time>2019-08-19T12:40:00.000Z</time>
      </trkpt>
      <trkpt lat="45.18297" lon="5.87699">
        <ele>726.5</ele>
        <time>2019-08-19T12:40:06.000Z</time>
      </trkpt>
      <trkpt lat="45.18296" lon="5.87714">
        <ele>725.91</ele>
        <time>2019-08-19T12:40:11.000Z</time>
      </trkpt>
      <trkpt lat="45.18288" lon="5.87728">
        <ele>724.12</ele>
        <time>2019-08-19T12:40:16.000Z</time>
      </trkpt>
      <trkpt lat="45.18283" lon="5.87749">
        <ele>725.02</ele>
        <time>2019-08-19T12:40:21.000Z</time>
      </trkpt>
      <trkpt lat="45.18279" lon="5.87772">
        <ele>727.35</ele>
        <time>2019-08-19T12:40:26.000Z</time>
      </trkpt>
      <trkpt lat="45.18275" lon="5.87794">
        <ele>728.44</ele>
        <time>2019-08-19T12:40:31.000Z</time>
      </trkpt>
      <trkpt lat="45.1827" lon="5.87816">
        <ele>729.03</ele>
        <time>2019-08-19T12:40:36.000Z</time>
      </trkpt>
      <trkpt lat="45.18266" lon="5.87837">
        <ele>731.06</ele>
        <time>2019-08-19T12:40:41.000Z</time>
      </trkpt>
      <trkpt lat="45.18262" lon="5.87859">
        <ele>733.36</ele>
        <time>2019-08-19T12:40:46.000Z</time>
      </trkpt>
      <trkpt lat="45.18258" lon="5.87883">
        <ele>734.44</ele>
        <time>2019-08-19T12:40:51.000Z</time>
      </trkpt>
      <trkpt lat="45.18255" lon="5.87908">
        <ele>736.02</ele>
        <time>2019-08-19T12:40:56.000Z</time>
      </trkpt>
      <trkpt lat="45.18258" lon="5.87931">
        <ele>736.24</ele>
        <time>2019-08-19T12:41:01.000Z</time>
      </trkpt>
      <trkpt lat="45.18263" lon="5.87952">
        <ele>737.28</ele>
        <time>2019-08-19T12:41:06.000Z</time>
      </trkpt>
      <trkpt lat="45.18259" lon="5.87973">
        <ele>738.69</ele>
        <time>2019-08-19T12:41:11.000Z</time>
      </trkpt>
      <trkpt lat="45.18252" lon="5.87991">
        <ele>738.89</ele>
        <time>2019-08-19T12:41:16.000Z</time>
      </trkpt>
      <trkpt lat="45.18242" lon="5.88007">
        <ele>746.45</ele>
        <time>2019-08-19T12:41:21.000Z</time>
      </trkpt>
      <trkpt lat="45.18239" lon="5.88021">
        <ele>746.63</ele>
        <time>2019-08-19T12:41:26.000Z</time>
      </trkpt>
      <trkpt lat="45.18232" lon="5.88036">
        <ele>746.82</ele>
        <time>2019-08-19T12:41:52.000Z</time>
      </trkpt>
      <trkpt lat="45.18219" lon="5.88056">
        <ele>749.58</ele>
        <time>2019-08-19T12:41:57.000Z</time>
      </trkpt>
      <trkpt lat="45.18203" lon="5.88081">
        <ele>748.75</ele>
        <time>2019-08-19T12:42:02.000Z</time>
      </trkpt>
      <trkpt lat="45.18187" lon="5.88107">
        <ele>746.8</ele>
        <time>2019-08-19T12:42:07.000Z</time>
      </trkpt>
      <trkpt lat="45.18169" lon="5.88133">
        <ele>746.55</ele>
        <time>2019-08-19T12:42:12.000Z</time>
      </trkpt>
      <trkpt lat="45.18149" lon="5.88161">
        <ele>745.15</ele>
        <time>2019-08-19T12:42:17.000Z</time>
      </trkpt>
      <trkpt lat="45.18129" lon="5.88189">
        <ele>745.11</ele>
        <time>2019-08-19T12:42:22.000Z</time>
      </trkpt>
      <trkpt lat="45.18114" lon="5.88215">
        <ele>745.19</ele>
        <time>2019-08-19T12:42:27.000Z</time>
      </trkpt>
      <trkpt lat="45.18097" lon="5.88239">
        <ele>746.75</ele>
        <time>2019-08-19T12:42:32.000Z</time>
      </trkpt>
      <trkpt lat="45.18081" lon="5.88259">
        <ele>746.77</ele>
        <time>2019-08-19T12:42:37.000Z</time>
      </trkpt>
      <trkpt lat="45.18068" lon="5.88284">
        <ele>747.51</ele>
        <time>2019-08-19T12:42:42.000Z</time>
      </trkpt>
      <trkpt lat="45.18058" lon="5.88312">
        <ele>746.12</ele>
        <time>2019-08-19T12:42:47.000Z</time>
      </trkpt>
      <trkpt lat="45.18052" lon="5.88342">
        <ele>749.84</ele>
        <time>2019-08-19T12:42:52.000Z</time>
      </trkpt>
      <trkpt lat="45.18043" lon="5.88371">
        <ele>748.63</ele>
        <time>2019-08-19T12:42:57.000Z</time>
      </trkpt>
      <trkpt lat="45.18031" lon="5.88394">
        <ele>748.26</ele>
        <time>2019-08-19T12:43:02.000Z</time>
      </trkpt>
      <trkpt lat="45.18016" lon="5.8842">
        <ele>749.6</ele>
        <time>2019-08-19T12:43:07.000Z</time>
      </trkpt>
      <trkpt lat="45.17996" lon="5.88439">
        <ele>750.54</ele>
        <time>2019-08-19T12:43:12.000Z</time>
      </trkpt>
      <trkpt lat="45.17976" lon="5.88453">
        <ele>754.64</ele>
        <time>2019-08-19T12:43:17.000Z</time>
      </trkpt>
      <trkpt lat="45.17953" lon="5.88467">
        <ele>759.34</ele>
        <time>2019-08-19T12:43:22.000Z</time>
      </trkpt>
      <trkpt lat="45.17927" lon="5.88482">
        <ele>760.92</ele>
        <time>2019-08-19T12:43:27.000Z</time>
      </trkpt>
      <trkpt lat="45.17908" lon="5.88495">
        <ele>765.72</ele>
        <time>2019-08-19T12:43:32.000Z</time>
      </trkpt>
      <trkpt lat="45.17886" lon="5.8851">
        <ele>765.46</ele>
        <time>2019-08-19T12:43:37.000Z</time>
      </trkpt>
      <trkpt lat="45.17862" lon="5.88521">
        <ele>764.03</ele>
        <time>2019-08-19T12:43:42.000Z</time>
      </trkpt>
      <trkpt lat="45.17838" lon="5.8853">
        <ele>766.11</ele>
        <time>2019-08-19T12:43:47.000Z</time>
      </trkpt>
      <trkpt lat="45.17813" lon="5.88535">
        <ele>764.28</ele>
        <time>2019-08-19T12:43:52.000Z</time>
      </trkpt>
      <trkpt lat="45.17787" lon="5.88539">
        <ele>766.5</ele>
        <time>2019-08-19T12:43:57.000Z</time>
      </trkpt>
      <trkpt lat="45.17761" lon="5.88536">
        <ele>765.42</ele>
        <time>2019-08-19T12:44:02.000Z</time>
      </trkpt>
      <trkpt lat="45.17733" lon="5.88531">
        <ele>769.62</ele>
        <time>2019-08-19T12:44:07.000Z</time>
      </trkpt>
      <trkpt lat="45.17704" lon="5.88519">
        <ele>769.59</ele>
        <time>2019-08-19T12:44:12.000Z</time>
      </trkpt>
      <trkpt lat="45.17678" lon="5.88503">
        <ele>768.95</ele>
        <time>2019-08-19T12:44:17.000Z</time>
      </trkpt>
      <trkpt lat="45.17655" lon="5.88491">
        <ele>773.03</ele>
        <time>2019-08-19T12:44:22.000Z</time>
      </trkpt>
      <trkpt lat="45.17631" lon="5.88482">
        <ele>772.52</ele>
        <time>2019-08-19T12:44:27.000Z</time>
      </trkpt>
      <trkpt lat="45.17607" lon="5.88485">
        <ele>770.84</ele>
        <time>2019-08-19T12:44:32.000Z</time>
      </trkpt>
      <trkpt lat="45.17584" lon="5.88501">
        <ele>770.28</ele>
        <time>2019-08-19T12:44:37.000Z</time>
      </trkpt>
      <trkpt lat="45.17563" lon="5.8852">
        <ele>773.1</ele>
        <time>2019-08-19T12:44:42.000Z</time>
      </trkpt>
      <trkpt lat="45.17544" lon="5.88545">
        <ele>772.71</ele>
        <time>2019-08-19T12:44:47.000Z</time>
      </trkpt>
      <trkpt lat="45.17526" lon="5.88567">
        <ele>772.99</ele>
        <time>2019-08-19T12:44:52.000Z</time>
      </trkpt>
      <trkpt lat="45.17504" lon="5.88583">
        <ele>774.76</ele>
        <time>2019-08-19T12:44:57.000Z</time>
      </trkpt>
      <trkpt lat="45.17485" lon="5.88586">
        <ele>778.94</ele>
        <time>2019-08-19T12:45:02.000Z</time>
      </trkpt>
      <trkpt lat="45.17463" lon="5.88584">
        <ele>779.35</ele>
        <time>2019-08-19T12:45:07.000Z</time>
      </trkpt>
      <trkpt lat="45.1744" lon="5.8858">
        <ele>780.96</ele>
        <time>2019-08-19T12:45:12.000Z</time>
      </trkpt>
      <trkpt lat="45.17414" lon="5.88583">
        <ele>777.48</ele>
        <time>2019-08-19T12:45:17.000Z</time>
      </trkpt>
      <trkpt lat="45.17392" lon="5.88582">
        <ele>777.3</ele>
        <time>2019-08-19T12:45:22.000Z</time>
      </trkpt>
      <trkpt lat="45.17367" lon="5.88595">
        <ele>771.19</ele>
        <time>2019-08-19T12:45:27.000Z</time>
      </trkpt>
      <trkpt lat="45.17337" lon="5.88595">
        <ele>768.46</ele>
        <time>2019-08-19T12:45:32.000Z</time>
      </trkpt>
      <trkpt lat="45.1731" lon="5.8859">
        <ele>770.22</ele>
        <time>2019-08-19T12:45:37.000Z</time>
      </trkpt>
      <trkpt lat="45.17284" lon="5.88588">
        <ele>773.94</ele>
        <time>2019-08-19T12:45:42.000Z</time>
      </trkpt>
      <trkpt lat="45.17262" lon="5.88596">
        <ele>771.5</ele>
        <time>2019-08-19T12:45:47.000Z</time>
      </trkpt>
      <trkpt lat="45.17236" lon="5.88604">
        <ele>774.53</ele>
        <time>2019-08-19T12:45:52.000Z</time>
      </trkpt>
      <trkpt lat="45.17213" lon="5.88617">
        <ele>776.79</ele>
        <time>2019-08-19T12:45:57.000Z</time>
      </trkpt>
      <trkpt lat="45.17191" lon="5.88643">
        <ele>778.56</ele>
        <time>2019-08-19T12:46:02.000Z</time>
      </trkpt>
      <trkpt lat="45.17168" lon="5.8867">
        <ele>781.99</ele>
        <time>2019-08-19T12:46:07.000Z</time>
      </trkpt>
      <trkpt lat="45.17143" lon="5.88691">
        <ele>781.59</ele>
        <time>2019-08-19T12:46:12.000Z</time>
      </trkpt>
      <trkpt lat="45.17118" lon="5.88711">
        <ele>781.75</ele>
        <time>2019-08-19T12:46:17.000Z</time>
      </trkpt>
      <trkpt lat="45.17094" lon="5.88719">
        <ele>784.98</ele>
        <time>2019-08-19T12:46:22.000Z</time>
      </trkpt>
      <trkpt lat="45.17067" lon="5.88704">
        <ele>786.61</ele>
        <time>2019-08-19T12:46:27.000Z</time>
      </trkpt>
      <trkpt lat="45.17041" lon="5.88676">
        <ele>785.78</ele>
        <time>2019-08-19T12:46:32.000Z</time>
      </trkpt>
      <trkpt lat="45.17013" lon="5.88663">
        <ele>787.11</ele>
        <time>2019-08-19T12:46:37.000Z</time>
      </trkpt>
      <trkpt lat="45.16984" lon="5.88671">
        <ele>788.84</ele>
        <time>2019-08-19T12:46:42.000Z</time>
      </trkpt>
      <trkpt lat="45.16955" lon="5.88683">
        <ele>792.7</ele>
        <time>2019-08-19T12:46:47.000Z</time>
      </trkpt>
      <trkpt lat="45.16926" lon="5.88699">
        <ele>794.71</ele>
        <time>2019-08-19T12:46:52.000Z</time>
      </trkpt>
      <trkpt lat="45.16894" lon="5.88703">
        <ele>793.71</ele>
        <time>2019-08-19T12:46:57.000Z</time>
      </trkpt>
      <trkpt lat="45.16862" lon="5.88705">
        <ele>794.27</ele>
        <time>2019-08-19T12:47:02.000Z</time>
      </trkpt>
      <trkpt lat="45.16834" lon="5.88713">
        <ele>798.69</ele>
        <time>2019-08-19T12:47:07.000Z</time>
      </trkpt>
      <trkpt lat="45.16806" lon="5.88728">
        <ele>796.17</ele>
        <time>2019-08-19T12:47:12.000Z</time>
      </trkpt>
      <trkpt lat="45.16774" lon="5.8874">
        <ele>793.8</ele>
        <time>2019-08-19T12:47:17.000Z</time>
      </trkpt>
      <trkpt lat="45.16735" lon="5.88738">
        <ele>793.81</ele>
        <time>2019-08-19T12:47:22.000Z</time>
      </trkpt>
      <trkpt lat="45.16701" lon="5.88737">
        <ele>795.05</ele>
        <time>2019-08-19T12:47:27.000Z</time>
      </trkpt>
      <trkpt lat="45.16666" lon="5.88734">
        <ele>794.79</ele>
        <time>2019-08-19T12:47:32.000Z</time>
      </trkpt>
      <trkpt lat="45.16625" lon="5.88731">
        <ele>794.12</ele>
        <time>2019-08-19T12:47:37.000Z</time>
      </trkpt>
      <trkpt lat="45.16578" lon="5.88721">
        <ele>793.39</ele>
        <time>2019-08-19T12:47:42.000Z</time>
      </trkpt>
      <trkpt lat="45.16537" lon="5.88697">
        <ele>791.42</ele>
        <time>2019-08-19T12:47:47.000Z</time>
      </trkpt>
      <trkpt lat="45.16512" lon="5.88645">
        <ele>790.71</ele>
        <time>2019-08-19T12:47:52.000Z</time>
      </trkpt>
      <trkpt lat="45.16508" lon="5.88585">
        <ele>791.36</ele>
        <time>2019-08-19T12:47:57.000Z</time>
      </trkpt>
      <trkpt lat="45.16522" lon="5.88539">
        <ele>793.02</ele>
        <time>2019-08-19T12:48:02.000Z</time>
      </trkpt>
      <trkpt lat="45.16551" lon="5.88521">
        <ele>793.08</ele>
        <time>2019-08-19T12:48:07.000Z</time>
      </trkpt>
      <trkpt lat="45.16578" lon="5.88513">
        <ele>794.46</ele>
        <time>2019-08-19T12:48:12.000Z</time>
      </trkpt>
      <trkpt lat="45.16601" lon="5.88503">
        <ele>793.31</ele>
        <time>2019-08-19T12:48:17.000Z</time>
      </trkpt>
      <trkpt lat="45.16624" lon="5.88491">
        <ele>794.4</ele>
        <time>2019-08-19T12:48:22.000Z</time>
      </trkpt>
      <trkpt lat="45.16644" lon="5.8848">
        <ele>796.99</ele>
        <time>2019-08-19T12:48:27.000Z</time>
      </trkpt>
      <trkpt lat="45.16668" lon="5.88474">
        <ele>796.68</ele>
        <time>2019-08-19T12:48:32.000Z</time>
      </trkpt>
      <trkpt lat="45.16695" lon="5.88476">
        <ele>794.39</ele>
        <time>2019-08-19T12:48:37.000Z</time>
      </trkpt>
      <trkpt lat="45.16721" lon="5.88474">
        <ele>795.4</ele>
        <time>2019-08-19T12:48:42.000Z</time>
      </trkpt>
      <trkpt lat="45.16752" lon="5.88467">
        <ele>796.27</ele>
        <time>2019-08-19T12:48:47.000Z</time>
      </trkpt>
      <trkpt lat="45.16774" lon="5.88436">
        <ele>799.95</ele>
        <time>2019-08-19T12:48:52.000Z</time>
      </trkpt>
      <trkpt lat="45.16788" lon="5.88398">
        <ele>800.87</ele>
        <time>2019-08-19T12:48:57.000Z</time>
      </trkpt>
      <trkpt lat="45.16804" lon="5.88367">
        <ele>801.2</ele>
        <time>2019-08-19T12:49:02.000Z</time>
      </trkpt>
      <trkpt lat="45.16816" lon="5.88347">
        <ele>801.08</ele>
        <time>2019-08-19T12:49:07.000Z</time>
      </trkpt>
      <trkpt lat="45.16828" lon="5.88324">
        <ele>802.27</ele>
        <time>2019-08-19T12:49:12.000Z</time>
      </trkpt>
      <trkpt lat="45.16842" lon="5.88302">
        <ele>802.16</ele>
        <time>2019-08-19T12:49:17.000Z</time>
      </trkpt>
      <trkpt lat="45.16857" lon="5.88286">
        <ele>801.12</ele>
        <time>2019-08-19T12:49:22.000Z</time>
      </trkpt>
      <trkpt lat="45.16876" lon="5.88272">
        <ele>803.61</ele>
        <time>2019-08-19T12:49:27.000Z</time>
      </trkpt>
      <trkpt lat="45.16894" lon="5.88256">
        <ele>808.47</ele>
        <time>2019-08-19T12:49:32.000Z</time>
      </trkpt>
      <trkpt lat="45.1691" lon="5.88244">
        <ele>809.11</ele>
        <time>2019-08-19T12:49:37.000Z</time>
      </trkpt>
      <trkpt lat="45.1693" lon="5.88234">
        <ele>811.77</ele>
        <time>2019-08-19T12:49:42.000Z</time>
      </trkpt>
      <trkpt lat="45.16948" lon="5.88222">
        <ele>812.64</ele>
        <time>2019-08-19T12:49:47.000Z</time>
      </trkpt>
      <trkpt lat="45.16966" lon="5.8821">
        <ele>814.13</ele>
        <time>2019-08-19T12:49:52.000Z</time>
      </trkpt>
      <trkpt lat="45.16984" lon="5.88199">
        <ele>817.96</ele>
        <time>2019-08-19T12:49:57.000Z</time>
      </trkpt>
      <trkpt lat="45.17" lon="5.88188">
        <ele>822.19</ele>
        <time>2019-08-19T12:50:02.000Z</time>
      </trkpt>
      <trkpt lat="45.17017" lon="5.88178">
        <ele>823.18</ele>
        <time>2019-08-19T12:50:07.000Z</time>
      </trkpt>
      <trkpt lat="45.17035" lon="5.88168">
        <ele>822.12</ele>
        <time>2019-08-19T12:50:12.000Z</time>
      </trkpt>
      <trkpt lat="45.17054" lon="5.88155">
        <ele>823.48</ele>
        <time>2019-08-19T12:50:17.000Z</time>
      </trkpt>
      <trkpt lat="45.17072" lon="5.88141">
        <ele>826.01</ele>
        <time>2019-08-19T12:50:22.000Z</time>
      </trkpt>
      <trkpt lat="45.17093" lon="5.88123">
        <ele>831.81</ele>
        <time>2019-08-19T12:50:27.000Z</time>
      </trkpt>
      <trkpt lat="45.17109" lon="5.88103">
        <ele>832.35</ele>
        <time>2019-08-19T12:50:32.000Z</time>
      </trkpt>
      <trkpt lat="45.17126" lon="5.8808">
        <ele>834.31</ele>
        <time>2019-08-19T12:50:37.000Z</time>
      </trkpt>
      <trkpt lat="45.1714" lon="5.88059">
        <ele>832.79</ele>
        <time>2019-08-19T12:50:42.000Z</time>
      </trkpt>
      <trkpt lat="45.17153" lon="5.88036">
        <ele>837.19</ele>
        <time>2019-08-19T12:50:47.000Z</time>
      </trkpt>
      <trkpt lat="45.17167" lon="5.8801">
        <ele>839.4</ele>
        <time>2019-08-19T12:50:52.000Z</time>
      </trkpt>
      <trkpt lat="45.17179" lon="5.87984">
        <ele>841.59</ele>
        <time>2019-08-19T12:50:57.000Z</time>
      </trkpt>
      <trkpt lat="45.17194" lon="5.87958">
        <ele>839.43</ele>
        <time>2019-08-19T12:51:02.000Z</time>
      </trkpt>
      <trkpt lat="45.17208" lon="5.87935">
        <ele>837.97</ele>
        <time>2019-08-19T12:51:07.000Z</time>
      </trkpt>
      <trkpt lat="45.17226" lon="5.87914">
        <ele>841.84</ele>
        <time>2019-08-19T12:51:12.000Z</time>
      </trkpt>
      <trkpt lat="45.17242" lon="5.8789">
        <ele>842.56</ele>
        <time>2019-08-19T12:51:17.000Z</time>
      </trkpt>
      <trkpt lat="45.17259" lon="5.87865">
        <ele>844.09</ele>
        <time>2019-08-19T12:51:22.000Z</time>
      </trkpt>
      <trkpt lat="45.17277" lon="5.87838">
        <ele>845.48</ele>
        <time>2019-08-19T12:51:27.000Z</time>
      </trkpt>
      <trkpt lat="45.17293" lon="5.87806">
        <ele>842.25</ele>
        <time>2019-08-19T12:51:32.000Z</time>
      </trkpt>
      <trkpt lat="45.17313" lon="5.87775">
        <ele>846.81</ele>
        <time>2019-08-19T12:51:37.000Z</time>
      </trkpt>
      <trkpt lat="45.17333" lon="5.87743">
        <ele>846.97</ele>
        <time>2019-08-19T12:51:42.000Z</time>
      </trkpt>
      <trkpt lat="45.17351" lon="5.87711">
        <ele>847.54</ele>
        <time>2019-08-19T12:51:47.000Z</time>
      </trkpt>
      <trkpt lat="45.17361" lon="5.87678">
        <ele>850.21</ele>
        <time>2019-08-19T12:51:52.000Z</time>
      </trkpt>
      <trkpt lat="45.1737" lon="5.87647">
        <ele>851.05</ele>
        <time>2019-08-19T12:51:57.000Z</time>
      </trkpt>
      <trkpt lat="45.17371" lon="5.87609">
        <ele>849.65</ele>
        <time>2019-08-19T12:52:02.000Z</time>
      </trkpt>
      <trkpt lat="45.17363" lon="5.87569">
        <ele>846.5</ele>
        <time>2019-08-19T12:52:07.000Z</time>
      </trkpt>
      <trkpt lat="45.1735" lon="5.87524">
        <ele>844.28</ele>
        <time>2019-08-19T12:52:12.000Z</time>
      </trkpt>
      <trkpt lat="45.17327" lon="5.8748">
        <ele>842.65</ele>
        <time>2019-08-19T12:52:17.000Z</time>
      </trkpt>
      <trkpt lat="45.17295" lon="5.87441">
        <ele>842.64</ele>
        <time>2019-08-19T12:52:22.000Z</time>
      </trkpt>
      <trkpt lat="45.1726" lon="5.8741">
        <ele>838.43</ele>
        <time>2019-08-19T12:52:27.000Z</time>
      </trkpt>
      <trkpt lat="45.17227" lon="5.87367">
        <ele>837.76</ele>
        <time>2019-08-19T12:52:32.000Z</time>
      </trkpt>
      <trkpt lat="45.17206" lon="5.87315">
        <ele>837.66</ele>
        <time>2019-08-19T12:52:37.000Z</time>
      </trkpt>
      <trkpt lat="45.17199" lon="5.87254">
        <ele>834.43</ele>
        <time>2019-08-19T12:52:42.000Z</time>
      </trkpt>
      <trkpt lat="45.17182" lon="5.87197">
        <ele>833.58</ele>
        <time>2019-08-19T12:52:47.000Z</time>
      </trkpt>
      <trkpt lat="45.17166" lon="5.87137">
        <ele>832.93</ele>
        <time>2019-08-19T12:52:52.000Z</time>
      </trkpt>
      <trkpt lat="45.1714" lon="5.87078">
        <ele>831.77</ele>
        <time>2019-08-19T12:52:57.000Z</time>
      </trkpt>
      <trkpt lat="45.1711" lon="5.87016">
        <ele>829.92</ele>
        <time>2019-08-19T12:53:02.000Z</time>
      </trkpt>
      <trkpt lat="45.17083" lon="5.86953">
        <ele>829.71</ele>
        <time>2019-08-19T12:53:07.000Z</time>
      </trkpt>
      <trkpt lat="45.17056" lon="5.86894">
        <ele>827.34</ele>
        <time>2019-08-19T12:53:12.000Z</time>
      </trkpt>
      <trkpt lat="45.17027" lon="5.86833">
        <ele>825.2</ele>
        <time>2019-08-19T12:53:17.000Z</time>
      </trkpt>
      <trkpt lat="45.16996" lon="5.86765">
        <ele>823.81</ele>
        <time>2019-08-19T12:53:22.000Z</time>
      </trkpt>
      <trkpt lat="45.16967" lon="5.867">
        <ele>821.55</ele>
        <time>2019-08-19T12:53:27.000Z</time>
      </trkpt>
      <trkpt lat="45.1694" lon="5.86637">
        <ele>821.44</ele>
        <time>2019-08-19T12:53:32.000Z</time>
      </trkpt>
      <trkpt lat="45.16916" lon="5.86579">
        <ele>824.56</ele>
        <time>2019-08-19T12:53:37.000Z</time>
      </trkpt>
      <trkpt lat="45.16896" lon="5.8652">
        <ele>822.08</ele>
        <time>2019-08-19T12:53:42.000Z</time>
      </trkpt>
      <trkpt lat="45.16882" lon="5.86464">
        <ele>821.25</ele>
        <time>2019-08-19T12:53:47.000Z</time>
      </trkpt>
      <trkpt lat="45.16868" lon="5.86405">
        <ele>815.93</ele>
        <time>2019-08-19T12:53:52.000Z</time>
      </trkpt>
      <trkpt lat="45.16842" lon="5.86357">
        <ele>814.41</ele>
        <time>2019-08-19T12:53:57.000Z</time>
      </trkpt>
      <trkpt lat="45.16809" lon="5.86318">
        <ele>815.51</ele>
        <time>2019-08-19T12:54:02.000Z</time>
      </trkpt>
      <trkpt lat="45.16774" lon="5.86275">
        <ele>816.65</ele>
        <time>2019-08-19T12:54:07.000Z</time>
      </trkpt>
      <trkpt lat="45.16763" lon="5.8622">
        <ele>815.67</ele>
        <time>2019-08-19T12:54:12.000Z</time>
      </trkpt>
      <trkpt lat="45.16765" lon="5.86156">
        <ele>811.84</ele>
        <time>2019-08-19T12:54:17.000Z</time>
      </trkpt>
      <trkpt lat="45.16778" lon="5.86101">
        <ele>814.66</ele>
        <time>2019-08-19T12:54:22.000Z</time>
      </trkpt>
      <trkpt lat="45.1679" lon="5.86044">
        <ele>813.91</ele>
        <time>2019-08-19T12:54:27.000Z</time>
      </trkpt>
      <trkpt lat="45.1679" lon="5.85981">
        <ele>809.48</ele>
        <time>2019-08-19T12:54:32.000Z</time>
      </trkpt>
      <trkpt lat="45.16777" lon="5.85924">
        <ele>806.16</ele>
        <time>2019-08-19T12:54:37.000Z</time>
      </trkpt>
      <trkpt lat="45.16763" lon="5.85861">
        <ele>804.88</ele>
        <time>2019-08-19T12:54:42.000Z</time>
      </trkpt>
      <trkpt lat="45.16751" lon="5.8579">
        <ele>801.57</ele>
        <time>2019-08-19T12:54:47.000Z</time>
      </trkpt>
      <trkpt lat="45.16761" lon="5.85715">
        <ele>800.71</ele>
        <time>2019-08-19T12:54:52.000Z</time>
      </trkpt>
      <trkpt lat="45.16757" lon="5.85644">
        <ele>797.82</ele>
        <time>2019-08-19T12:54:57.000Z</time>
      </trkpt>
      <trkpt lat="45.16741" lon="5.85582">
        <ele>795.97</ele>
        <time>2019-08-19T12:55:02.000Z</time>
      </trkpt>
      <trkpt lat="45.16726" lon="5.85522">
        <ele>793.83</ele>
        <time>2019-08-19T12:55:07.000Z</time>
      </trkpt>
      <trkpt lat="45.16713" lon="5.85459">
        <ele>793.25</ele>
        <time>2019-08-19T12:55:12.000Z</time>
      </trkpt>
      <trkpt lat="45.16703" lon="5.85398">
        <ele>794.16</ele>
        <time>2019-08-19T12:55:17.000Z</time>
      </trkpt>
      <trkpt lat="45.1669" lon="5.85352">
        <ele>791.18</ele>
        <time>2019-08-19T12:55:22.000Z</time>
      </trkpt>
      <trkpt lat="45.16679" lon="5.85322">
        <ele>792.23</ele>
        <time>2019-08-19T12:55:27.000Z</time>
      </trkpt>
      <trkpt lat="45.16667" lon="5.85299">
        <ele>793.9</ele>
        <time>2019-08-19T12:55:32.000Z</time>
      </trkpt>
      <trkpt lat="45.16655" lon="5.85274">
        <ele>793.79</ele>
        <time>2019-08-19T12:55:37.000Z</time>
      </trkpt>
      <trkpt lat="45.16642" lon="5.85257">
        <ele>794.89</ele>
        <time>2019-08-19T12:55:42.000Z</time>
      </trkpt>
      <trkpt lat="45.1663" lon="5.85233">
        <ele>795.08</ele>
        <time>2019-08-19T12:55:47.000Z</time>
      </trkpt>
      <trkpt lat="45.16617" lon="5.8521">
        <ele>798.07</ele>
        <time>2019-08-19T12:55:52.000Z</time>
      </trkpt>
      <trkpt lat="45.16602" lon="5.85186">
        <ele>799.56</ele>
        <time>2019-08-19T12:55:57.000Z</time>
      </trkpt>
      <trkpt lat="45.16586" lon="5.85161">
        <ele>801.68</ele>
        <time>2019-08-19T12:56:02.000Z</time>
      </trkpt>
      <trkpt lat="45.16575" lon="5.85137">
        <ele>802.36</ele>
        <time>2019-08-19T12:56:07.000Z</time>
      </trkpt>
      <trkpt lat="45.16562" lon="5.85113">
        <ele>802.13</ele>
        <time>2019-08-19T12:56:12.000Z</time>
      </trkpt>
      <trkpt lat="45.16553" lon="5.8508">
        <ele>800.81</ele>
        <time>2019-08-19T12:56:17.000Z</time>
      </trkpt>
      <trkpt lat="45.16546" lon="5.85049">
        <ele>802.12</ele>
        <time>2019-08-19T12:56:22.000Z</time>
      </trkpt>
      <trkpt lat="45.16542" lon="5.8502">
        <ele>803.86</ele>
        <time>2019-08-19T12:56:27.000Z</time>
      </trkpt>
      <trkpt lat="45.16538" lon="5.84992">
        <ele>805.13</ele>
        <time>2019-08-19T12:56:32.000Z</time>
      </trkpt>
      <trkpt lat="45.16535" lon="5.84964">
        <ele>805.95</ele>
        <time>2019-08-19T12:56:37.000Z</time>
      </trkpt>
      <trkpt lat="45.16533" lon="5.84936">
        <ele>805.84</ele>
        <time>2019-08-19T12:56:42.000Z</time>
      </trkpt>
      <trkpt lat="45.16529" lon="5.84909">
        <ele>805.22</ele>
        <time>2019-08-19T12:56:47.000Z</time>
      </trkpt>
      <trkpt lat="45.16527" lon="5.84882">
        <ele>806.34</ele>
        <time>2019-08-19T12:56:52.000Z</time>
      </trkpt>
      <trkpt lat="45.16525" lon="5.84861">
        <ele>805.91</ele>
        <time>2019-08-19T12:56:57.000Z</time>
      </trkpt>
      <trkpt lat="45.16515" lon="5.84844">
        <ele>808.1</ele>
        <time>2019-08-19T12:57:02.000Z</time>
      </trkpt>
      <trkpt lat="45.16501" lon="5.84838">
        <ele>809.56</ele>
        <time>2019-08-19T12:57:07.000Z</time>
      </trkpt>
      <trkpt lat="45.16483" lon="5.84833">
        <ele>809.07</ele>
        <time>2019-08-19T12:57:12.000Z</time>
      </trkpt>
      <trkpt lat="45.16463" lon="5.84857">
        <ele>807.05</ele>
        <time>2019-08-19T12:57:17.000Z</time>
      </trkpt>
      <trkpt lat="45.16438" lon="5.84902">
        <ele>803.5</ele>
        <time>2019-08-19T12:57:22.000Z</time>
      </trkpt>
      <trkpt lat="45.16405" lon="5.84952">
        <ele>802.17</ele>
        <time>2019-08-19T12:57:27.000Z</time>
      </trkpt>
      <trkpt lat="45.16363" lon="5.84992">
        <ele>798.91</ele>
        <time>2019-08-19T12:57:32.000Z</time>
      </trkpt>
      <trkpt lat="45.16319" lon="5.85039">
        <ele>793.38</ele>
        <time>2019-08-19T12:57:37.000Z</time>
      </trkpt>
      <trkpt lat="45.16299" lon="5.85109">
        <ele>788.78</ele>
        <time>2019-08-19T12:57:42.000Z</time>
      </trkpt>
      <trkpt lat="45.16285" lon="5.85175">
        <ele>784.97</ele>
        <time>2019-08-19T12:57:47.000Z</time>
      </trkpt>
      <trkpt lat="45.16236" lon="5.85154">
        <ele>782.93</ele>
        <time>2019-08-19T12:57:52.000Z</time>
      </trkpt>
      <trkpt lat="45.16187" lon="5.85121">
        <ele>780.16</ele>
        <time>2019-08-19T12:57:57.000Z</time>
      </trkpt>
      <trkpt lat="45.16144" lon="5.85084">
        <ele>775.27</ele>
        <time>2019-08-19T12:58:02.000Z</time>
      </trkpt>
      <trkpt lat="45.16109" lon="5.85029">
        <ele>770.51</ele>
        <time>2019-08-19T12:58:07.000Z</time>
      </trkpt>
      <trkpt lat="45.16089" lon="5.84967">
        <ele>763.67</ele>
        <time>2019-08-19T12:58:12.000Z</time>
      </trkpt>
      <trkpt lat="45.16043" lon="5.84929">
        <ele>756.75</ele>
        <time>2019-08-19T12:58:17.000Z</time>
      </trkpt>
      <trkpt lat="45.15989" lon="5.84922">
        <ele>756.97</ele>
        <time>2019-08-19T12:58:22.000Z</time>
      </trkpt>
      <trkpt lat="45.1593" lon="5.84914">
        <ele>751.2</ele>
        <time>2019-08-19T12:58:27.000Z</time>
      </trkpt>
      <trkpt lat="45.15886" lon="5.84896">
        <ele>746.47</ele>
        <time>2019-08-19T12:58:32.000Z</time>
      </trkpt>
      <trkpt lat="45.15868" lon="5.84859">
        <ele>742.93</ele>
        <time>2019-08-19T12:58:37.000Z</time>
      </trkpt>
      <trkpt lat="45.15842" lon="5.84866">
        <ele>741.02</ele>
        <time>2019-08-19T12:58:42.000Z</time>
      </trkpt>
      <trkpt lat="45.15825" lon="5.84887">
        <ele>738.49</ele>
        <time>2019-08-19T12:58:47.000Z</time>
      </trkpt>
      <trkpt lat="45.15811" lon="5.84905">
        <ele>739.26</ele>
        <time>2019-08-19T12:58:52.000Z</time>
      </trkpt>
      <trkpt lat="45.15798" lon="5.84913">
        <ele>740.2</ele>
        <time>2019-08-19T12:58:57.000Z</time>
      </trkpt>
      <trkpt lat="45.15777" lon="5.84894">
        <ele>740.1</ele>
        <time>2019-08-19T12:59:02.000Z</time>
      </trkpt>
      <trkpt lat="45.15756" lon="5.84886">
        <ele>736.54</ele>
        <time>2019-08-19T12:59:07.000Z</time>
      </trkpt>
      <trkpt lat="45.15719" lon="5.84883">
        <ele>731.46</ele>
        <time>2019-08-19T12:59:12.000Z</time>
      </trkpt>
      <trkpt lat="45.15669" lon="5.84894">
        <ele>726.6</ele>
        <time>2019-08-19T12:59:17.000Z</time>
      </trkpt>
      <trkpt lat="45.15621" lon="5.84896">
        <ele>721.75</ele>
        <time>2019-08-19T12:59:22.000Z</time>
      </trkpt>
      <trkpt lat="45.15598" lon="5.8487">
        <ele>719.87</ele>
        <time>2019-08-19T12:59:27.000Z</time>
      </trkpt>
      <trkpt lat="45.15613" lon="5.84816">
        <ele>714.65</ele>
        <time>2019-08-19T12:59:32.000Z</time>
      </trkpt>
      <trkpt lat="45.15632" lon="5.84763">
        <ele>710.54</ele>
        <time>2019-08-19T12:59:37.000Z</time>
      </trkpt>
      <trkpt lat="45.15635" lon="5.84725">
        <ele>709.18</ele>
        <time>2019-08-19T12:59:42.000Z</time>
      </trkpt>
      <trkpt lat="45.15601" lon="5.84743">
        <ele>705.31</ele>
        <time>2019-08-19T12:59:47.000Z</time>
      </trkpt>
      <trkpt lat="45.15561" lon="5.84768">
        <ele>699.44</ele>
        <time>2019-08-19T12:59:52.000Z</time>
      </trkpt>
      <trkpt lat="45.15527" lon="5.84806">
        <ele>698.64</ele>
        <time>2019-08-19T12:59:57.000Z</time>
      </trkpt>
      <trkpt lat="45.15502" lon="5.84862">
        <ele>698.43</ele>
        <time>2019-08-19T13:00:02.000Z</time>
      </trkpt>
      <trkpt lat="45.15479" lon="5.84913">
        <ele>697.47</ele>
        <time>2019-08-19T13:00:07.000Z</time>
      </trkpt>
      <trkpt lat="45.15452" lon="5.84952">
        <ele>694.75</ele>
        <time>2019-08-19T13:00:12.000Z</time>
      </trkpt>
      <trkpt lat="45.15416" lon="5.84993">
        <ele>693.21</ele>
        <time>2019-08-19T13:00:17.000Z</time>
      </trkpt>
      <trkpt lat="45.15397" lon="5.85056">
        <ele>693.6</ele>
        <time>2019-08-19T13:00:22.000Z</time>
      </trkpt>
      <trkpt lat="45.15375" lon="5.85044">
        <ele>691.35</ele>
        <time>2019-08-19T13:00:27.000Z</time>
      </trkpt>
      <trkpt lat="45.15369" lon="5.85015">
        <ele>694.1</ele>
        <time>2019-08-19T13:00:32.000Z</time>
      </trkpt>
      <trkpt lat="45.15359" lon="5.84986">
        <ele>691.09</ele>
        <time>2019-08-19T13:00:37.000Z</time>
      </trkpt>
      <trkpt lat="45.15353" lon="5.84955">
        <ele>689.92</ele>
        <time>2019-08-19T13:00:42.000Z</time>
      </trkpt>
      <trkpt lat="45.15362" lon="5.84925">
        <ele>693.2</ele>
        <time>2019-08-19T13:00:47.000Z</time>
      </trkpt>
      <trkpt lat="45.15369" lon="5.84884">
        <ele>695.42</ele>
        <time>2019-08-19T13:00:52.000Z</time>
      </trkpt>
      <trkpt lat="45.15358" lon="5.84847">
        <ele>697.26</ele>
        <time>2019-08-19T13:00:57.000Z</time>
      </trkpt>
      <trkpt lat="45.15339" lon="5.84816">
        <ele>696.08</ele>
        <time>2019-08-19T13:01:02.000Z</time>
      </trkpt>
      <trkpt lat="45.15319" lon="5.84785">
        <ele>698.52</ele>
        <time>2019-08-19T13:01:07.000Z</time>
      </trkpt>
      <trkpt lat="45.15296" lon="5.84751">
        <ele>698.91</ele>
        <time>2019-08-19T13:01:12.000Z</time>
      </trkpt>
      <trkpt lat="45.15276" lon="5.84722">
        <ele>700.14</ele>
        <time>2019-08-19T13:01:17.000Z</time>
      </trkpt>
      <trkpt lat="45.15264" lon="5.84702">
        <ele>703.31</ele>
        <time>2019-08-19T13:01:22.000Z</time>
      </trkpt>
      <trkpt lat="45.15262" lon="5.84688">
        <ele>694.14</ele>
        <time>2019-08-19T13:01:46.000Z</time>
      </trkpt>
      <trkpt lat="45.15259" lon="5.84673">
        <ele>694.52</ele>
        <time>2019-08-19T13:01:52.000Z</time>
      </trkpt>
      <trkpt lat="45.15255" lon="5.84647">
        <ele>690.77</ele>
        <time>2019-08-19T13:01:57.000Z</time>
      </trkpt>
      <trkpt lat="45.1524" lon="5.8461">
        <ele>688.75</ele>
        <time>2019-08-19T13:02:02.000Z</time>
      </trkpt>
      <trkpt lat="45.15209" lon="5.84564">
        <ele>689.29</ele>
        <time>2019-08-19T13:02:07.000Z</time>
      </trkpt>
      <trkpt lat="45.15163" lon="5.84523">
        <ele>686.36</ele>
        <time>2019-08-19T13:02:12.000Z</time>
      </trkpt>
      <trkpt lat="45.15103" lon="5.84487">
        <ele>679.78</ele>
        <time>2019-08-19T13:02:17.000Z</time>
      </trkpt>
      <trkpt lat="45.15043" lon="5.84455">
        <ele>668.42</ele>
        <time>2019-08-19T13:02:22.000Z</time>
      </trkpt>
      <trkpt lat="45.15035" lon="5.84383">
        <ele>659.86</ele>
        <time>2019-08-19T13:02:27.000Z</time>
      </trkpt>
      <trkpt lat="45.15089" lon="5.84347">
        <ele>652.8</ele>
        <time>2019-08-19T13:02:32.000Z</time>
      </trkpt>
      <trkpt lat="45.15145" lon="5.84309">
        <ele>649.7</ele>
        <time>2019-08-19T13:02:37.000Z</time>
      </trkpt>
      <trkpt lat="45.15186" lon="5.84234">
        <ele>642.56</ele>
        <time>2019-08-19T13:02:42.000Z</time>
      </trkpt>
      <trkpt lat="45.15246" lon="5.84174">
        <ele>634.6</ele>
        <time>2019-08-19T13:02:47.000Z</time>
      </trkpt>
      <trkpt lat="45.15314" lon="5.84135">
        <ele>629.26</ele>
        <time>2019-08-19T13:02:52.000Z</time>
      </trkpt>
      <trkpt lat="45.1537" lon="5.84081">
        <ele>626.59</ele>
        <time>2019-08-19T13:02:57.000Z</time>
      </trkpt>
      <trkpt lat="45.15425" lon="5.8404">
        <ele>624.32</ele>
        <time>2019-08-19T13:03:02.000Z</time>
      </trkpt>
      <trkpt lat="45.15479" lon="5.84041">
        <ele>622.45</ele>
        <time>2019-08-19T13:03:07.000Z</time>
      </trkpt>
      <trkpt lat="45.15517" lon="5.84056">
        <ele>619.7</ele>
        <time>2019-08-19T13:03:12.000Z</time>
      </trkpt>
      <trkpt lat="45.15516" lon="5.84027">
        <ele>619.31</ele>
        <time>2019-08-19T13:03:17.000Z</time>
      </trkpt>
      <trkpt lat="45.15494" lon="5.84004">
        <ele>619.83</ele>
        <time>2019-08-19T13:03:22.000Z</time>
      </trkpt>
      <trkpt lat="45.15465" lon="5.83976">
        <ele>616.97</ele>
        <time>2019-08-19T13:03:27.000Z</time>
      </trkpt>
      <trkpt lat="45.15435" lon="5.83946">
        <ele>615.72</ele>
        <time>2019-08-19T13:03:32.000Z</time>
      </trkpt>
      <trkpt lat="45.15397" lon="5.83928">
        <ele>613.01</ele>
        <time>2019-08-19T13:03:37.000Z</time>
      </trkpt>
      <trkpt lat="45.15354" lon="5.83899">
        <ele>610.07</ele>
        <time>2019-08-19T13:03:42.000Z</time>
      </trkpt>
      <trkpt lat="45.15326" lon="5.83858">
        <ele>608.28</ele>
        <time>2019-08-19T13:03:47.000Z</time>
      </trkpt>
      <trkpt lat="45.15291" lon="5.83846">
        <ele>606.47</ele>
        <time>2019-08-19T13:03:52.000Z</time>
      </trkpt>
      <trkpt lat="45.15257" lon="5.83846">
        <ele>604.41</ele>
        <time>2019-08-19T13:03:57.000Z</time>
      </trkpt>
      <trkpt lat="45.15228" lon="5.83824">
        <ele>602.25</ele>
        <time>2019-08-19T13:04:02.000Z</time>
      </trkpt>
      <trkpt lat="45.15205" lon="5.83802">
        <ele>599.64</ele>
        <time>2019-08-19T13:04:07.000Z</time>
      </trkpt>
      <trkpt lat="45.15176" lon="5.83775">
        <ele>597.64</ele>
        <time>2019-08-19T13:04:12.000Z</time>
      </trkpt>
      <trkpt lat="45.15144" lon="5.83752">
        <ele>595.62</ele>
        <time>2019-08-19T13:04:17.000Z</time>
      </trkpt>
      <trkpt lat="45.15116" lon="5.83724">
        <ele>593.06</ele>
        <time>2019-08-19T13:04:22.000Z</time>
      </trkpt>
      <trkpt lat="45.15089" lon="5.83703">
        <ele>594.77</ele>
        <time>2019-08-19T13:04:27.000Z</time>
      </trkpt>
      <trkpt lat="45.15078" lon="5.83729">
        <ele>589.94</ele>
        <time>2019-08-19T13:04:32.000Z</time>
      </trkpt>
      <trkpt lat="45.15066" lon="5.83749">
        <ele>590.66</ele>
        <time>2019-08-19T13:04:37.000Z</time>
      </trkpt>
      <trkpt lat="45.15052" lon="5.83769">
        <ele>595.93</ele>
        <time>2019-08-19T13:04:42.000Z</time>
      </trkpt>
      <trkpt lat="45.15041" lon="5.8378">
        <ele>592.23</ele>
        <time>2019-08-19T13:04:47.000Z</time>
      </trkpt>
      <trkpt lat="45.15027" lon="5.83793">
        <ele>590.04</ele>
        <time>2019-08-19T13:04:52.000Z</time>
      </trkpt>
      <trkpt lat="45.15009" lon="5.83806">
        <ele>589.5</ele>
        <time>2019-08-19T13:04:57.000Z</time>
      </trkpt>
      <trkpt lat="45.14989" lon="5.83815">
        <ele>590.49</ele>
        <time>2019-08-19T13:05:02.000Z</time>
      </trkpt>
      <trkpt lat="45.14968" lon="5.83824">
        <ele>591.26</ele>
        <time>2019-08-19T13:05:07.000Z</time>
      </trkpt>
      <trkpt lat="45.14943" lon="5.83831">
        <ele>588.27</ele>
        <time>2019-08-19T13:05:12.000Z</time>
      </trkpt>
      <trkpt lat="45.14923" lon="5.83841">
        <ele>587.84</ele>
        <time>2019-08-19T13:05:17.000Z</time>
      </trkpt>
      <trkpt lat="45.14898" lon="5.83847">
        <ele>591</ele>
        <time>2019-08-19T13:05:22.000Z</time>
      </trkpt>
      <trkpt lat="45.14873" lon="5.83856">
        <ele>587.35</ele>
        <time>2019-08-19T13:05:27.000Z</time>
      </trkpt>
      <trkpt lat="45.14849" lon="5.83864">
        <ele>588.7</ele>
        <time>2019-08-19T13:05:32.000Z</time>
      </trkpt>
      <trkpt lat="45.14823" lon="5.83872">
        <ele>589.17</ele>
        <time>2019-08-19T13:05:37.000Z</time>
      </trkpt>
      <trkpt lat="45.14796" lon="5.83882">
        <ele>589.57</ele>
        <time>2019-08-19T13:05:42.000Z</time>
      </trkpt>
      <trkpt lat="45.14769" lon="5.83888">
        <ele>586.59</ele>
        <time>2019-08-19T13:05:47.000Z</time>
      </trkpt>
      <trkpt lat="45.14739" lon="5.83897">
        <ele>588.57</ele>
        <time>2019-08-19T13:05:52.000Z</time>
      </trkpt>
      <trkpt lat="45.14711" lon="5.83899">
        <ele>591.21</ele>
        <time>2019-08-19T13:05:57.000Z</time>
      </trkpt>
      <trkpt lat="45.14681" lon="5.839">
        <ele>589.91</ele>
        <time>2019-08-19T13:06:02.000Z</time>
      </trkpt>
      <trkpt lat="45.14648" lon="5.83898">
        <ele>590.36</ele>
        <time>2019-08-19T13:06:07.000Z</time>
      </trkpt>
      <trkpt lat="45.14616" lon="5.83896">
        <ele>591.28</ele>
        <time>2019-08-19T13:06:12.000Z</time>
      </trkpt>
      <trkpt lat="45.14586" lon="5.83898">
        <ele>593.13</ele>
        <time>2019-08-19T13:06:17.000Z</time>
      </trkpt>
      <trkpt lat="45.1456" lon="5.8391">
        <ele>595.7</ele>
        <time>2019-08-19T13:06:22.000Z</time>
      </trkpt>
      <trkpt lat="45.14534" lon="5.83917">
        <ele>594.3</ele>
        <time>2019-08-19T13:06:27.000Z</time>
      </trkpt>
      <trkpt lat="45.14508" lon="5.83929">
        <ele>592.91</ele>
        <time>2019-08-19T13:06:32.000Z</time>
      </trkpt>
      <trkpt lat="45.14483" lon="5.8394">
        <ele>595.6</ele>
        <time>2019-08-19T13:06:37.000Z</time>
      </trkpt>
      <trkpt lat="45.14456" lon="5.83952">
        <ele>598.13</ele>
        <time>2019-08-19T13:06:42.000Z</time>
      </trkpt>
      <trkpt lat="45.14427" lon="5.83957">
        <ele>598.93</ele>
        <time>2019-08-19T13:06:47.000Z</time>
      </trkpt>
      <trkpt lat="45.14404" lon="5.83971">
        <ele>598.24</ele>
        <time>2019-08-19T13:06:52.000Z</time>
      </trkpt>
      <trkpt lat="45.14392" lon="5.83997">
        <ele>596.06</ele>
        <time>2019-08-19T13:06:57.000Z</time>
      </trkpt>
      <trkpt lat="45.14383" lon="5.84025">
        <ele>593.25</ele>
        <time>2019-08-19T13:07:02.000Z</time>
      </trkpt>
      <trkpt lat="45.14366" lon="5.8405">
        <ele>591.74</ele>
        <time>2019-08-19T13:07:07.000Z</time>
      </trkpt>
      <trkpt lat="45.14342" lon="5.84081">
        <ele>588.93</ele>
        <time>2019-08-19T13:07:12.000Z</time>
      </trkpt>
      <trkpt lat="45.14313" lon="5.8411">
        <ele>589.52</ele>
        <time>2019-08-19T13:07:17.000Z</time>
      </trkpt>
      <trkpt lat="45.14281" lon="5.84137">
        <ele>587.34</ele>
        <time>2019-08-19T13:07:22.000Z</time>
      </trkpt>
      <trkpt lat="45.14255" lon="5.84113">
        <ele>584.76</ele>
        <time>2019-08-19T13:07:27.000Z</time>
      </trkpt>
      <trkpt lat="45.1424" lon="5.84067">
        <ele>582.5</ele>
        <time>2019-08-19T13:07:32.000Z</time>
      </trkpt>
      <trkpt lat="45.14213" lon="5.84038">
        <ele>577.74</ele>
        <time>2019-08-19T13:07:37.000Z</time>
      </trkpt>
      <trkpt lat="45.14178" lon="5.8403">
        <ele>578.22</ele>
        <time>2019-08-19T13:07:42.000Z</time>
      </trkpt>
      <trkpt lat="45.14144" lon="5.84041">
        <ele>579.86</ele>
        <time>2019-08-19T13:07:47.000Z</time>
      </trkpt>
      <trkpt lat="45.14108" lon="5.84059">
        <ele>581.02</ele>
        <time>2019-08-19T13:07:52.000Z</time>
      </trkpt>
      <trkpt lat="45.1408" lon="5.84073">
        <ele>577.18</ele>
        <time>2019-08-19T13:07:57.000Z</time>
      </trkpt>
      <trkpt lat="45.14051" lon="5.84074">
        <ele>578.46</ele>
        <time>2019-08-19T13:08:02.000Z</time>
      </trkpt>
      <trkpt lat="45.14022" lon="5.84065">
        <ele>579.88</ele>
        <time>2019-08-19T13:08:07.000Z</time>
      </trkpt>
      <trkpt lat="45.13988" lon="5.84058">
        <ele>580.77</ele>
        <time>2019-08-19T13:08:12.000Z</time>
      </trkpt>
      <trkpt lat="45.1395" lon="5.84049">
        <ele>578.53</ele>
        <time>2019-08-19T13:08:17.000Z</time>
      </trkpt>
      <trkpt lat="45.13911" lon="5.84019">
        <ele>574.06</ele>
        <time>2019-08-19T13:08:22.000Z</time>
      </trkpt>
      <trkpt lat="45.13867" lon="5.84001">
        <ele>568.93</ele>
        <time>2019-08-19T13:08:27.000Z</time>
      </trkpt>
      <trkpt lat="45.13821" lon="5.83989">
        <ele>569.32</ele>
        <time>2019-08-19T13:08:32.000Z</time>
      </trkpt>
      <trkpt lat="45.13787" lon="5.83966">
        <ele>567.89</ele>
        <time>2019-08-19T13:08:37.000Z</time>
      </trkpt>
      <trkpt lat="45.13761" lon="5.8394">
        <ele>569.5</ele>
        <time>2019-08-19T13:08:42.000Z</time>
      </trkpt>
      <trkpt lat="45.1374" lon="5.8395">
        <ele>567.43</ele>
        <time>2019-08-19T13:08:47.000Z</time>
      </trkpt>
      <trkpt lat="45.13714" lon="5.83941">
        <ele>566.92</ele>
        <time>2019-08-19T13:08:52.000Z</time>
      </trkpt>
      <trkpt lat="45.13684" lon="5.83927">
        <ele>567.14</ele>
        <time>2019-08-19T13:08:57.000Z</time>
      </trkpt>
      <trkpt lat="45.1366" lon="5.83916">
        <ele>561.28</ele>
        <time>2019-08-19T13:09:02.000Z</time>
      </trkpt>
      <trkpt lat="45.13641" lon="5.83906">
        <ele>560.99</ele>
        <time>2019-08-19T13:09:07.000Z</time>
      </trkpt>
      <trkpt lat="45.13613" lon="5.83892">
        <ele>555.75</ele>
        <time>2019-08-19T13:09:12.000Z</time>
      </trkpt>
      <trkpt lat="45.1359" lon="5.83887">
        <ele>556.96</ele>
        <time>2019-08-19T13:09:17.000Z</time>
      </trkpt>
      <trkpt lat="45.1357" lon="5.8388">
        <ele>557.18</ele>
        <time>2019-08-19T13:09:22.000Z</time>
      </trkpt>
      <trkpt lat="45.13549" lon="5.83868">
        <ele>560.78</ele>
        <time>2019-08-19T13:09:27.000Z</time>
      </trkpt>
      <trkpt lat="45.13525" lon="5.83858">
        <ele>565.23</ele>
        <time>2019-08-19T13:09:32.000Z</time>
      </trkpt>
      <trkpt lat="45.13507" lon="5.83848">
        <ele>568.1</ele>
        <time>2019-08-19T13:09:37.000Z</time>
      </trkpt>
      <trkpt lat="45.13487" lon="5.83838">
        <ele>568.14</ele>
        <time>2019-08-19T13:09:42.000Z</time>
      </trkpt>
      <trkpt lat="45.13462" lon="5.8383">
        <ele>569.38</ele>
        <time>2019-08-19T13:09:47.000Z</time>
      </trkpt>
      <trkpt lat="45.13437" lon="5.83819">
        <ele>565.47</ele>
        <time>2019-08-19T13:09:52.000Z</time>
      </trkpt>
      <trkpt lat="45.13411" lon="5.83811">
        <ele>565.03</ele>
        <time>2019-08-19T13:09:57.000Z</time>
      </trkpt>
      <trkpt lat="45.13388" lon="5.83804">
        <ele>566.21</ele>
        <time>2019-08-19T13:10:02.000Z</time>
      </trkpt>
      <trkpt lat="45.13366" lon="5.83797">
        <ele>569.14</ele>
        <time>2019-08-19T13:10:07.000Z</time>
      </trkpt>
      <trkpt lat="45.13339" lon="5.83792">
        <ele>573.19</ele>
        <time>2019-08-19T13:10:12.000Z</time>
      </trkpt>
      <trkpt lat="45.1332" lon="5.83779">
        <ele>571.25</ele>
        <time>2019-08-19T13:10:17.000Z</time>
      </trkpt>
      <trkpt lat="45.13296" lon="5.83772">
        <ele>572.2</ele>
        <time>2019-08-19T13:10:22.000Z</time>
      </trkpt>
      <trkpt lat="45.13275" lon="5.83759">
        <ele>573.35</ele>
        <time>2019-08-19T13:10:27.000Z</time>
      </trkpt>
      <trkpt lat="45.13251" lon="5.8375">
        <ele>572.51</ele>
        <time>2019-08-19T13:10:32.000Z</time>
      </trkpt>
      <trkpt lat="45.13227" lon="5.8374">
        <ele>573.38</ele>
        <time>2019-08-19T13:10:37.000Z</time>
      </trkpt>
      <trkpt lat="45.13203" lon="5.8374">
        <ele>575.56</ele>
        <time>2019-08-19T13:10:42.000Z</time>
      </trkpt>
      <trkpt lat="45.1318" lon="5.83752">
        <ele>575.2</ele>
        <time>2019-08-19T13:10:47.000Z</time>
      </trkpt>
      <trkpt lat="45.13163" lon="5.83762">
        <ele>574.32</ele>
        <time>2019-08-19T13:10:52.000Z</time>
      </trkpt>
      <trkpt lat="45.13146" lon="5.83774">
        <ele>575.06</ele>
        <time>2019-08-19T13:10:57.000Z</time>
      </trkpt>
      <trkpt lat="45.13126" lon="5.83786">
        <ele>575.18</ele>
        <time>2019-08-19T13:11:02.000Z</time>
      </trkpt>
      <trkpt lat="45.13106" lon="5.83785">
        <ele>579.1</ele>
        <time>2019-08-19T13:11:07.000Z</time>
      </trkpt>
      <trkpt lat="45.13089" lon="5.83774">
        <ele>580.4</ele>
        <time>2019-08-19T13:11:12.000Z</time>
      </trkpt>
      <trkpt lat="45.13071" lon="5.83751">
        <ele>579.72</ele>
        <time>2019-08-19T13:11:17.000Z</time>
      </trkpt>
      <trkpt lat="45.13065" lon="5.83721">
        <ele>578.98</ele>
        <time>2019-08-19T13:11:22.000Z</time>
      </trkpt>
      <trkpt lat="45.1305" lon="5.83694">
        <ele>576.23</ele>
        <time>2019-08-19T13:11:27.000Z</time>
      </trkpt>
      <trkpt lat="45.13036" lon="5.83665">
        <ele>571.6</ele>
        <time>2019-08-19T13:11:32.000Z</time>
      </trkpt>
      <trkpt lat="45.13019" lon="5.8363">
        <ele>569.07</ele>
        <time>2019-08-19T13:11:37.000Z</time>
      </trkpt>
      <trkpt lat="45.12997" lon="5.83593">
        <ele>568.18</ele>
        <time>2019-08-19T13:11:42.000Z</time>
      </trkpt>
      <trkpt lat="45.12962" lon="5.836">
        <ele>565.92</ele>
        <time>2019-08-19T13:11:47.000Z</time>
      </trkpt>
      <trkpt lat="45.12933" lon="5.83583">
        <ele>563.31</ele>
        <time>2019-08-19T13:11:52.000Z</time>
      </trkpt>
      <trkpt lat="45.12908" lon="5.83551">
        <ele>561.56</ele>
        <time>2019-08-19T13:11:57.000Z</time>
      </trkpt>
      <trkpt lat="45.12876" lon="5.83525">
        <ele>561.11</ele>
        <time>2019-08-19T13:12:02.000Z</time>
      </trkpt>
      <trkpt lat="45.12842" lon="5.83519">
        <ele>559.43</ele>
        <time>2019-08-19T13:12:07.000Z</time>
      </trkpt>
      <trkpt lat="45.12813" lon="5.83508">
        <ele>559.41</ele>
        <time>2019-08-19T13:12:12.000Z</time>
      </trkpt>
      <trkpt lat="45.12807" lon="5.83497">
        <ele>557.62</ele>
        <time>2019-08-19T13:12:17.000Z</time>
      </trkpt>
      <trkpt lat="45.12816" lon="5.83494">
        <ele>555.23</ele>
        <time>2019-08-19T13:12:33.000Z</time>
      </trkpt>
      <trkpt lat="45.12834" lon="5.83487">
        <ele>553.47</ele>
        <time>2019-08-19T13:12:38.000Z</time>
      </trkpt>
      <trkpt lat="45.12857" lon="5.83478">
        <ele>549.63</ele>
        <time>2019-08-19T13:12:43.000Z</time>
      </trkpt>
      <trkpt lat="45.12879" lon="5.8347">
        <ele>546.21</ele>
        <time>2019-08-19T13:12:48.000Z</time>
      </trkpt>
      <trkpt lat="45.1291" lon="5.83465">
        <ele>544.6</ele>
        <time>2019-08-19T13:12:53.000Z</time>
      </trkpt>
      <trkpt lat="45.12942" lon="5.83458">
        <ele>541.09</ele>
        <time>2019-08-19T13:12:58.000Z</time>
      </trkpt>
      <trkpt lat="45.12967" lon="5.8345">
        <ele>539.79</ele>
        <time>2019-08-19T13:13:03.000Z</time>
      </trkpt>
      <trkpt lat="45.12993" lon="5.83433">
        <ele>534.24</ele>
        <time>2019-08-19T13:13:08.000Z</time>
      </trkpt>
      <trkpt lat="45.13017" lon="5.83413">
        <ele>531.74</ele>
        <time>2019-08-19T13:13:13.000Z</time>
      </trkpt>
      <trkpt lat="45.13045" lon="5.83389">
        <ele>525.23</ele>
        <time>2019-08-19T13:13:18.000Z</time>
      </trkpt>
      <trkpt lat="45.13068" lon="5.83366">
        <ele>523.15</ele>
        <time>2019-08-19T13:13:23.000Z</time>
      </trkpt>
      <trkpt lat="45.13093" lon="5.83342">
        <ele>522.41</ele>
        <time>2019-08-19T13:13:28.000Z</time>
      </trkpt>
      <trkpt lat="45.13116" lon="5.83306">
        <ele>520.9</ele>
        <time>2019-08-19T13:13:33.000Z</time>
      </trkpt>
      <trkpt lat="45.13147" lon="5.83278">
        <ele>518.64</ele>
        <time>2019-08-19T13:13:38.000Z</time>
      </trkpt>
      <trkpt lat="45.13178" lon="5.83266">
        <ele>513.08</ele>
        <time>2019-08-19T13:13:43.000Z</time>
      </trkpt>
      <trkpt lat="45.13159" lon="5.8322">
        <ele>514.39</ele>
        <time>2019-08-19T13:13:48.000Z</time>
      </trkpt>
      <trkpt lat="45.13127" lon="5.83203">
        <ele>515.28</ele>
        <time>2019-08-19T13:13:53.000Z</time>
      </trkpt>
      <trkpt lat="45.1311" lon="5.8316">
        <ele>511.08</ele>
        <time>2019-08-19T13:13:58.000Z</time>
      </trkpt>
      <trkpt lat="45.13106" lon="5.83102">
        <ele>507.7</ele>
        <time>2019-08-19T13:14:03.000Z</time>
      </trkpt>
      <trkpt lat="45.131" lon="5.83047">
        <ele>503.02</ele>
        <time>2019-08-19T13:14:08.000Z</time>
      </trkpt>
      <trkpt lat="45.13092" lon="5.82997">
        <ele>493.72</ele>
        <time>2019-08-19T13:14:13.000Z</time>
      </trkpt>
      <trkpt lat="45.13076" lon="5.82956">
        <ele>491.83</ele>
        <time>2019-08-19T13:14:18.000Z</time>
      </trkpt>
      <trkpt lat="45.13048" lon="5.82945">
        <ele>488.28</ele>
        <time>2019-08-19T13:14:23.000Z</time>
      </trkpt>
      <trkpt lat="45.13022" lon="5.82925">
        <ele>487.16</ele>
        <time>2019-08-19T13:14:28.000Z</time>
      </trkpt>
      <trkpt lat="45.12991" lon="5.82899">
        <ele>485.79</ele>
        <time>2019-08-19T13:14:33.000Z</time>
      </trkpt>
      <trkpt lat="45.12967" lon="5.82869">
        <ele>481.54</ele>
        <time>2019-08-19T13:14:38.000Z</time>
      </trkpt>
      <trkpt lat="45.12954" lon="5.82845">
        <ele>480.35</ele>
        <time>2019-08-19T13:14:43.000Z</time>
      </trkpt>
      <trkpt lat="45.12956" lon="5.82831">
        <ele>475.33</ele>
        <time>2019-08-19T13:14:48.000Z</time>
      </trkpt>
      <trkpt lat="45.12973" lon="5.82822">
        <ele>473.9</ele>
        <time>2019-08-19T13:14:53.000Z</time>
      </trkpt>
      <trkpt lat="45.12992" lon="5.82808">
        <ele>470.82</ele>
        <time>2019-08-19T13:14:58.000Z</time>
      </trkpt>
      <trkpt lat="45.13015" lon="5.82786">
        <ele>465.03</ele>
        <time>2019-08-19T13:15:03.000Z</time>
      </trkpt>
      <trkpt lat="45.13037" lon="5.82753">
        <ele>457.34</ele>
        <time>2019-08-19T13:15:08.000Z</time>
      </trkpt>
      <trkpt lat="45.13064" lon="5.82732">
        <ele>452.03</ele>
        <time>2019-08-19T13:15:13.000Z</time>
      </trkpt>
      <trkpt lat="45.13089" lon="5.82712">
        <ele>448.76</ele>
        <time>2019-08-19T13:15:18.000Z</time>
      </trkpt>
      <trkpt lat="45.13105" lon="5.8269">
        <ele>446.9</ele>
        <time>2019-08-19T13:15:23.000Z</time>
      </trkpt>
      <trkpt lat="45.13122" lon="5.82663">
        <ele>446.5</ele>
        <time>2019-08-19T13:15:28.000Z</time>
      </trkpt>
      <trkpt lat="45.1314" lon="5.82634">
        <ele>445.33</ele>
        <time>2019-08-19T13:15:33.000Z</time>
      </trkpt>
      <trkpt lat="45.13157" lon="5.8261">
        <ele>441.79</ele>
        <time>2019-08-19T13:15:38.000Z</time>
      </trkpt>
      <trkpt lat="45.1315" lon="5.82583">
        <ele>440.9</ele>
        <time>2019-08-19T13:15:43.000Z</time>
      </trkpt>
      <trkpt lat="45.13138" lon="5.82557">
        <ele>442.02</ele>
        <time>2019-08-19T13:15:48.000Z</time>
      </trkpt>
      <trkpt lat="45.13131" lon="5.82531">
        <ele>440.42</ele>
        <time>2019-08-19T13:15:53.000Z</time>
      </trkpt>
      <trkpt lat="45.13142" lon="5.82526">
        <ele>437.19</ele>
        <time>2019-08-19T13:15:58.000Z</time>
      </trkpt>
      <trkpt lat="45.13164" lon="5.82531">
        <ele>438.25</ele>
        <time>2019-08-19T13:16:03.000Z</time>
      </trkpt>
      <trkpt lat="45.13198" lon="5.82527">
        <ele>433.9</ele>
        <time>2019-08-19T13:16:08.000Z</time>
      </trkpt>
      <trkpt lat="45.13238" lon="5.82517">
        <ele>430.15</ele>
        <time>2019-08-19T13:16:13.000Z</time>
      </trkpt>
      <trkpt lat="45.1327" lon="5.82506">
        <ele>426.97</ele>
        <time>2019-08-19T13:16:18.000Z</time>
      </trkpt>
      <trkpt lat="45.13294" lon="5.82501">
        <ele>422.3</ele>
        <time>2019-08-19T13:16:23.000Z</time>
      </trkpt>
      <trkpt lat="45.13317" lon="5.82496">
        <ele>422.75</ele>
        <time>2019-08-19T13:16:28.000Z</time>
      </trkpt>
      <trkpt lat="45.13337" lon="5.82501">
        <ele>423.33</ele>
        <time>2019-08-19T13:16:33.000Z</time>
      </trkpt>
      <trkpt lat="45.13355" lon="5.82515">
        <ele>418.8</ele>
        <time>2019-08-19T13:16:38.000Z</time>
      </trkpt>
      <trkpt lat="45.13372" lon="5.82531">
        <ele>421.64</ele>
        <time>2019-08-19T13:16:43.000Z</time>
      </trkpt>
      <trkpt lat="45.13389" lon="5.82542">
        <ele>423.18</ele>
        <time>2019-08-19T13:16:48.000Z</time>
      </trkpt>
      <trkpt lat="45.13407" lon="5.8255">
        <ele>425.23</ele>
        <time>2019-08-19T13:16:53.000Z</time>
      </trkpt>
      <trkpt lat="45.13426" lon="5.82558">
        <ele>423.3</ele>
        <time>2019-08-19T13:16:58.000Z</time>
      </trkpt>
      <trkpt lat="45.13447" lon="5.82563">
        <ele>418.69</ele>
        <time>2019-08-19T13:17:03.000Z</time>
      </trkpt>
      <trkpt lat="45.13465" lon="5.82564">
        <ele>416.68</ele>
        <time>2019-08-19T13:17:08.000Z</time>
      </trkpt>
      <trkpt lat="45.13478" lon="5.8256">
        <ele>416.44</ele>
        <time>2019-08-19T13:17:13.000Z</time>
      </trkpt>
      <trkpt lat="45.13494" lon="5.82558">
        <ele>417.54</ele>
        <time>2019-08-19T13:17:18.000Z</time>
      </trkpt>
      <trkpt lat="45.13517" lon="5.82549">
        <ele>417.58</ele>
        <time>2019-08-19T13:17:23.000Z</time>
      </trkpt>
      <trkpt lat="45.13543" lon="5.82533">
        <ele>417.12</ele>
        <time>2019-08-19T13:17:28.000Z</time>
      </trkpt>
      <trkpt lat="45.13564" lon="5.8251">
        <ele>417.53</ele>
        <time>2019-08-19T13:17:33.000Z</time>
      </trkpt>
      <trkpt lat="45.13579" lon="5.82496">
        <ele>418.33</ele>
        <time>2019-08-19T13:17:38.000Z</time>
      </trkpt>
      <trkpt lat="45.13591" lon="5.82494">
        <ele>418.98</ele>
        <time>2019-08-19T13:17:43.000Z</time>
      </trkpt>
      <trkpt lat="45.13602" lon="5.82495">
        <ele>415.66</ele>
        <time>2019-08-19T13:18:06.000Z</time>
      </trkpt>
      <trkpt lat="45.13611" lon="5.82481">
        <ele>414.98</ele>
        <time>2019-08-19T13:18:11.000Z</time>
      </trkpt>
      <trkpt lat="45.13625" lon="5.82477">
        <ele>413.32</ele>
        <time>2019-08-19T13:18:16.000Z</time>
      </trkpt>
      <trkpt lat="45.13641" lon="5.82482">
        <ele>412.35</ele>
        <time>2019-08-19T13:18:21.000Z</time>
      </trkpt>
      <trkpt lat="45.13652" lon="5.82474">
        <ele>413.71</ele>
        <time>2019-08-19T13:18:26.000Z</time>
      </trkpt>
      <trkpt lat="45.13661" lon="5.82484">
        <ele>413.3</ele>
        <time>2019-08-19T13:18:32.000Z</time>
      </trkpt>
      <trkpt lat="45.13672" lon="5.82494">
        <ele>417.37</ele>
        <time>2019-08-19T13:18:37.000Z</time>
      </trkpt>
      <trkpt lat="45.13683" lon="5.82506">
        <ele>417.94</ele>
        <time>2019-08-19T13:18:42.000Z</time>
      </trkpt>
      <trkpt lat="45.13697" lon="5.8252">
        <ele>415.28</ele>
        <time>2019-08-19T13:18:47.000Z</time>
      </trkpt>
      <trkpt lat="45.13714" lon="5.82533">
        <ele>411.2</ele>
        <time>2019-08-19T13:18:52.000Z</time>
      </trkpt>
      <trkpt lat="45.13731" lon="5.82548">
        <ele>409.64</ele>
        <time>2019-08-19T13:18:57.000Z</time>
      </trkpt>
      <trkpt lat="45.13746" lon="5.82563">
        <ele>410.27</ele>
        <time>2019-08-19T13:19:02.000Z</time>
      </trkpt>
      <trkpt lat="45.13763" lon="5.82578">
        <ele>409.25</ele>
        <time>2019-08-19T13:19:07.000Z</time>
      </trkpt>
      <trkpt lat="45.13778" lon="5.82592">
        <ele>408.58</ele>
        <time>2019-08-19T13:19:12.000Z</time>
      </trkpt>
      <trkpt lat="45.13792" lon="5.82607">
        <ele>409.4</ele>
        <time>2019-08-19T13:19:17.000Z</time>
      </trkpt>
      <trkpt lat="45.13807" lon="5.8262">
        <ele>409</ele>
        <time>2019-08-19T13:19:22.000Z</time>
      </trkpt>
      <trkpt lat="45.13823" lon="5.82633">
        <ele>406.35</ele>
        <time>2019-08-19T13:19:27.000Z</time>
      </trkpt>
      <trkpt lat="45.13839" lon="5.82648">
        <ele>408.36</ele>
        <time>2019-08-19T13:19:32.000Z</time>
      </trkpt>
      <trkpt lat="45.13852" lon="5.82662">
        <ele>408.48</ele>
        <time>2019-08-19T13:19:37.000Z</time>
      </trkpt>
      <trkpt lat="45.13866" lon="5.82677">
        <ele>410.04</ele>
        <time>2019-08-19T13:19:42.000Z</time>
      </trkpt>
      <trkpt lat="45.1388" lon="5.8269">
        <ele>409.9</ele>
        <time>2019-08-19T13:19:47.000Z</time>
      </trkpt>
      <trkpt lat="45.13895" lon="5.82702">
        <ele>408.17</ele>
        <time>2019-08-19T13:19:52.000Z</time>
      </trkpt>
      <trkpt lat="45.13909" lon="5.82717">
        <ele>408.66</ele>
        <time>2019-08-19T13:19:57.000Z</time>
      </trkpt>
      <trkpt lat="45.13923" lon="5.82728">
        <ele>407.5</ele>
        <time>2019-08-19T13:20:02.000Z</time>
      </trkpt>
      <trkpt lat="45.13935" lon="5.82741">
        <ele>406.17</ele>
        <time>2019-08-19T13:20:07.000Z</time>
      </trkpt>
      <trkpt lat="45.13945" lon="5.82762">
        <ele>404.89</ele>
        <time>2019-08-19T13:20:12.000Z</time>
      </trkpt>
      <trkpt lat="45.13952" lon="5.82783">
        <ele>402.73</ele>
        <time>2019-08-19T13:20:17.000Z</time>
      </trkpt>
      <trkpt lat="45.13962" lon="5.82792">
        <ele>404.05</ele>
        <time>2019-08-19T13:20:22.000Z</time>
      </trkpt>
      <trkpt lat="45.13976" lon="5.82779">
        <ele>405.62</ele>
        <time>2019-08-19T13:20:27.000Z</time>
      </trkpt>
      <trkpt lat="45.13977" lon="5.82748">
        <ele>402.28</ele>
        <time>2019-08-19T13:20:32.000Z</time>
      </trkpt>
      <trkpt lat="45.13982" lon="5.82724">
        <ele>403.23</ele>
        <time>2019-08-19T13:20:37.000Z</time>
      </trkpt>
      <trkpt lat="45.13991" lon="5.82705">
        <ele>405.81</ele>
        <time>2019-08-19T13:20:42.000Z</time>
      </trkpt>
      <trkpt lat="45.14" lon="5.82686">
        <ele>408.5</ele>
        <time>2019-08-19T13:20:47.000Z</time>
      </trkpt>
      <trkpt lat="45.1401" lon="5.82668">
        <ele>411.21</ele>
        <time>2019-08-19T13:20:52.000Z</time>
      </trkpt>
      <trkpt lat="45.14024" lon="5.82656">
        <ele>412.99</ele>
        <time>2019-08-19T13:20:57.000Z</time>
      </trkpt>
      <trkpt lat="45.14039" lon="5.82657">
        <ele>416.59</ele>
        <time>2019-08-19T13:21:02.000Z</time>
      </trkpt>
      <trkpt lat="45.14052" lon="5.82663">
        <ele>418.43</ele>
        <time>2019-08-19T13:21:07.000Z</time>
      </trkpt>
      <trkpt lat="45.14065" lon="5.82675">
        <ele>415.02</ele>
        <time>2019-08-19T13:21:12.000Z</time>
      </trkpt>
      <trkpt lat="45.1408" lon="5.82692">
        <ele>416.21</ele>
        <time>2019-08-19T13:21:17.000Z</time>
      </trkpt>
      <trkpt lat="45.14091" lon="5.82708">
        <ele>417.97</ele>
        <time>2019-08-19T13:21:22.000Z</time>
      </trkpt>
      <trkpt lat="45.14095" lon="5.82728">
        <ele>419.7</ele>
        <time>2019-08-19T13:21:27.000Z</time>
      </trkpt>
      <trkpt lat="45.141" lon="5.8275">
        <ele>420.13</ele>
        <time>2019-08-19T13:21:32.000Z</time>
      </trkpt>
      <trkpt lat="45.14105" lon="5.82771">
        <ele>420.13</ele>
        <time>2019-08-19T13:21:37.000Z</time>
      </trkpt>
      <trkpt lat="45.14114" lon="5.82787">
        <ele>424.05</ele>
        <time>2019-08-19T13:21:42.000Z</time>
      </trkpt>
      <trkpt lat="45.14127" lon="5.82795">
        <ele>429.33</ele>
        <time>2019-08-19T13:21:47.000Z</time>
      </trkpt>
      <trkpt lat="45.14136" lon="5.8278">
        <ele>436.12</ele>
        <time>2019-08-19T13:21:52.000Z</time>
      </trkpt>
      <trkpt lat="45.14126" lon="5.82758">
        <ele>439.83</ele>
        <time>2019-08-19T13:21:57.000Z</time>
      </trkpt>
      <trkpt lat="45.14112" lon="5.82744">
        <ele>443.72</ele>
        <time>2019-08-19T13:22:02.000Z</time>
      </trkpt>
      <trkpt lat="45.14108" lon="5.82727">
        <ele>442.07</ele>
        <time>2019-08-19T13:22:07.000Z</time>
      </trkpt>
      <trkpt lat="45.14122" lon="5.82723">
        <ele>443.74</ele>
        <time>2019-08-19T13:22:12.000Z</time>
      </trkpt>
      <trkpt lat="45.14136" lon="5.82735">
        <ele>446.75</ele>
        <time>2019-08-19T13:22:17.000Z</time>
      </trkpt>
      <trkpt lat="45.14149" lon="5.82745">
        <ele>448.44</ele>
        <time>2019-08-19T13:22:22.000Z</time>
      </trkpt>
      <trkpt lat="45.14162" lon="5.82754">
        <ele>450.84</ele>
        <time>2019-08-19T13:22:27.000Z</time>
      </trkpt>
      <trkpt lat="45.14175" lon="5.82763">
        <ele>452.78</ele>
        <time>2019-08-19T13:22:32.000Z</time>
      </trkpt>
      <trkpt lat="45.14189" lon="5.82771">
        <ele>449.44</ele>
        <time>2019-08-19T13:22:37.000Z</time>
      </trkpt>
      <trkpt lat="45.14202" lon="5.82779">
        <ele>453.19</ele>
        <time>2019-08-19T13:22:42.000Z</time>
      </trkpt>
      <trkpt lat="45.14214" lon="5.82786">
        <ele>455.78</ele>
        <time>2019-08-19T13:22:47.000Z</time>
      </trkpt>
      <trkpt lat="45.14227" lon="5.82793">
        <ele>462.62</ele>
        <time>2019-08-19T13:22:52.000Z</time>
      </trkpt>
      <trkpt lat="45.14241" lon="5.82803">
        <ele>465.92</ele>
        <time>2019-08-19T13:22:57.000Z</time>
      </trkpt>
      <trkpt lat="45.14254" lon="5.82809">
        <ele>469.61</ele>
        <time>2019-08-19T13:23:02.000Z</time>
      </trkpt>
      <trkpt lat="45.14268" lon="5.82813">
        <ele>472.42</ele>
        <time>2019-08-19T13:23:07.000Z</time>
      </trkpt>
      <trkpt lat="45.14282" lon="5.82814">
        <ele>477.55</ele>
        <time>2019-08-19T13:23:12.000Z</time>
      </trkpt>
      <trkpt lat="45.14297" lon="5.82813">
        <ele>476.17</ele>
        <time>2019-08-19T13:23:17.000Z</time>
      </trkpt>
      <trkpt lat="45.14311" lon="5.8281">
        <ele>476.96</ele>
        <time>2019-08-19T13:23:22.000Z</time>
      </trkpt>
      <trkpt lat="45.14325" lon="5.82804">
        <ele>478.91</ele>
        <time>2019-08-19T13:23:27.000Z</time>
      </trkpt>
      <trkpt lat="45.14338" lon="5.82795">
        <ele>481.33</ele>
        <time>2019-08-19T13:23:32.000Z</time>
      </trkpt>
      <trkpt lat="45.14352" lon="5.82786">
        <ele>484.92</ele>
        <time>2019-08-19T13:23:37.000Z</time>
      </trkpt>
      <trkpt lat="45.14366" lon="5.82778">
        <ele>486.64</ele>
        <time>2019-08-19T13:23:42.000Z</time>
      </trkpt>
      <trkpt lat="45.14379" lon="5.82769">
        <ele>490.54</ele>
        <time>2019-08-19T13:23:47.000Z</time>
      </trkpt>
      <trkpt lat="45.14393" lon="5.82762">
        <ele>493.22</ele>
        <time>2019-08-19T13:23:52.000Z</time>
      </trkpt>
      <trkpt lat="45.14407" lon="5.82759">
        <ele>494.49</ele>
        <time>2019-08-19T13:23:57.000Z</time>
      </trkpt>
      <trkpt lat="45.14423" lon="5.82754">
        <ele>491.02</ele>
        <time>2019-08-19T13:24:02.000Z</time>
      </trkpt>
      <trkpt lat="45.14438" lon="5.82743">
        <ele>488.73</ele>
        <time>2019-08-19T13:24:07.000Z</time>
      </trkpt>
      <trkpt lat="45.14451" lon="5.82732">
        <ele>487.54</ele>
        <time>2019-08-19T13:24:12.000Z</time>
      </trkpt>
      <trkpt lat="45.14465" lon="5.82718">
        <ele>488.72</ele>
        <time>2019-08-19T13:24:17.000Z</time>
      </trkpt>
      <trkpt lat="45.14478" lon="5.82704">
        <ele>490.03</ele>
        <time>2019-08-19T13:24:22.000Z</time>
      </trkpt>
      <trkpt lat="45.14488" lon="5.82686">
        <ele>494.27</ele>
        <time>2019-08-19T13:24:27.000Z</time>
      </trkpt>
      <trkpt lat="45.14498" lon="5.82665">
        <ele>493.31</ele>
        <time>2019-08-19T13:24:32.000Z</time>
      </trkpt>
      <trkpt lat="45.14512" lon="5.82651">
        <ele>497.79</ele>
        <time>2019-08-19T13:24:37.000Z</time>
      </trkpt>
      <trkpt lat="45.14524" lon="5.82641">
        <ele>503.39</ele>
        <time>2019-08-19T13:24:42.000Z</time>
      </trkpt>
      <trkpt lat="45.14537" lon="5.8263">
        <ele>506.45</ele>
        <time>2019-08-19T13:24:47.000Z</time>
      </trkpt>
      <trkpt lat="45.14549" lon="5.82618">
        <ele>506.86</ele>
        <time>2019-08-19T13:24:52.000Z</time>
      </trkpt>
      <trkpt lat="45.14561" lon="5.82603">
        <ele>508.15</ele>
        <time>2019-08-19T13:24:57.000Z</time>
      </trkpt>
      <trkpt lat="45.1457" lon="5.82587">
        <ele>510.69</ele>
        <time>2019-08-19T13:25:02.000Z</time>
      </trkpt>
      <trkpt lat="45.14579" lon="5.82569">
        <ele>513.93</ele>
        <time>2019-08-19T13:25:07.000Z</time>
      </trkpt>
      <trkpt lat="45.14587" lon="5.82551">
        <ele>516.22</ele>
        <time>2019-08-19T13:25:12.000Z</time>
      </trkpt>
      <trkpt lat="45.14595" lon="5.82532">
        <ele>514.58</ele>
        <time>2019-08-19T13:25:17.000Z</time>
      </trkpt>
      <trkpt lat="45.14602" lon="5.8251">
        <ele>517.43</ele>
        <time>2019-08-19T13:25:22.000Z</time>
      </trkpt>
      <trkpt lat="45.14608" lon="5.8249">
        <ele>519.54</ele>
        <time>2019-08-19T13:25:27.000Z</time>
      </trkpt>
      <trkpt lat="45.14615" lon="5.8247">
        <ele>522.63</ele>
        <time>2019-08-19T13:25:32.000Z</time>
      </trkpt>
      <trkpt lat="45.14614" lon="5.82446">
        <ele>520.53</ele>
        <time>2019-08-19T13:25:37.000Z</time>
      </trkpt>
      <trkpt lat="45.14609" lon="5.82425">
        <ele>521.98</ele>
        <time>2019-08-19T13:25:42.000Z</time>
      </trkpt>
      <trkpt lat="45.14604" lon="5.82408">
        <ele>524.24</ele>
        <time>2019-08-19T13:25:47.000Z</time>
      </trkpt>
      <trkpt lat="45.14594" lon="5.8239">
        <ele>524.15</ele>
        <time>2019-08-19T13:25:52.000Z</time>
      </trkpt>
      <trkpt lat="45.14583" lon="5.82377">
        <ele>525.59</ele>
        <time>2019-08-19T13:25:57.000Z</time>
      </trkpt>
      <trkpt lat="45.1458" lon="5.82358">
        <ele>521.54</ele>
        <time>2019-08-19T13:26:02.000Z</time>
      </trkpt>
      <trkpt lat="45.14589" lon="5.82339">
        <ele>524.23</ele>
        <time>2019-08-19T13:26:07.000Z</time>
      </trkpt>
      <trkpt lat="45.14603" lon="5.82331">
        <ele>525.75</ele>
        <time>2019-08-19T13:26:12.000Z</time>
      </trkpt>
      <trkpt lat="45.14615" lon="5.82323">
        <ele>527.82</ele>
        <time>2019-08-19T13:26:17.000Z</time>
      </trkpt>
      <trkpt lat="45.14626" lon="5.82311">
        <ele>526.05</ele>
        <time>2019-08-19T13:26:22.000Z</time>
      </trkpt>
      <trkpt lat="45.1463" lon="5.82294">
        <ele>525.58</ele>
        <time>2019-08-19T13:26:27.000Z</time>
      </trkpt>
      <trkpt lat="45.14635" lon="5.82275">
        <ele>527.96</ele>
        <time>2019-08-19T13:26:32.000Z</time>
      </trkpt>
      <trkpt lat="45.14638" lon="5.82254">
        <ele>525.65</ele>
        <time>2019-08-19T13:26:37.000Z</time>
      </trkpt>
      <trkpt lat="45.14641" lon="5.82234">
        <ele>528.6</ele>
        <time>2019-08-19T13:26:42.000Z</time>
      </trkpt>
      <trkpt lat="45.14645" lon="5.82216">
        <ele>528.11</ele>
        <time>2019-08-19T13:26:47.000Z</time>
      </trkpt>
      <trkpt lat="45.14646" lon="5.82202">
        <ele>530.85</ele>
        <time>2019-08-19T13:26:52.000Z</time>
      </trkpt>
      <trkpt lat="45.1465" lon="5.82191">
        <ele>527.17</ele>
        <time>2019-08-19T13:29:27.000Z</time>
      </trkpt>
      <trkpt lat="45.14657" lon="5.8217">
        <ele>528.93</ele>
        <time>2019-08-19T13:29:32.000Z</time>
      </trkpt>
      <trkpt lat="45.14661" lon="5.82153">
        <ele>530.63</ele>
        <time>2019-08-19T13:29:37.000Z</time>
      </trkpt>
      <trkpt lat="45.14666" lon="5.82132">
        <ele>528.77</ele>
        <time>2019-08-19T13:29:42.000Z</time>
      </trkpt>
      <trkpt lat="45.14671" lon="5.82115">
        <ele>528.32</ele>
        <time>2019-08-19T13:29:47.000Z</time>
      </trkpt>
      <trkpt lat="45.14676" lon="5.82099">
        <ele>532.35</ele>
        <time>2019-08-19T13:29:52.000Z</time>
      </trkpt>
      <trkpt lat="45.1468" lon="5.82079">
        <ele>532.9</ele>
        <time>2019-08-19T13:29:57.000Z</time>
      </trkpt>
      <trkpt lat="45.14687" lon="5.82058">
        <ele>532.36</ele>
        <time>2019-08-19T13:30:02.000Z</time>
      </trkpt>
      <trkpt lat="45.14693" lon="5.82041">
        <ele>533.69</ele>
        <time>2019-08-19T13:30:07.000Z</time>
      </trkpt>
      <trkpt lat="45.147" lon="5.82022">
        <ele>534.16</ele>
        <time>2019-08-19T13:30:12.000Z</time>
      </trkpt>
      <trkpt lat="45.14709" lon="5.82004">
        <ele>538.76</ele>
        <time>2019-08-19T13:30:17.000Z</time>
      </trkpt>
      <trkpt lat="45.14718" lon="5.81991">
        <ele>542.01</ele>
        <time>2019-08-19T13:30:22.000Z</time>
      </trkpt>
      <trkpt lat="45.14729" lon="5.8198">
        <ele>544.52</ele>
        <time>2019-08-19T13:30:27.000Z</time>
      </trkpt>
      <trkpt lat="45.14742" lon="5.8197">
        <ele>546.41</ele>
        <time>2019-08-19T13:30:32.000Z</time>
      </trkpt>
      <trkpt lat="45.14756" lon="5.81964">
        <ele>546.6</ele>
        <time>2019-08-19T13:30:37.000Z</time>
      </trkpt>
      <trkpt lat="45.1477" lon="5.81958">
        <ele>548.03</ele>
        <time>2019-08-19T13:30:42.000Z</time>
      </trkpt>
      <trkpt lat="45.14784" lon="5.81954">
        <ele>549.49</ele>
        <time>2019-08-19T13:30:47.000Z</time>
      </trkpt>
      <trkpt lat="45.14784" lon="5.81936">
        <ele>551.75</ele>
        <time>2019-08-19T13:30:52.000Z</time>
      </trkpt>
      <trkpt lat="45.14766" lon="5.81928">
        <ele>556.23</ele>
        <time>2019-08-19T13:30:57.000Z</time>
      </trkpt>
      <trkpt lat="45.14749" lon="5.81926">
        <ele>559</ele>
        <time>2019-08-19T13:31:02.000Z</time>
      </trkpt>
      <trkpt lat="45.14734" lon="5.81917">
        <ele>558.81</ele>
        <time>2019-08-19T13:31:07.000Z</time>
      </trkpt>
      <trkpt lat="45.14723" lon="5.81901">
        <ele>559.29</ele>
        <time>2019-08-19T13:31:12.000Z</time>
      </trkpt>
      <trkpt lat="45.14719" lon="5.81877">
        <ele>559.6</ele>
        <time>2019-08-19T13:31:17.000Z</time>
      </trkpt>
      <trkpt lat="45.14728" lon="5.81858">
        <ele>561.66</ele>
        <time>2019-08-19T13:31:22.000Z</time>
      </trkpt>
      <trkpt lat="45.14738" lon="5.8184">
        <ele>559.88</ele>
        <time>2019-08-19T13:31:27.000Z</time>
      </trkpt>
      <trkpt lat="45.14748" lon="5.81819">
        <ele>560.46</ele>
        <time>2019-08-19T13:31:32.000Z</time>
      </trkpt>
      <trkpt lat="45.1476" lon="5.81803">
        <ele>562.79</ele>
        <time>2019-08-19T13:31:37.000Z</time>
      </trkpt>
      <trkpt lat="45.14774" lon="5.81787">
        <ele>564.73</ele>
        <time>2019-08-19T13:31:42.000Z</time>
      </trkpt>
      <trkpt lat="45.14787" lon="5.81769">
        <ele>563.37</ele>
        <time>2019-08-19T13:31:47.000Z</time>
      </trkpt>
      <trkpt lat="45.14803" lon="5.81761">
        <ele>562.58</ele>
        <time>2019-08-19T13:31:52.000Z</time>
      </trkpt>
      <trkpt lat="45.14821" lon="5.81758">
        <ele>561.58</ele>
        <time>2019-08-19T13:31:57.000Z</time>
      </trkpt>
      <trkpt lat="45.14839" lon="5.8176">
        <ele>564</ele>
        <time>2019-08-19T13:32:02.000Z</time>
      </trkpt>
      <trkpt lat="45.14856" lon="5.81766">
        <ele>563.93</ele>
        <time>2019-08-19T13:32:07.000Z</time>
      </trkpt>
      <trkpt lat="45.14875" lon="5.81774">
        <ele>560.98</ele>
        <time>2019-08-19T13:32:12.000Z</time>
      </trkpt>
      <trkpt lat="45.14893" lon="5.81785">
        <ele>560.84</ele>
        <time>2019-08-19T13:32:17.000Z</time>
      </trkpt>
      <trkpt lat="45.14909" lon="5.81789">
        <ele>562.86</ele>
        <time>2019-08-19T13:32:22.000Z</time>
      </trkpt>
      <trkpt lat="45.14926" lon="5.81786">
        <ele>567.44</ele>
        <time>2019-08-19T13:32:27.000Z</time>
      </trkpt>
      <trkpt lat="45.14942" lon="5.81781">
        <ele>567.28</ele>
        <time>2019-08-19T13:32:32.000Z</time>
      </trkpt>
      <trkpt lat="45.14958" lon="5.81773">
        <ele>566.08</ele>
        <time>2019-08-19T13:32:37.000Z</time>
      </trkpt>
      <trkpt lat="45.14973" lon="5.81766">
        <ele>568.59</ele>
        <time>2019-08-19T13:32:42.000Z</time>
      </trkpt>
      <trkpt lat="45.14989" lon="5.8176">
        <ele>569.24</ele>
        <time>2019-08-19T13:32:47.000Z</time>
      </trkpt>
      <trkpt lat="45.15002" lon="5.8175">
        <ele>568.79</ele>
        <time>2019-08-19T13:32:52.000Z</time>
      </trkpt>
      <trkpt lat="45.15008" lon="5.81728">
        <ele>570.33</ele>
        <time>2019-08-19T13:32:57.000Z</time>
      </trkpt>
      <trkpt lat="45.15011" lon="5.81705">
        <ele>571.07</ele>
        <time>2019-08-19T13:33:02.000Z</time>
      </trkpt>
      <trkpt lat="45.15015" lon="5.81689">
        <ele>572.55</ele>
        <time>2019-08-19T13:33:07.000Z</time>
      </trkpt>
      <trkpt lat="45.15006" lon="5.81681">
        <ele>573.99</ele>
        <time>2019-08-19T13:33:51.000Z</time>
      </trkpt>
      <trkpt lat="45.14989" lon="5.81675">
        <ele>572.64</ele>
        <time>2019-08-19T13:33:56.000Z</time>
      </trkpt>
      <trkpt lat="45.14976" lon="5.81677">
        <ele>573.53</ele>
        <time>2019-08-19T13:34:01.000Z</time>
      </trkpt>
      <trkpt lat="45.14962" lon="5.81683">
        <ele>574.06</ele>
        <time>2019-08-19T13:34:06.000Z</time>
      </trkpt>
      <trkpt lat="45.14952" lon="5.81677">
        <ele>573.43</ele>
        <time>2019-08-19T13:34:11.000Z</time>
      </trkpt>
      <trkpt lat="45.14949" lon="5.81656">
        <ele>572.84</ele>
        <time>2019-08-19T13:34:16.000Z</time>
      </trkpt>
      <trkpt lat="45.14944" lon="5.81643">
        <ele>578.08</ele>
        <time>2019-08-19T13:34:21.000Z</time>
      </trkpt>
      <trkpt lat="45.14945" lon="5.81662">
        <ele>577.41</ele>
        <time>2019-08-19T13:34:26.000Z</time>
      </trkpt>
      <trkpt lat="45.14946" lon="5.81685">
        <ele>576.21</ele>
        <time>2019-08-19T13:34:31.000Z</time>
      </trkpt>
      <trkpt lat="45.14943" lon="5.81708">
        <ele>579.23</ele>
        <time>2019-08-19T13:34:36.000Z</time>
      </trkpt>
      <trkpt lat="45.14951" lon="5.81695">
        <ele>587.76</ele>
        <time>2019-08-19T13:34:54.000Z</time>
      </trkpt>
      <trkpt lat="45.14948" lon="5.81669">
        <ele>588.29</ele>
        <time>2019-08-19T13:34:59.000Z</time>
      </trkpt>
      <trkpt lat="45.14944" lon="5.81645">
        <ele>587.63</ele>
        <time>2019-08-19T13:35:04.000Z</time>
      </trkpt>
      <trkpt lat="45.14941" lon="5.81623">
        <ele>586.15</ele>
        <time>2019-08-19T13:35:09.000Z</time>
      </trkpt>
      <trkpt lat="45.14941" lon="5.81598">
        <ele>582.73</ele>
        <time>2019-08-19T13:35:14.000Z</time>
      </trkpt>
      <trkpt lat="45.14941" lon="5.81571">
        <ele>580.48</ele>
        <time>2019-08-19T13:35:19.000Z</time>
      </trkpt>
      <trkpt lat="45.14938" lon="5.81546">
        <ele>578.88</ele>
        <time>2019-08-19T13:35:24.000Z</time>
      </trkpt>
      <trkpt lat="45.14931" lon="5.8152">
        <ele>575.12</ele>
        <time>2019-08-19T13:35:29.000Z</time>
      </trkpt>
      <trkpt lat="45.14923" lon="5.81495">
        <ele>571.08</ele>
        <time>2019-08-19T13:35:34.000Z</time>
      </trkpt>
      <trkpt lat="45.14911" lon="5.81475">
        <ele>572.08</ele>
        <time>2019-08-19T13:35:39.000Z</time>
      </trkpt>
      <trkpt lat="45.14898" lon="5.81454">
        <ele>571.7</ele>
        <time>2019-08-19T13:35:44.000Z</time>
      </trkpt>
      <trkpt lat="45.14891" lon="5.81431">
        <ele>573.11</ele>
        <time>2019-08-19T13:35:49.000Z</time>
      </trkpt>
      <trkpt lat="45.14887" lon="5.81406">
        <ele>578.07</ele>
        <time>2019-08-19T13:35:54.000Z</time>
      </trkpt>
      <trkpt lat="45.14887" lon="5.81379">
        <ele>582.06</ele>
        <time>2019-08-19T13:35:59.000Z</time>
      </trkpt>
      <trkpt lat="45.14885" lon="5.81359">
        <ele>585.97</ele>
        <time>2019-08-19T13:36:04.000Z</time>
      </trkpt>
      <trkpt lat="45.1488" lon="5.81335">
        <ele>587.09</ele>
        <time>2019-08-19T13:36:09.000Z</time>
      </trkpt>
      <trkpt lat="45.14867" lon="5.81317">
        <ele>588.46</ele>
        <time>2019-08-19T13:36:14.000Z</time>
      </trkpt>
      <trkpt lat="45.14857" lon="5.81295">
        <ele>583.18</ele>
        <time>2019-08-19T13:36:19.000Z</time>
      </trkpt>
      <trkpt lat="45.14846" lon="5.81273">
        <ele>582.53</ele>
        <time>2019-08-19T13:36:24.000Z</time>
      </trkpt>
      <trkpt lat="45.14834" lon="5.81255">
        <ele>583.37</ele>
        <time>2019-08-19T13:36:29.000Z</time>
      </trkpt>
      <trkpt lat="45.14825" lon="5.81249">
        <ele>587.75</ele>
        <time>2019-08-19T13:36:34.000Z</time>
      </trkpt>
      <trkpt lat="45.14818" lon="5.81241">
        <ele>608.02</ele>
        <time>2019-08-19T13:49:15.000Z</time>
      </trkpt>
      <trkpt lat="45.14812" lon="5.81226">
        <ele>606.18</ele>
        <time>2019-08-19T13:49:20.000Z</time>
      </trkpt>
      <trkpt lat="45.14799" lon="5.81211">
        <ele>604.91</ele>
        <time>2019-08-19T13:49:25.000Z</time>
      </trkpt>
      <trkpt lat="45.14784" lon="5.81191">
        <ele>606.47</ele>
        <time>2019-08-19T13:49:30.000Z</time>
      </trkpt>
      <trkpt lat="45.1477" lon="5.81167">
        <ele>605.67</ele>
        <time>2019-08-19T13:49:35.000Z</time>
      </trkpt>
      <trkpt lat="45.14754" lon="5.81148">
        <ele>605.86</ele>
        <time>2019-08-19T13:49:40.000Z</time>
      </trkpt>
      <trkpt lat="45.14739" lon="5.81126">
        <ele>602.49</ele>
        <time>2019-08-19T13:49:45.000Z</time>
      </trkpt>
      <trkpt lat="45.14722" lon="5.81103">
        <ele>600.54</ele>
        <time>2019-08-19T13:49:50.000Z</time>
      </trkpt>
      <trkpt lat="45.14704" lon="5.81084">
        <ele>600.76</ele>
        <time>2019-08-19T13:49:55.000Z</time>
      </trkpt>
      <trkpt lat="45.14686" lon="5.81061">
        <ele>601.67</ele>
        <time>2019-08-19T13:50:00.000Z</time>
      </trkpt>
      <trkpt lat="45.14673" lon="5.81034">
        <ele>604.2</ele>
        <time>2019-08-19T13:50:05.000Z</time>
      </trkpt>
      <trkpt lat="45.14656" lon="5.81006">
        <ele>603.6</ele>
        <time>2019-08-19T13:50:10.000Z</time>
      </trkpt>
      <trkpt lat="45.14638" lon="5.80976">
        <ele>602.02</ele>
        <time>2019-08-19T13:50:15.000Z</time>
      </trkpt>
      <trkpt lat="45.14619" lon="5.80943">
        <ele>600.09</ele>
        <time>2019-08-19T13:50:20.000Z</time>
      </trkpt>
      <trkpt lat="45.14595" lon="5.8091">
        <ele>599.79</ele>
        <time>2019-08-19T13:50:25.000Z</time>
      </trkpt>
      <trkpt lat="45.14578" lon="5.80877">
        <ele>600.25</ele>
        <time>2019-08-19T13:50:30.000Z</time>
      </trkpt>
      <trkpt lat="45.14561" lon="5.80843">
        <ele>599.45</ele>
        <time>2019-08-19T13:50:35.000Z</time>
      </trkpt>
      <trkpt lat="45.14547" lon="5.80808">
        <ele>597.68</ele>
        <time>2019-08-19T13:50:40.000Z</time>
      </trkpt>
      <trkpt lat="45.14525" lon="5.80766">
        <ele>597.03</ele>
        <time>2019-08-19T13:50:45.000Z</time>
      </trkpt>
      <trkpt lat="45.14508" lon="5.80722">
        <ele>594.18</ele>
        <time>2019-08-19T13:50:50.000Z</time>
      </trkpt>
      <trkpt lat="45.14487" lon="5.80679">
        <ele>593.52</ele>
        <time>2019-08-19T13:50:55.000Z</time>
      </trkpt>
      <trkpt lat="45.14471" lon="5.8064">
        <ele>590.77</ele>
        <time>2019-08-19T13:51:00.000Z</time>
      </trkpt>
      <trkpt lat="45.14457" lon="5.80618">
        <ele>591.46</ele>
        <time>2019-08-19T13:51:05.000Z</time>
      </trkpt>
      <trkpt lat="45.14442" lon="5.80592">
        <ele>590.98</ele>
        <time>2019-08-19T13:51:10.000Z</time>
      </trkpt>
      <trkpt lat="45.14423" lon="5.80567">
        <ele>590.45</ele>
        <time>2019-08-19T13:51:15.000Z</time>
      </trkpt>
      <trkpt lat="45.144" lon="5.80538">
        <ele>590.39</ele>
        <time>2019-08-19T13:51:20.000Z</time>
      </trkpt>
      <trkpt lat="45.14379" lon="5.80511">
        <ele>589.74</ele>
        <time>2019-08-19T13:51:25.000Z</time>
      </trkpt>
      <trkpt lat="45.14355" lon="5.8048">
        <ele>588.28</ele>
        <time>2019-08-19T13:51:30.000Z</time>
      </trkpt>
      <trkpt lat="45.14332" lon="5.80439">
        <ele>585.11</ele>
        <time>2019-08-19T13:51:35.000Z</time>
      </trkpt>
      <trkpt lat="45.14306" lon="5.80402">
        <ele>580.78</ele>
        <time>2019-08-19T13:51:40.000Z</time>
      </trkpt>
      <trkpt lat="45.14281" lon="5.80366">
        <ele>579.47</ele>
        <time>2019-08-19T13:51:45.000Z</time>
      </trkpt>
      <trkpt lat="45.14268" lon="5.80337">
        <ele>578.47</ele>
        <time>2019-08-19T13:51:50.000Z</time>
      </trkpt>
      <trkpt lat="45.14265" lon="5.80298">
        <ele>577.69</ele>
        <time>2019-08-19T13:51:55.000Z</time>
      </trkpt>
      <trkpt lat="45.14258" lon="5.8025">
        <ele>573.71</ele>
        <time>2019-08-19T13:52:00.000Z</time>
      </trkpt>
      <trkpt lat="45.14246" lon="5.80193">
        <ele>571.56</ele>
        <time>2019-08-19T13:52:05.000Z</time>
      </trkpt>
      <trkpt lat="45.14233" lon="5.80136">
        <ele>566.98</ele>
        <time>2019-08-19T13:52:10.000Z</time>
      </trkpt>
      <trkpt lat="45.14205" lon="5.80089">
        <ele>563.49</ele>
        <time>2019-08-19T13:52:15.000Z</time>
      </trkpt>
      <trkpt lat="45.14179" lon="5.80038">
        <ele>564.75</ele>
        <time>2019-08-19T13:52:20.000Z</time>
      </trkpt>
      <trkpt lat="45.14146" lon="5.79979">
        <ele>560.06</ele>
        <time>2019-08-19T13:52:25.000Z</time>
      </trkpt>
      <trkpt lat="45.1412" lon="5.79925">
        <ele>555.2</ele>
        <time>2019-08-19T13:52:30.000Z</time>
      </trkpt>
      <trkpt lat="45.14111" lon="5.79889">
        <ele>553.56</ele>
        <time>2019-08-19T13:52:35.000Z</time>
      </trkpt>
      <trkpt lat="45.14112" lon="5.79903">
        <ele>552.64</ele>
        <time>2019-08-19T13:52:55.000Z</time>
      </trkpt>
      <trkpt lat="45.14112" lon="5.79919">
        <ele>554.3</ele>
        <time>2019-08-19T13:53:00.000Z</time>
      </trkpt>
      <trkpt lat="45.1411" lon="5.79935">
        <ele>553.02</ele>
        <time>2019-08-19T13:53:05.000Z</time>
      </trkpt>
      <trkpt lat="45.14093" lon="5.79923">
        <ele>551.68</ele>
        <time>2019-08-19T13:53:10.000Z</time>
      </trkpt>
      <trkpt lat="45.14075" lon="5.79901">
        <ele>549.22</ele>
        <time>2019-08-19T13:53:15.000Z</time>
      </trkpt>
      <trkpt lat="45.14049" lon="5.79888">
        <ele>546.42</ele>
        <time>2019-08-19T13:53:20.000Z</time>
      </trkpt>
      <trkpt lat="45.14024" lon="5.79879">
        <ele>548.6</ele>
        <time>2019-08-19T13:53:25.000Z</time>
      </trkpt>
      <trkpt lat="45.1401" lon="5.79863">
        <ele>549.67</ele>
        <time>2019-08-19T13:53:30.000Z</time>
      </trkpt>
      <trkpt lat="45.14003" lon="5.79831">
        <ele>548.8</ele>
        <time>2019-08-19T13:53:35.000Z</time>
      </trkpt>
      <trkpt lat="45.13988" lon="5.79795">
        <ele>547.33</ele>
        <time>2019-08-19T13:53:40.000Z</time>
      </trkpt>
      <trkpt lat="45.1396" lon="5.7977">
        <ele>543.86</ele>
        <time>2019-08-19T13:53:45.000Z</time>
      </trkpt>
      <trkpt lat="45.13933" lon="5.79751">
        <ele>543.1</ele>
        <time>2019-08-19T13:53:50.000Z</time>
      </trkpt>
      <trkpt lat="45.13921" lon="5.79726">
        <ele>544.1</ele>
        <time>2019-08-19T13:53:55.000Z</time>
      </trkpt>
      <trkpt lat="45.13928" lon="5.79691">
        <ele>542.26</ele>
        <time>2019-08-19T13:54:00.000Z</time>
      </trkpt>
      <trkpt lat="45.13906" lon="5.7967">
        <ele>541.72</ele>
        <time>2019-08-19T13:54:05.000Z</time>
      </trkpt>
      <trkpt lat="45.13884" lon="5.79654">
        <ele>541.07</ele>
        <time>2019-08-19T13:54:10.000Z</time>
      </trkpt>
      <trkpt lat="45.13864" lon="5.79644">
        <ele>538.04</ele>
        <time>2019-08-19T13:54:15.000Z</time>
      </trkpt>
      <trkpt lat="45.1384" lon="5.79648">
        <ele>535.41</ele>
        <time>2019-08-19T13:54:20.000Z</time>
      </trkpt>
      <trkpt lat="45.13826" lon="5.79661">
        <ele>535.36</ele>
        <time>2019-08-19T13:54:25.000Z</time>
      </trkpt>
      <trkpt lat="45.13809" lon="5.79659">
        <ele>534.34</ele>
        <time>2019-08-19T13:54:30.000Z</time>
      </trkpt>
      <trkpt lat="45.13784" lon="5.7965">
        <ele>529.6</ele>
        <time>2019-08-19T13:54:35.000Z</time>
      </trkpt>
      <trkpt lat="45.13759" lon="5.79637">
        <ele>529</ele>
        <time>2019-08-19T13:54:40.000Z</time>
      </trkpt>
      <trkpt lat="45.13743" lon="5.79617">
        <ele>526.81</ele>
        <time>2019-08-19T13:54:45.000Z</time>
      </trkpt>
      <trkpt lat="45.13729" lon="5.79599">
        <ele>521.18</ele>
        <time>2019-08-19T13:54:50.000Z</time>
      </trkpt>
      <trkpt lat="45.13719" lon="5.79578">
        <ele>517.79</ele>
        <time>2019-08-19T13:54:55.000Z</time>
      </trkpt>
      <trkpt lat="45.13703" lon="5.79545">
        <ele>514.3</ele>
        <time>2019-08-19T13:55:00.000Z</time>
      </trkpt>
      <trkpt lat="45.137" lon="5.79529">
        <ele>509.07</ele>
        <time>2019-08-19T13:55:05.000Z</time>
      </trkpt>
      <trkpt lat="45.13711" lon="5.79523">
        <ele>508.15</ele>
        <time>2019-08-19T13:55:10.000Z</time>
      </trkpt>
      <trkpt lat="45.13726" lon="5.79515">
        <ele>508.43</ele>
        <time>2019-08-19T13:55:15.000Z</time>
      </trkpt>
      <trkpt lat="45.13741" lon="5.79504">
        <ele>503.61</ele>
        <time>2019-08-19T13:55:20.000Z</time>
      </trkpt>
      <trkpt lat="45.13757" lon="5.79489">
        <ele>502.82</ele>
        <time>2019-08-19T13:55:25.000Z</time>
      </trkpt>
      <trkpt lat="45.13775" lon="5.79471">
        <ele>502.39</ele>
        <time>2019-08-19T13:55:30.000Z</time>
      </trkpt>
      <trkpt lat="45.13792" lon="5.79459">
        <ele>504.36</ele>
        <time>2019-08-19T13:55:35.000Z</time>
      </trkpt>
      <trkpt lat="45.13811" lon="5.79443">
        <ele>502.65</ele>
        <time>2019-08-19T13:55:40.000Z</time>
      </trkpt>
      <trkpt lat="45.13825" lon="5.79423">
        <ele>504.45</ele>
        <time>2019-08-19T13:55:45.000Z</time>
      </trkpt>
      <trkpt lat="45.13837" lon="5.79393">
        <ele>505.69</ele>
        <time>2019-08-19T13:55:50.000Z</time>
      </trkpt>
      <trkpt lat="45.13854" lon="5.79366">
        <ele>505.72</ele>
        <time>2019-08-19T13:55:55.000Z</time>
      </trkpt>
      <trkpt lat="45.1387" lon="5.79346">
        <ele>502.53</ele>
        <time>2019-08-19T13:56:00.000Z</time>
      </trkpt>
      <trkpt lat="45.13883" lon="5.79329">
        <ele>505.9</ele>
        <time>2019-08-19T13:56:05.000Z</time>
      </trkpt>
      <trkpt lat="45.139" lon="5.79314">
        <ele>506.8</ele>
        <time>2019-08-19T13:56:10.000Z</time>
      </trkpt>
      <trkpt lat="45.13915" lon="5.79299">
        <ele>508.33</ele>
        <time>2019-08-19T13:56:15.000Z</time>
      </trkpt>
      <trkpt lat="45.13925" lon="5.79284">
        <ele>508.59</ele>
        <time>2019-08-19T13:56:20.000Z</time>
      </trkpt>
      <trkpt lat="45.13932" lon="5.79273">
        <ele>509.21</ele>
        <time>2019-08-19T13:56:25.000Z</time>
      </trkpt>
      <trkpt lat="45.13945" lon="5.79266">
        <ele>512.37</ele>
        <time>2019-08-19T13:56:30.000Z</time>
      </trkpt>
      <trkpt lat="45.1396" lon="5.7926">
        <ele>512.7</ele>
        <time>2019-08-19T13:56:35.000Z</time>
      </trkpt>
      <trkpt lat="45.13977" lon="5.79253">
        <ele>512.74</ele>
        <time>2019-08-19T13:56:40.000Z</time>
      </trkpt>
      <trkpt lat="45.13991" lon="5.79244">
        <ele>513.14</ele>
        <time>2019-08-19T13:56:45.000Z</time>
      </trkpt>
      <trkpt lat="45.14006" lon="5.79232">
        <ele>510.83</ele>
        <time>2019-08-19T13:56:50.000Z</time>
      </trkpt>
      <trkpt lat="45.14022" lon="5.79218">
        <ele>513.11</ele>
        <time>2019-08-19T13:56:55.000Z</time>
      </trkpt>
      <trkpt lat="45.1404" lon="5.79201">
        <ele>515.33</ele>
        <time>2019-08-19T13:57:00.000Z</time>
      </trkpt>
      <trkpt lat="45.14056" lon="5.79187">
        <ele>513.9</ele>
        <time>2019-08-19T13:57:05.000Z</time>
      </trkpt>
      <trkpt lat="45.14076" lon="5.79177">
        <ele>513.16</ele>
        <time>2019-08-19T13:57:10.000Z</time>
      </trkpt>
      <trkpt lat="45.14096" lon="5.79171">
        <ele>512.55</ele>
        <time>2019-08-19T13:57:15.000Z</time>
      </trkpt>
      <trkpt lat="45.1412" lon="5.7917">
        <ele>507.17</ele>
        <time>2019-08-19T13:57:20.000Z</time>
      </trkpt>
      <trkpt lat="45.14142" lon="5.79173">
        <ele>508.68</ele>
        <time>2019-08-19T13:57:25.000Z</time>
      </trkpt>
      <trkpt lat="45.14157" lon="5.79185">
        <ele>507.84</ele>
        <time>2019-08-19T13:57:30.000Z</time>
      </trkpt>
      <trkpt lat="45.14169" lon="5.79202">
        <ele>508.57</ele>
        <time>2019-08-19T13:57:35.000Z</time>
      </trkpt>
      <trkpt lat="45.14181" lon="5.79221">
        <ele>511.3</ele>
        <time>2019-08-19T13:57:40.000Z</time>
      </trkpt>
      <trkpt lat="45.14194" lon="5.79237">
        <ele>514.6</ele>
        <time>2019-08-19T13:57:45.000Z</time>
      </trkpt>
      <trkpt lat="45.14211" lon="5.79251">
        <ele>515.76</ele>
        <time>2019-08-19T13:57:50.000Z</time>
      </trkpt>
      <trkpt lat="45.14228" lon="5.79256">
        <ele>517.52</ele>
        <time>2019-08-19T13:57:55.000Z</time>
      </trkpt>
      <trkpt lat="45.14246" lon="5.79254">
        <ele>518.91</ele>
        <time>2019-08-19T13:58:00.000Z</time>
      </trkpt>
      <trkpt lat="45.14265" lon="5.79247">
        <ele>523.2</ele>
        <time>2019-08-19T13:58:05.000Z</time>
      </trkpt>
      <trkpt lat="45.14284" lon="5.79239">
        <ele>524</ele>
        <time>2019-08-19T13:58:10.000Z</time>
      </trkpt>
      <trkpt lat="45.14303" lon="5.79234">
        <ele>526.86</ele>
        <time>2019-08-19T13:58:15.000Z</time>
      </trkpt>
      <trkpt lat="45.14322" lon="5.79231">
        <ele>527.19</ele>
        <time>2019-08-19T13:58:20.000Z</time>
      </trkpt>
      <trkpt lat="45.14342" lon="5.79224">
        <ele>526.38</ele>
        <time>2019-08-19T13:58:25.000Z</time>
      </trkpt>
      <trkpt lat="45.1436" lon="5.79217">
        <ele>528.86</ele>
        <time>2019-08-19T13:58:30.000Z</time>
      </trkpt>
      <trkpt lat="45.14378" lon="5.79208">
        <ele>531.31</ele>
        <time>2019-08-19T13:58:35.000Z</time>
      </trkpt>
      <trkpt lat="45.14395" lon="5.79202">
        <ele>532.04</ele>
        <time>2019-08-19T13:58:40.000Z</time>
      </trkpt>
      <trkpt lat="45.14412" lon="5.79194">
        <ele>533.86</ele>
        <time>2019-08-19T13:58:45.000Z</time>
      </trkpt>
      <trkpt lat="45.14429" lon="5.79188">
        <ele>538.09</ele>
        <time>2019-08-19T13:58:50.000Z</time>
      </trkpt>
      <trkpt lat="45.14447" lon="5.79181">
        <ele>540.47</ele>
        <time>2019-08-19T13:58:55.000Z</time>
      </trkpt>
      <trkpt lat="45.14465" lon="5.79178">
        <ele>539.45</ele>
        <time>2019-08-19T13:59:00.000Z</time>
      </trkpt>
      <trkpt lat="45.14479" lon="5.79196">
        <ele>541.53</ele>
        <time>2019-08-19T13:59:05.000Z</time>
      </trkpt>
      <trkpt lat="45.14474" lon="5.79224">
        <ele>543.94</ele>
        <time>2019-08-19T13:59:10.000Z</time>
      </trkpt>
      <trkpt lat="45.14458" lon="5.79243">
        <ele>546.34</ele>
        <time>2019-08-19T13:59:15.000Z</time>
      </trkpt>
      <trkpt lat="45.14439" lon="5.79257">
        <ele>548.08</ele>
        <time>2019-08-19T13:59:20.000Z</time>
      </trkpt>
      <trkpt lat="45.14423" lon="5.79273">
        <ele>550.85</ele>
        <time>2019-08-19T13:59:25.000Z</time>
      </trkpt>
      <trkpt lat="45.14416" lon="5.79296">
        <ele>552.52</ele>
        <time>2019-08-19T13:59:30.000Z</time>
      </trkpt>
      <trkpt lat="45.14432" lon="5.79312">
        <ele>550.63</ele>
        <time>2019-08-19T13:59:35.000Z</time>
      </trkpt>
      <trkpt lat="45.14452" lon="5.79309">
        <ele>551.37</ele>
        <time>2019-08-19T13:59:40.000Z</time>
      </trkpt>
      <trkpt lat="45.1447" lon="5.79301">
        <ele>556.29</ele>
        <time>2019-08-19T13:59:45.000Z</time>
      </trkpt>
      <trkpt lat="45.14488" lon="5.79293">
        <ele>558.13</ele>
        <time>2019-08-19T13:59:50.000Z</time>
      </trkpt>
      <trkpt lat="45.14503" lon="5.79279">
        <ele>559.12</ele>
        <time>2019-08-19T13:59:55.000Z</time>
      </trkpt>
      <trkpt lat="45.14517" lon="5.79261">
        <ele>562.18</ele>
        <time>2019-08-19T14:00:00.000Z</time>
      </trkpt>
      <trkpt lat="45.1453" lon="5.79244">
        <ele>561.56</ele>
        <time>2019-08-19T14:00:05.000Z</time>
      </trkpt>
      <trkpt lat="45.14548" lon="5.79243">
        <ele>559.3</ele>
        <time>2019-08-19T14:00:10.000Z</time>
      </trkpt>
      <trkpt lat="45.14566" lon="5.79242">
        <ele>562.64</ele>
        <time>2019-08-19T14:00:15.000Z</time>
      </trkpt>
      <trkpt lat="45.1458" lon="5.79227">
        <ele>568.63</ele>
        <time>2019-08-19T14:00:20.000Z</time>
      </trkpt>
      <trkpt lat="45.14592" lon="5.79207">
        <ele>570.75</ele>
        <time>2019-08-19T14:00:25.000Z</time>
      </trkpt>
      <trkpt lat="45.14606" lon="5.79189">
        <ele>575.38</ele>
        <time>2019-08-19T14:00:30.000Z</time>
      </trkpt>
      <trkpt lat="45.14618" lon="5.79169">
        <ele>577.47</ele>
        <time>2019-08-19T14:00:35.000Z</time>
      </trkpt>
      <trkpt lat="45.14631" lon="5.7915">
        <ele>579.59</ele>
        <time>2019-08-19T14:00:40.000Z</time>
      </trkpt>
      <trkpt lat="45.14644" lon="5.79131">
        <ele>581.47</ele>
        <time>2019-08-19T14:00:45.000Z</time>
      </trkpt>
      <trkpt lat="45.14658" lon="5.79113">
        <ele>583.59</ele>
        <time>2019-08-19T14:00:50.000Z</time>
      </trkpt>
      <trkpt lat="45.14671" lon="5.79094">
        <ele>583.8</ele>
        <time>2019-08-19T14:00:55.000Z</time>
      </trkpt>
      <trkpt lat="45.14686" lon="5.79079">
        <ele>583.99</ele>
        <time>2019-08-19T14:01:00.000Z</time>
      </trkpt>
      <trkpt lat="45.14697" lon="5.79072">
        <ele>585.54</ele>
        <time>2019-08-19T14:01:05.000Z</time>
      </trkpt>
      <trkpt lat="45.14694" lon="5.79058">
        <ele>587.17</ele>
        <time>2019-08-19T14:01:37.000Z</time>
      </trkpt>
      <trkpt lat="45.14696" lon="5.79042">
        <ele>587.5</ele>
        <time>2019-08-19T14:01:42.000Z</time>
      </trkpt>
      <trkpt lat="45.14698" lon="5.79024">
        <ele>586.85</ele>
        <time>2019-08-19T14:01:47.000Z</time>
      </trkpt>
      <trkpt lat="45.14701" lon="5.79">
        <ele>587.21</ele>
        <time>2019-08-19T14:01:52.000Z</time>
      </trkpt>
      <trkpt lat="45.14704" lon="5.78974">
        <ele>584.97</ele>
        <time>2019-08-19T14:01:57.000Z</time>
      </trkpt>
      <trkpt lat="45.14707" lon="5.78946">
        <ele>583.59</ele>
        <time>2019-08-19T14:02:02.000Z</time>
      </trkpt>
      <trkpt lat="45.14711" lon="5.78919">
        <ele>584.83</ele>
        <time>2019-08-19T14:02:07.000Z</time>
      </trkpt>
      <trkpt lat="45.14717" lon="5.78892">
        <ele>583.73</ele>
        <time>2019-08-19T14:02:12.000Z</time>
      </trkpt>
      <trkpt lat="45.14723" lon="5.78864">
        <ele>586.41</ele>
        <time>2019-08-19T14:02:17.000Z</time>
      </trkpt>
      <trkpt lat="45.14732" lon="5.78838">
        <ele>585.22</ele>
        <time>2019-08-19T14:02:22.000Z</time>
      </trkpt>
      <trkpt lat="45.1474" lon="5.78814">
        <ele>585.84</ele>
        <time>2019-08-19T14:02:27.000Z</time>
      </trkpt>
      <trkpt lat="45.14741" lon="5.7879">
        <ele>586.89</ele>
        <time>2019-08-19T14:02:32.000Z</time>
      </trkpt>
      <trkpt lat="45.14738" lon="5.78762">
        <ele>587.2</ele>
        <time>2019-08-19T14:02:37.000Z</time>
      </trkpt>
      <trkpt lat="45.14738" lon="5.78734">
        <ele>587.53</ele>
        <time>2019-08-19T14:02:42.000Z</time>
      </trkpt>
      <trkpt lat="45.14739" lon="5.78701">
        <ele>588.35</ele>
        <time>2019-08-19T14:02:47.000Z</time>
      </trkpt>
      <trkpt lat="45.14735" lon="5.78672">
        <ele>586.36</ele>
        <time>2019-08-19T14:02:52.000Z</time>
      </trkpt>
      <trkpt lat="45.14733" lon="5.78642">
        <ele>586.84</ele>
        <time>2019-08-19T14:02:57.000Z</time>
      </trkpt>
      <trkpt lat="45.14732" lon="5.78616">
        <ele>587.68</ele>
        <time>2019-08-19T14:03:02.000Z</time>
      </trkpt>
      <trkpt lat="45.14729" lon="5.78596">
        <ele>589.13</ele>
        <time>2019-08-19T14:03:07.000Z</time>
      </trkpt>
      <trkpt lat="45.14725" lon="5.78572">
        <ele>589.15</ele>
        <time>2019-08-19T14:03:12.000Z</time>
      </trkpt>
      <trkpt lat="45.1472" lon="5.78542">
        <ele>588.99</ele>
        <time>2019-08-19T14:03:17.000Z</time>
      </trkpt>
      <trkpt lat="45.14717" lon="5.78511">
        <ele>585.78</ele>
        <time>2019-08-19T14:03:22.000Z</time>
      </trkpt>
      <trkpt lat="45.14715" lon="5.78481">
        <ele>586.5</ele>
        <time>2019-08-19T14:03:27.000Z</time>
      </trkpt>
      <trkpt lat="45.14714" lon="5.78457">
        <ele>587.54</ele>
        <time>2019-08-19T14:03:32.000Z</time>
      </trkpt>
      <trkpt lat="45.14716" lon="5.7844">
        <ele>585.09</ele>
        <time>2019-08-19T14:03:37.000Z</time>
      </trkpt>
      <trkpt lat="45.14714" lon="5.78413">
        <ele>585.95</ele>
        <time>2019-08-19T14:03:42.000Z</time>
      </trkpt>
      <trkpt lat="45.14711" lon="5.78384">
        <ele>589.9</ele>
        <time>2019-08-19T14:03:47.000Z</time>
      </trkpt>
      <trkpt lat="45.14714" lon="5.78354">
        <ele>587.69</ele>
        <time>2019-08-19T14:03:52.000Z</time>
      </trkpt>
      <trkpt lat="45.14717" lon="5.78326">
        <ele>581.13</ele>
        <time>2019-08-19T14:03:57.000Z</time>
      </trkpt>
      <trkpt lat="45.14722" lon="5.78297">
        <ele>579.15</ele>
        <time>2019-08-19T14:04:02.000Z</time>
      </trkpt>
      <trkpt lat="45.14725" lon="5.78268">
        <ele>581.04</ele>
        <time>2019-08-19T14:04:07.000Z</time>
      </trkpt>
      <trkpt lat="45.1473" lon="5.78242">
        <ele>583.13</ele>
        <time>2019-08-19T14:04:12.000Z</time>
      </trkpt>
      <trkpt lat="45.14724" lon="5.78204">
        <ele>583.91</ele>
        <time>2019-08-19T14:04:17.000Z</time>
      </trkpt>
      <trkpt lat="45.1473" lon="5.7817">
        <ele>584.15</ele>
        <time>2019-08-19T14:04:22.000Z</time>
      </trkpt>
      <trkpt lat="45.14727" lon="5.78128">
        <ele>582.48</ele>
        <time>2019-08-19T14:04:27.000Z</time>
      </trkpt>
      <trkpt lat="45.14725" lon="5.781">
        <ele>580.71</ele>
        <time>2019-08-19T14:04:32.000Z</time>
      </trkpt>
      <trkpt lat="45.14722" lon="5.7807">
        <ele>578.43</ele>
        <time>2019-08-19T14:04:37.000Z</time>
      </trkpt>
      <trkpt lat="45.14725" lon="5.78032">
        <ele>571.72</ele>
        <time>2019-08-19T14:04:42.000Z</time>
      </trkpt>
      <trkpt lat="45.14733" lon="5.77996">
        <ele>570.33</ele>
        <time>2019-08-19T14:04:47.000Z</time>
      </trkpt>
      <trkpt lat="45.14754" lon="5.77971">
        <ele>568.14</ele>
        <time>2019-08-19T14:04:52.000Z</time>
      </trkpt>
      <trkpt lat="45.14777" lon="5.77958">
        <ele>567.13</ele>
        <time>2019-08-19T14:04:57.000Z</time>
      </trkpt>
      <trkpt lat="45.14804" lon="5.77946">
        <ele>564.65</ele>
        <time>2019-08-19T14:05:02.000Z</time>
      </trkpt>
      <trkpt lat="45.14829" lon="5.77926">
        <ele>565.82</ele>
        <time>2019-08-19T14:05:07.000Z</time>
      </trkpt>
      <trkpt lat="45.14856" lon="5.77902">
        <ele>568.48</ele>
        <time>2019-08-19T14:05:12.000Z</time>
      </trkpt>
      <trkpt lat="45.14875" lon="5.77882">
        <ele>569.54</ele>
        <time>2019-08-19T14:05:17.000Z</time>
      </trkpt>
      <trkpt lat="45.14885" lon="5.77858">
        <ele>569.87</ele>
        <time>2019-08-19T14:05:22.000Z</time>
      </trkpt>
      <trkpt lat="45.14892" lon="5.77828">
        <ele>568.21</ele>
        <time>2019-08-19T14:05:27.000Z</time>
      </trkpt>
      <trkpt lat="45.14905" lon="5.77799">
        <ele>565.05</ele>
        <time>2019-08-19T14:05:32.000Z</time>
      </trkpt>
      <trkpt lat="45.1492" lon="5.77774">
        <ele>563.95</ele>
        <time>2019-08-19T14:05:37.000Z</time>
      </trkpt>
      <trkpt lat="45.14926" lon="5.77755">
        <ele>562.1</ele>
        <time>2019-08-19T14:05:42.000Z</time>
      </trkpt>
      <trkpt lat="45.14923" lon="5.77725">
        <ele>562.75</ele>
        <time>2019-08-19T14:05:47.000Z</time>
      </trkpt>
      <trkpt lat="45.1493" lon="5.77691">
        <ele>562.83</ele>
        <time>2019-08-19T14:05:52.000Z</time>
      </trkpt>
      <trkpt lat="45.14934" lon="5.77671">
        <ele>560.63</ele>
        <time>2019-08-19T14:05:57.000Z</time>
      </trkpt>
      <trkpt lat="45.1494" lon="5.77654">
        <ele>560.21</ele>
        <time>2019-08-19T14:06:02.000Z</time>
      </trkpt>
      <trkpt lat="45.14944" lon="5.7764">
        <ele>562.45</ele>
        <time>2019-08-19T14:06:07.000Z</time>
      </trkpt>
      <trkpt lat="45.14939" lon="5.77651">
        <ele>564.32</ele>
        <time>2019-08-19T14:06:37.000Z</time>
      </trkpt>
      <trkpt lat="45.14934" lon="5.77667">
        <ele>563.29</ele>
        <time>2019-08-19T14:06:42.000Z</time>
      </trkpt>
      <trkpt lat="45.14927" lon="5.77678">
        <ele>561.89</ele>
        <time>2019-08-19T14:06:47.000Z</time>
      </trkpt>
      <trkpt lat="45.14915" lon="5.77678">
        <ele>558.59</ele>
        <time>2019-08-19T14:06:52.000Z</time>
      </trkpt>
      <trkpt lat="45.14901" lon="5.77668">
        <ele>557.31</ele>
        <time>2019-08-19T14:06:57.000Z</time>
      </trkpt>
      <trkpt lat="45.14889" lon="5.77663">
        <ele>558.22</ele>
        <time>2019-08-19T14:07:02.000Z</time>
      </trkpt>
      <trkpt lat="45.14873" lon="5.77674">
        <ele>556.27</ele>
        <time>2019-08-19T14:07:07.000Z</time>
      </trkpt>
      <trkpt lat="45.14858" lon="5.77698">
        <ele>553.92</ele>
        <time>2019-08-19T14:07:12.000Z</time>
      </trkpt>
      <trkpt lat="45.14848" lon="5.77733">
        <ele>552.7</ele>
        <time>2019-08-19T14:07:17.000Z</time>
      </trkpt>
      <trkpt lat="45.14832" lon="5.77757">
        <ele>551.11</ele>
        <time>2019-08-19T14:07:22.000Z</time>
      </trkpt>
      <trkpt lat="45.14813" lon="5.77782">
        <ele>550.21</ele>
        <time>2019-08-19T14:07:27.000Z</time>
      </trkpt>
      <trkpt lat="45.14796" lon="5.77805">
        <ele>548.05</ele>
        <time>2019-08-19T14:07:32.000Z</time>
      </trkpt>
      <trkpt lat="45.14776" lon="5.77824">
        <ele>547.58</ele>
        <time>2019-08-19T14:07:37.000Z</time>
      </trkpt>
      <trkpt lat="45.14759" lon="5.7784">
        <ele>545.66</ele>
        <time>2019-08-19T14:07:42.000Z</time>
      </trkpt>
      <trkpt lat="45.1474" lon="5.77854">
        <ele>548.27</ele>
        <time>2019-08-19T14:07:47.000Z</time>
      </trkpt>
      <trkpt lat="45.14721" lon="5.77865">
        <ele>550.63</ele>
        <time>2019-08-19T14:07:52.000Z</time>
      </trkpt>
      <trkpt lat="45.14699" lon="5.77887">
        <ele>549.99</ele>
        <time>2019-08-19T14:07:57.000Z</time>
      </trkpt>
      <trkpt lat="45.14675" lon="5.77916">
        <ele>546.9</ele>
        <time>2019-08-19T14:08:02.000Z</time>
      </trkpt>
      <trkpt lat="45.14655" lon="5.77953">
        <ele>540.38</ele>
        <time>2019-08-19T14:08:07.000Z</time>
      </trkpt>
      <trkpt lat="45.14637" lon="5.77993">
        <ele>535.8</ele>
        <time>2019-08-19T14:08:12.000Z</time>
      </trkpt>
      <trkpt lat="45.14617" lon="5.78031">
        <ele>530.37</ele>
        <time>2019-08-19T14:08:17.000Z</time>
      </trkpt>
      <trkpt lat="45.14599" lon="5.78069">
        <ele>526.8</ele>
        <time>2019-08-19T14:08:22.000Z</time>
      </trkpt>
      <trkpt lat="45.14576" lon="5.78099">
        <ele>526.14</ele>
        <time>2019-08-19T14:08:27.000Z</time>
      </trkpt>
      <trkpt lat="45.14553" lon="5.78138">
        <ele>525.04</ele>
        <time>2019-08-19T14:08:32.000Z</time>
      </trkpt>
      <trkpt lat="45.14526" lon="5.78165">
        <ele>520.26</ele>
        <time>2019-08-19T14:08:37.000Z</time>
      </trkpt>
      <trkpt lat="45.14506" lon="5.78206">
        <ele>518.38</ele>
        <time>2019-08-19T14:08:42.000Z</time>
      </trkpt>
      <trkpt lat="45.14482" lon="5.78255">
        <ele>517.17</ele>
        <time>2019-08-19T14:08:47.000Z</time>
      </trkpt>
      <trkpt lat="45.14447" lon="5.78296">
        <ele>517.15</ele>
        <time>2019-08-19T14:08:52.000Z</time>
      </trkpt>
      <trkpt lat="45.14421" lon="5.78347">
        <ele>515.42</ele>
        <time>2019-08-19T14:08:57.000Z</time>
      </trkpt>
      <trkpt lat="45.14411" lon="5.78399">
        <ele>508.75</ele>
        <time>2019-08-19T14:09:02.000Z</time>
      </trkpt>
      <trkpt lat="45.14399" lon="5.78455">
        <ele>508.75</ele>
        <time>2019-08-19T14:09:07.000Z</time>
      </trkpt>
      <trkpt lat="45.14378" lon="5.785">
        <ele>503.94</ele>
        <time>2019-08-19T14:09:12.000Z</time>
      </trkpt>
      <trkpt lat="45.14349" lon="5.78545">
        <ele>498.55</ele>
        <time>2019-08-19T14:09:17.000Z</time>
      </trkpt>
      <trkpt lat="45.14319" lon="5.78597">
        <ele>493.24</ele>
        <time>2019-08-19T14:09:22.000Z</time>
      </trkpt>
      <trkpt lat="45.14288" lon="5.78643">
        <ele>491.84</ele>
        <time>2019-08-19T14:09:27.000Z</time>
      </trkpt>
      <trkpt lat="45.14267" lon="5.7867">
        <ele>487.87</ele>
        <time>2019-08-19T14:09:32.000Z</time>
      </trkpt>
      <trkpt lat="45.14258" lon="5.7867">
        <ele>488.85</ele>
        <time>2019-08-19T14:09:59.000Z</time>
      </trkpt>
      <trkpt lat="45.14243" lon="5.78663">
        <ele>485.91</ele>
        <time>2019-08-19T14:10:04.000Z</time>
      </trkpt>
      <trkpt lat="45.14226" lon="5.78657">
        <ele>482.06</ele>
        <time>2019-08-19T14:10:09.000Z</time>
      </trkpt>
      <trkpt lat="45.14208" lon="5.78617">
        <ele>478.51</ele>
        <time>2019-08-19T14:10:14.000Z</time>
      </trkpt>
      <trkpt lat="45.14201" lon="5.78577">
        <ele>474.05</ele>
        <time>2019-08-19T14:10:19.000Z</time>
      </trkpt>
      <trkpt lat="45.14202" lon="5.78537">
        <ele>473.23</ele>
        <time>2019-08-19T14:10:24.000Z</time>
      </trkpt>
      <trkpt lat="45.14192" lon="5.78502">
        <ele>472.91</ele>
        <time>2019-08-19T14:10:29.000Z</time>
      </trkpt>
      <trkpt lat="45.14183" lon="5.78464">
        <ele>471.18</ele>
        <time>2019-08-19T14:10:34.000Z</time>
      </trkpt>
      <trkpt lat="45.14168" lon="5.78429">
        <ele>471.37</ele>
        <time>2019-08-19T14:10:39.000Z</time>
      </trkpt>
      <trkpt lat="45.14153" lon="5.78389">
        <ele>469.84</ele>
        <time>2019-08-19T14:10:44.000Z</time>
      </trkpt>
      <trkpt lat="45.14132" lon="5.78344">
        <ele>462.97</ele>
        <time>2019-08-19T14:10:49.000Z</time>
      </trkpt>
      <trkpt lat="45.14108" lon="5.78297">
        <ele>460.96</ele>
        <time>2019-08-19T14:10:54.000Z</time>
      </trkpt>
      <trkpt lat="45.14086" lon="5.78281">
        <ele>458.59</ele>
        <time>2019-08-19T14:10:59.000Z</time>
      </trkpt>
      <trkpt lat="45.14057" lon="5.78319">
        <ele>455.91</ele>
        <time>2019-08-19T14:11:04.000Z</time>
      </trkpt>
      <trkpt lat="45.1404" lon="5.78344">
        <ele>451.14</ele>
        <time>2019-08-19T14:11:09.000Z</time>
      </trkpt>
      <trkpt lat="45.14024" lon="5.78344">
        <ele>446.71</ele>
        <time>2019-08-19T14:11:14.000Z</time>
      </trkpt>
      <trkpt lat="45.14009" lon="5.78313">
        <ele>443.39</ele>
        <time>2019-08-19T14:11:19.000Z</time>
      </trkpt>
      <trkpt lat="45.13997" lon="5.78265">
        <ele>441.14</ele>
        <time>2019-08-19T14:11:24.000Z</time>
      </trkpt>
      <trkpt lat="45.13982" lon="5.78203">
        <ele>441.59</ele>
        <time>2019-08-19T14:11:29.000Z</time>
      </trkpt>
      <trkpt lat="45.13971" lon="5.78138">
        <ele>441.08</ele>
        <time>2019-08-19T14:11:34.000Z</time>
      </trkpt>
      <trkpt lat="45.13972" lon="5.78071">
        <ele>438.71</ele>
        <time>2019-08-19T14:11:39.000Z</time>
      </trkpt>
      <trkpt lat="45.13995" lon="5.77991">
        <ele>437.76</ele>
        <time>2019-08-19T14:11:44.000Z</time>
      </trkpt>
      <trkpt lat="45.14018" lon="5.77921">
        <ele>433.96</ele>
        <time>2019-08-19T14:11:49.000Z</time>
      </trkpt>
      <trkpt lat="45.14054" lon="5.77879">
        <ele>430.99</ele>
        <time>2019-08-19T14:11:54.000Z</time>
      </trkpt>
      <trkpt lat="45.14081" lon="5.77848">
        <ele>427.4</ele>
        <time>2019-08-19T14:11:59.000Z</time>
      </trkpt>
      <trkpt lat="45.14077" lon="5.77804">
        <ele>422.83</ele>
        <time>2019-08-19T14:12:04.000Z</time>
      </trkpt>
      <trkpt lat="45.14042" lon="5.77786">
        <ele>425.04</ele>
        <time>2019-08-19T14:12:09.000Z</time>
      </trkpt>
      <trkpt lat="45.14003" lon="5.7777">
        <ele>420.48</ele>
        <time>2019-08-19T14:12:14.000Z</time>
      </trkpt>
      <trkpt lat="45.13969" lon="5.77766">
        <ele>415.04</ele>
        <time>2019-08-19T14:12:19.000Z</time>
      </trkpt>
      <trkpt lat="45.13942" lon="5.77758">
        <ele>412.95</ele>
        <time>2019-08-19T14:12:24.000Z</time>
      </trkpt>
      <trkpt lat="45.13936" lon="5.77725">
        <ele>410.98</ele>
        <time>2019-08-19T14:12:29.000Z</time>
      </trkpt>
      <trkpt lat="45.13952" lon="5.77691">
        <ele>410.28</ele>
        <time>2019-08-19T14:12:34.000Z</time>
      </trkpt>
      <trkpt lat="45.13975" lon="5.77651">
        <ele>407.74</ele>
        <time>2019-08-19T14:12:39.000Z</time>
      </trkpt>
      <trkpt lat="45.13997" lon="5.77606">
        <ele>407.08</ele>
        <time>2019-08-19T14:12:44.000Z</time>
      </trkpt>
      <trkpt lat="45.14021" lon="5.77557">
        <ele>402.36</ele>
        <time>2019-08-19T14:12:49.000Z</time>
      </trkpt>
      <trkpt lat="45.14039" lon="5.77517">
        <ele>401.79</ele>
        <time>2019-08-19T14:12:54.000Z</time>
      </trkpt>
      <trkpt lat="45.14038" lon="5.77483">
        <ele>399.44</ele>
        <time>2019-08-19T14:12:59.000Z</time>
      </trkpt>
      <trkpt lat="45.14037" lon="5.77496">
        <ele>399.46</ele>
        <time>2019-08-19T14:13:37.000Z</time>
      </trkpt>
      <trkpt lat="45.14033" lon="5.77517">
        <ele>400.76</ele>
        <time>2019-08-19T14:13:42.000Z</time>
      </trkpt>
      <trkpt lat="45.14025" lon="5.77535">
        <ele>403.67</ele>
        <time>2019-08-19T14:13:47.000Z</time>
      </trkpt>
      <trkpt lat="45.14015" lon="5.77553">
        <ele>403.22</ele>
        <time>2019-08-19T14:13:52.000Z</time>
      </trkpt>
      <trkpt lat="45.14006" lon="5.77572">
        <ele>404.6</ele>
        <time>2019-08-19T14:13:57.000Z</time>
      </trkpt>
      <trkpt lat="45.13997" lon="5.77593">
        <ele>403.69</ele>
        <time>2019-08-19T14:14:02.000Z</time>
      </trkpt>
      <trkpt lat="45.13988" lon="5.77614">
        <ele>404.44</ele>
        <time>2019-08-19T14:14:07.000Z</time>
      </trkpt>
      <trkpt lat="45.13978" lon="5.77633">
        <ele>402.71</ele>
        <time>2019-08-19T14:14:12.000Z</time>
      </trkpt>
      <trkpt lat="45.13968" lon="5.77653">
        <ele>401.76</ele>
        <time>2019-08-19T14:14:17.000Z</time>
      </trkpt>
      <trkpt lat="45.13959" lon="5.77674">
        <ele>402.23</ele>
        <time>2019-08-19T14:14:22.000Z</time>
      </trkpt>
      <trkpt lat="45.1395" lon="5.77694">
        <ele>403.02</ele>
        <time>2019-08-19T14:14:27.000Z</time>
      </trkpt>
      <trkpt lat="45.13938" lon="5.77711">
        <ele>403.08</ele>
        <time>2019-08-19T14:14:32.000Z</time>
      </trkpt>
      <trkpt lat="45.13931" lon="5.77718">
        <ele>404.13</ele>
        <time>2019-08-19T14:14:38.000Z</time>
      </trkpt>
      <trkpt lat="45.13924" lon="5.77693">
        <ele>403.68</ele>
        <time>2019-08-19T14:14:43.000Z</time>
      </trkpt>
      <trkpt lat="45.13909" lon="5.77661">
        <ele>400.84</ele>
        <time>2019-08-19T14:14:48.000Z</time>
      </trkpt>
      <trkpt lat="45.13894" lon="5.77629">
        <ele>397.97</ele>
        <time>2019-08-19T14:14:53.000Z</time>
      </trkpt>
      <trkpt lat="45.13887" lon="5.77601">
        <ele>396.81</ele>
        <time>2019-08-19T14:14:58.000Z</time>
      </trkpt>
      <trkpt lat="45.13866" lon="5.77602">
        <ele>394.99</ele>
        <time>2019-08-19T14:15:03.000Z</time>
      </trkpt>
      <trkpt lat="45.13838" lon="5.77619">
        <ele>394.27</ele>
        <time>2019-08-19T14:15:08.000Z</time>
      </trkpt>
      <trkpt lat="45.13809" lon="5.77637">
        <ele>389.24</ele>
        <time>2019-08-19T14:15:13.000Z</time>
      </trkpt>
      <trkpt lat="45.13778" lon="5.77639">
        <ele>387.25</ele>
        <time>2019-08-19T14:15:18.000Z</time>
      </trkpt>
      <trkpt lat="45.13761" lon="5.77637">
        <ele>388.15</ele>
        <time>2019-08-19T14:15:23.000Z</time>
      </trkpt>
      <trkpt lat="45.13746" lon="5.7765">
        <ele>387.96</ele>
        <time>2019-08-19T14:15:28.000Z</time>
      </trkpt>
      <trkpt lat="45.13733" lon="5.77663">
        <ele>389.63</ele>
        <time>2019-08-19T14:15:33.000Z</time>
      </trkpt>
      <trkpt lat="45.13725" lon="5.77685">
        <ele>393.28</ele>
        <time>2019-08-19T14:15:38.000Z</time>
      </trkpt>
      <trkpt lat="45.13717" lon="5.77704">
        <ele>395.66</ele>
        <time>2019-08-19T14:15:43.000Z</time>
      </trkpt>
      <trkpt lat="45.13713" lon="5.77724">
        <ele>397.32</ele>
        <time>2019-08-19T14:15:48.000Z</time>
      </trkpt>
      <trkpt lat="45.13711" lon="5.77746">
        <ele>399.04</ele>
        <time>2019-08-19T14:15:53.000Z</time>
      </trkpt>
      <trkpt lat="45.13709" lon="5.77772">
        <ele>402.63</ele>
        <time>2019-08-19T14:15:58.000Z</time>
      </trkpt>
      <trkpt lat="45.13708" lon="5.77799">
        <ele>404.38</ele>
        <time>2019-08-19T14:16:03.000Z</time>
      </trkpt>
      <trkpt lat="45.13707" lon="5.77827">
        <ele>402.56</ele>
        <time>2019-08-19T14:16:08.000Z</time>
      </trkpt>
      <trkpt lat="45.13701" lon="5.7784">
        <ele>405.5</ele>
        <time>2019-08-19T14:16:13.000Z</time>
      </trkpt>
      <trkpt lat="45.13691" lon="5.77844">
        <ele>406.57</ele>
        <time>2019-08-19T14:16:18.000Z</time>
      </trkpt>
      <trkpt lat="45.1368" lon="5.77841">
        <ele>405.08</ele>
        <time>2019-08-19T14:16:23.000Z</time>
      </trkpt>
      <trkpt lat="45.13661" lon="5.77842">
        <ele>401.27</ele>
        <time>2019-08-19T14:16:28.000Z</time>
      </trkpt>
      <trkpt lat="45.13633" lon="5.77841">
        <ele>400.23</ele>
        <time>2019-08-19T14:16:33.000Z</time>
      </trkpt>
      <trkpt lat="45.1361" lon="5.7784">
        <ele>397.98</ele>
        <time>2019-08-19T14:16:38.000Z</time>
      </trkpt>
      <trkpt lat="45.1359" lon="5.77849">
        <ele>397.28</ele>
        <time>2019-08-19T14:16:43.000Z</time>
      </trkpt>
      <trkpt lat="45.13579" lon="5.77856">
        <ele>399.49</ele>
        <time>2019-08-19T14:16:48.000Z</time>
      </trkpt>
      <trkpt lat="45.13564" lon="5.77867">
        <ele>400.12</ele>
        <time>2019-08-19T14:16:53.000Z</time>
      </trkpt>
      <trkpt lat="45.13547" lon="5.7788">
        <ele>398.97</ele>
        <time>2019-08-19T14:16:58.000Z</time>
      </trkpt>
      <trkpt lat="45.13532" lon="5.77891">
        <ele>394.96</ele>
        <time>2019-08-19T14:17:03.000Z</time>
      </trkpt>
      <trkpt lat="45.13511" lon="5.77904">
        <ele>397.73</ele>
        <time>2019-08-19T14:17:08.000Z</time>
      </trkpt>
      <trkpt lat="45.13496" lon="5.77914">
        <ele>395.62</ele>
        <time>2019-08-19T14:17:13.000Z</time>
      </trkpt>
      <trkpt lat="45.13469" lon="5.77932">
        <ele>391.84</ele>
        <time>2019-08-19T14:17:18.000Z</time>
      </trkpt>
      <trkpt lat="45.13439" lon="5.77959">
        <ele>387.52</ele>
        <time>2019-08-19T14:17:23.000Z</time>
      </trkpt>
      <trkpt lat="45.13432" lon="5.78">
        <ele>385.89</ele>
        <time>2019-08-19T14:17:28.000Z</time>
      </trkpt>
      <trkpt lat="45.13414" lon="5.78032">
        <ele>386.81</ele>
        <time>2019-08-19T14:17:33.000Z</time>
      </trkpt>
      <trkpt lat="45.1339" lon="5.78051">
        <ele>388.96</ele>
        <time>2019-08-19T14:17:38.000Z</time>
      </trkpt>
      <trkpt lat="45.13361" lon="5.78052">
        <ele>388.56</ele>
        <time>2019-08-19T14:17:43.000Z</time>
      </trkpt>
      <trkpt lat="45.13343" lon="5.78028">
        <ele>388.43</ele>
        <time>2019-08-19T14:17:48.000Z</time>
      </trkpt>
      <trkpt lat="45.1333" lon="5.78004">
        <ele>387.85</ele>
        <time>2019-08-19T14:17:53.000Z</time>
      </trkpt>
      <trkpt lat="45.13318" lon="5.77995">
        <ele>389.38</ele>
        <time>2019-08-19T14:17:58.000Z</time>
      </trkpt>
      <trkpt lat="45.13309" lon="5.77977">
        <ele>389.31</ele>
        <time>2019-08-19T14:18:03.000Z</time>
      </trkpt>
      <trkpt lat="45.133" lon="5.77964">
        <ele>392.67</ele>
        <time>2019-08-19T14:18:08.000Z</time>
      </trkpt>
      <trkpt lat="45.13291" lon="5.77948">
        <ele>394.82</ele>
        <time>2019-08-19T14:18:13.000Z</time>
      </trkpt>
      <trkpt lat="45.13281" lon="5.77932">
        <ele>394.14</ele>
        <time>2019-08-19T14:18:18.000Z</time>
      </trkpt>
      <trkpt lat="45.13272" lon="5.77911">
        <ele>398.03</ele>
        <time>2019-08-19T14:18:23.000Z</time>
      </trkpt>
      <trkpt lat="45.13262" lon="5.77894">
        <ele>400.27</ele>
        <time>2019-08-19T14:18:28.000Z</time>
      </trkpt>
      <trkpt lat="45.13249" lon="5.77879">
        <ele>400.26</ele>
        <time>2019-08-19T14:18:33.000Z</time>
      </trkpt>
      <trkpt lat="45.13233" lon="5.77869">
        <ele>403.06</ele>
        <time>2019-08-19T14:18:38.000Z</time>
      </trkpt>
      <trkpt lat="45.13219" lon="5.77862">
        <ele>404.36</ele>
        <time>2019-08-19T14:18:43.000Z</time>
      </trkpt>
      <trkpt lat="45.13204" lon="5.77857">
        <ele>404.4</ele>
        <time>2019-08-19T14:18:48.000Z</time>
      </trkpt>
      <trkpt lat="45.13188" lon="5.77859">
        <ele>405.53</ele>
        <time>2019-08-19T14:18:53.000Z</time>
      </trkpt>
      <trkpt lat="45.13172" lon="5.77862">
        <ele>407.34</ele>
        <time>2019-08-19T14:18:58.000Z</time>
      </trkpt>
      <trkpt lat="45.13157" lon="5.77864">
        <ele>408.43</ele>
        <time>2019-08-19T14:19:03.000Z</time>
      </trkpt>
      <trkpt lat="45.13143" lon="5.77852">
        <ele>409.69</ele>
        <time>2019-08-19T14:19:08.000Z</time>
      </trkpt>
      <trkpt lat="45.13129" lon="5.77836">
        <ele>405.36</ele>
        <time>2019-08-19T14:19:13.000Z</time>
      </trkpt>
      <trkpt lat="45.13114" lon="5.77819">
        <ele>405.95</ele>
        <time>2019-08-19T14:19:18.000Z</time>
      </trkpt>
      <trkpt lat="45.13098" lon="5.77804">
        <ele>405.68</ele>
        <time>2019-08-19T14:19:23.000Z</time>
      </trkpt>
      <trkpt lat="45.13082" lon="5.77798">
        <ele>407.34</ele>
        <time>2019-08-19T14:19:28.000Z</time>
      </trkpt>
      <trkpt lat="45.13069" lon="5.77798">
        <ele>406.36</ele>
        <time>2019-08-19T14:19:33.000Z</time>
      </trkpt>
      <trkpt lat="45.1306" lon="5.77796">
        <ele>407.27</ele>
        <time>2019-08-19T14:19:38.000Z</time>
      </trkpt>
      <trkpt lat="45.13047" lon="5.77792">
        <ele>408.89</ele>
        <time>2019-08-19T14:19:43.000Z</time>
      </trkpt>
      <trkpt lat="45.13034" lon="5.77788">
        <ele>408.47</ele>
        <time>2019-08-19T14:19:48.000Z</time>
      </trkpt>
      <trkpt lat="45.13021" lon="5.77783">
        <ele>410.64</ele>
        <time>2019-08-19T14:19:53.000Z</time>
      </trkpt>
      <trkpt lat="45.13005" lon="5.7778">
        <ele>409.62</ele>
        <time>2019-08-19T14:19:58.000Z</time>
      </trkpt>
      <trkpt lat="45.1299" lon="5.77771">
        <ele>409.65</ele>
        <time>2019-08-19T14:20:03.000Z</time>
      </trkpt>
      <trkpt lat="45.12979" lon="5.77759">
        <ele>408.45</ele>
        <time>2019-08-19T14:20:08.000Z</time>
      </trkpt>
      <trkpt lat="45.12963" lon="5.77746">
        <ele>408.09</ele>
        <time>2019-08-19T14:20:13.000Z</time>
      </trkpt>
      <trkpt lat="45.12966" lon="5.77731">
        <ele>418.26</ele>
        <time>2019-08-19T14:20:42.000Z</time>
      </trkpt>
      <trkpt lat="45.12956" lon="5.77719">
        <ele>417.42</ele>
        <time>2019-08-19T14:20:47.000Z</time>
      </trkpt>
      <trkpt lat="45.12949" lon="5.77698">
        <ele>418.03</ele>
        <time>2019-08-19T14:20:52.000Z</time>
      </trkpt>
      <trkpt lat="45.12942" lon="5.77678">
        <ele>416.08</ele>
        <time>2019-08-19T14:20:57.000Z</time>
      </trkpt>
      <trkpt lat="45.12927" lon="5.77659">
        <ele>416.45</ele>
        <time>2019-08-19T14:21:02.000Z</time>
      </trkpt>
      <trkpt lat="45.12909" lon="5.77645">
        <ele>417.9</ele>
        <time>2019-08-19T14:21:07.000Z</time>
      </trkpt>
      <trkpt lat="45.1289" lon="5.77634">
        <ele>420.74</ele>
        <time>2019-08-19T14:21:12.000Z</time>
      </trkpt>
      <trkpt lat="45.12871" lon="5.77625">
        <ele>419.96</ele>
        <time>2019-08-19T14:21:17.000Z</time>
      </trkpt>
      <trkpt lat="45.12853" lon="5.77612">
        <ele>420.19</ele>
        <time>2019-08-19T14:21:22.000Z</time>
      </trkpt>
      <trkpt lat="45.1284" lon="5.7759">
        <ele>418.09</ele>
        <time>2019-08-19T14:21:27.000Z</time>
      </trkpt>
      <trkpt lat="45.12829" lon="5.77569">
        <ele>417.96</ele>
        <time>2019-08-19T14:21:32.000Z</time>
      </trkpt>
      <trkpt lat="45.1282" lon="5.77544">
        <ele>416.92</ele>
        <time>2019-08-19T14:21:37.000Z</time>
      </trkpt>
      <trkpt lat="45.12805" lon="5.77522">
        <ele>413.9</ele>
        <time>2019-08-19T14:21:42.000Z</time>
      </trkpt>
      <trkpt lat="45.12776" lon="5.77499">
        <ele>412.08</ele>
        <time>2019-08-19T14:21:47.000Z</time>
      </trkpt>
      <trkpt lat="45.12751" lon="5.77473">
        <ele>411.73</ele>
        <time>2019-08-19T14:21:52.000Z</time>
      </trkpt>
      <trkpt lat="45.12733" lon="5.77453">
        <ele>412.74</ele>
        <time>2019-08-19T14:21:57.000Z</time>
      </trkpt>
      <trkpt lat="45.1272" lon="5.77434">
        <ele>415.39</ele>
        <time>2019-08-19T14:22:02.000Z</time>
      </trkpt>
      <trkpt lat="45.12707" lon="5.77406">
        <ele>415.19</ele>
        <time>2019-08-19T14:22:07.000Z</time>
      </trkpt>
      <trkpt lat="45.12697" lon="5.77384">
        <ele>411.18</ele>
        <time>2019-08-19T14:22:12.000Z</time>
      </trkpt>
      <trkpt lat="45.12688" lon="5.77358">
        <ele>411.93</ele>
        <time>2019-08-19T14:22:17.000Z</time>
      </trkpt>
      <trkpt lat="45.12678" lon="5.77338">
        <ele>413.8</ele>
        <time>2019-08-19T14:22:22.000Z</time>
      </trkpt>
      <trkpt lat="45.12668" lon="5.77302">
        <ele>415.15</ele>
        <time>2019-08-19T14:22:27.000Z</time>
      </trkpt>
      <trkpt lat="45.1265" lon="5.77267">
        <ele>414.36</ele>
        <time>2019-08-19T14:22:32.000Z</time>
      </trkpt>
      <trkpt lat="45.12629" lon="5.77248">
        <ele>412.49</ele>
        <time>2019-08-19T14:22:37.000Z</time>
      </trkpt>
      <trkpt lat="45.12609" lon="5.77233">
        <ele>412.85</ele>
        <time>2019-08-19T14:22:42.000Z</time>
      </trkpt>
      <trkpt lat="45.12591" lon="5.77218">
        <ele>410.58</ele>
        <time>2019-08-19T14:22:47.000Z</time>
      </trkpt>
      <trkpt lat="45.12576" lon="5.77202">
        <ele>411.72</ele>
        <time>2019-08-19T14:22:52.000Z</time>
      </trkpt>
      <trkpt lat="45.12564" lon="5.77179">
        <ele>410.93</ele>
        <time>2019-08-19T14:22:57.000Z</time>
      </trkpt>
      <trkpt lat="45.12561" lon="5.77152">
        <ele>408.95</ele>
        <time>2019-08-19T14:23:02.000Z</time>
      </trkpt>
      <trkpt lat="45.12558" lon="5.77126">
        <ele>412.1</ele>
        <time>2019-08-19T14:23:07.000Z</time>
      </trkpt>
      <trkpt lat="45.12554" lon="5.771">
        <ele>413.7</ele>
        <time>2019-08-19T14:23:12.000Z</time>
      </trkpt>
      <trkpt lat="45.12549" lon="5.77074">
        <ele>418.78</ele>
        <time>2019-08-19T14:23:17.000Z</time>
      </trkpt>
      <trkpt lat="45.12546" lon="5.77046">
        <ele>418.31</ele>
        <time>2019-08-19T14:23:22.000Z</time>
      </trkpt>
      <trkpt lat="45.12541" lon="5.77019">
        <ele>420.75</ele>
        <time>2019-08-19T14:23:27.000Z</time>
      </trkpt>
      <trkpt lat="45.1253" lon="5.76995">
        <ele>421.38</ele>
        <time>2019-08-19T14:23:32.000Z</time>
      </trkpt>
      <trkpt lat="45.12525" lon="5.76967">
        <ele>420.32</ele>
        <time>2019-08-19T14:23:37.000Z</time>
      </trkpt>
      <trkpt lat="45.12525" lon="5.76939">
        <ele>418.59</ele>
        <time>2019-08-19T14:23:42.000Z</time>
      </trkpt>
      <trkpt lat="45.12526" lon="5.76915">
        <ele>416.77</ele>
        <time>2019-08-19T14:23:47.000Z</time>
      </trkpt>
      <trkpt lat="45.12527" lon="5.76893">
        <ele>417.49</ele>
        <time>2019-08-19T14:23:52.000Z</time>
      </trkpt>
      <trkpt lat="45.1252" lon="5.76878">
        <ele>420.3</ele>
        <time>2019-08-19T14:23:57.000Z</time>
      </trkpt>
      <trkpt lat="45.12512" lon="5.76861">
        <ele>421.97</ele>
        <time>2019-08-19T14:24:02.000Z</time>
      </trkpt>
      <trkpt lat="45.12502" lon="5.76847">
        <ele>421.58</ele>
        <time>2019-08-19T14:24:07.000Z</time>
      </trkpt>
      <trkpt lat="45.12493" lon="5.76827">
        <ele>424.1</ele>
        <time>2019-08-19T14:24:12.000Z</time>
      </trkpt>
      <trkpt lat="45.12483" lon="5.76804">
        <ele>428.77</ele>
        <time>2019-08-19T14:24:17.000Z</time>
      </trkpt>
      <trkpt lat="45.12475" lon="5.76782">
        <ele>429.18</ele>
        <time>2019-08-19T14:24:22.000Z</time>
      </trkpt>
      <trkpt lat="45.12465" lon="5.7676">
        <ele>426.3</ele>
        <time>2019-08-19T14:24:27.000Z</time>
      </trkpt>
      <trkpt lat="45.12454" lon="5.76738">
        <ele>426.94</ele>
        <time>2019-08-19T14:24:32.000Z</time>
      </trkpt>
      <trkpt lat="45.12438" lon="5.76718">
        <ele>427.35</ele>
        <time>2019-08-19T14:24:37.000Z</time>
      </trkpt>
      <trkpt lat="45.12423" lon="5.76702">
        <ele>433.33</ele>
        <time>2019-08-19T14:24:42.000Z</time>
      </trkpt>
      <trkpt lat="45.12412" lon="5.76694">
        <ele>435.5</ele>
        <time>2019-08-19T14:24:47.000Z</time>
      </trkpt>
      <trkpt lat="45.12401" lon="5.76679">
        <ele>436.37</ele>
        <time>2019-08-19T14:24:52.000Z</time>
      </trkpt>
      <trkpt lat="45.1239" lon="5.76658">
        <ele>436.98</ele>
        <time>2019-08-19T14:24:57.000Z</time>
      </trkpt>
      <trkpt lat="45.12378" lon="5.76637">
        <ele>435.82</ele>
        <time>2019-08-19T14:25:02.000Z</time>
      </trkpt>
      <trkpt lat="45.12365" lon="5.7662">
        <ele>436.68</ele>
        <time>2019-08-19T14:25:07.000Z</time>
      </trkpt>
      <trkpt lat="45.12354" lon="5.76602">
        <ele>436.67</ele>
        <time>2019-08-19T14:25:12.000Z</time>
      </trkpt>
      <trkpt lat="45.12343" lon="5.7658">
        <ele>438.06</ele>
        <time>2019-08-19T14:25:17.000Z</time>
      </trkpt>
      <trkpt lat="45.12328" lon="5.7656">
        <ele>438.19</ele>
        <time>2019-08-19T14:25:22.000Z</time>
      </trkpt>
      <trkpt lat="45.12313" lon="5.76537">
        <ele>436.79</ele>
        <time>2019-08-19T14:25:27.000Z</time>
      </trkpt>
      <trkpt lat="45.12299" lon="5.76516">
        <ele>437.85</ele>
        <time>2019-08-19T14:25:32.000Z</time>
      </trkpt>
      <trkpt lat="45.12289" lon="5.76503">
        <ele>440.71</ele>
        <time>2019-08-19T14:25:37.000Z</time>
      </trkpt>
      <trkpt lat="45.12273" lon="5.76497">
        <ele>442.61</ele>
        <time>2019-08-19T14:25:42.000Z</time>
      </trkpt>
      <trkpt lat="45.1226" lon="5.76488">
        <ele>442.63</ele>
        <time>2019-08-19T14:25:47.000Z</time>
      </trkpt>
      <trkpt lat="45.12252" lon="5.76483">
        <ele>443.44</ele>
        <time>2019-08-19T14:27:00.000Z</time>
      </trkpt>
      <trkpt lat="45.12235" lon="5.76469">
        <ele>444.29</ele>
        <time>2019-08-19T14:27:05.000Z</time>
      </trkpt>
      <trkpt lat="45.12216" lon="5.7646">
        <ele>443.14</ele>
        <time>2019-08-19T14:27:10.000Z</time>
      </trkpt>
      <trkpt lat="45.12198" lon="5.7645">
        <ele>442.78</ele>
        <time>2019-08-19T14:27:15.000Z</time>
      </trkpt>
      <trkpt lat="45.12181" lon="5.76444">
        <ele>442.02</ele>
        <time>2019-08-19T14:27:20.000Z</time>
      </trkpt>
      <trkpt lat="45.12158" lon="5.7643">
        <ele>441.49</ele>
        <time>2019-08-19T14:27:25.000Z</time>
      </trkpt>
      <trkpt lat="45.1213" lon="5.76416">
        <ele>439.92</ele>
        <time>2019-08-19T14:27:30.000Z</time>
      </trkpt>
      <trkpt lat="45.12101" lon="5.76405">
        <ele>440.49</ele>
        <time>2019-08-19T14:27:35.000Z</time>
      </trkpt>
      <trkpt lat="45.12061" lon="5.76391">
        <ele>439.17</ele>
        <time>2019-08-19T14:27:40.000Z</time>
      </trkpt>
      <trkpt lat="45.12022" lon="5.76362">
        <ele>435.07</ele>
        <time>2019-08-19T14:27:45.000Z</time>
      </trkpt>
      <trkpt lat="45.11995" lon="5.76348">
        <ele>431.22</ele>
        <time>2019-08-19T14:27:50.000Z</time>
      </trkpt>
      <trkpt lat="45.11967" lon="5.76331">
        <ele>433.08</ele>
        <time>2019-08-19T14:27:55.000Z</time>
      </trkpt>
      <trkpt lat="45.11929" lon="5.76329">
        <ele>430.89</ele>
        <time>2019-08-19T14:28:00.000Z</time>
      </trkpt>
      <trkpt lat="45.11891" lon="5.76338">
        <ele>422.35</ele>
        <time>2019-08-19T14:28:05.000Z</time>
      </trkpt>
      <trkpt lat="45.11862" lon="5.7633">
        <ele>419.65</ele>
        <time>2019-08-19T14:28:10.000Z</time>
      </trkpt>
      <trkpt lat="45.11846" lon="5.76303">
        <ele>420.74</ele>
        <time>2019-08-19T14:28:15.000Z</time>
      </trkpt>
      <trkpt lat="45.11831" lon="5.76283">
        <ele>417.98</ele>
        <time>2019-08-19T14:28:20.000Z</time>
      </trkpt>
      <trkpt lat="45.11828" lon="5.76262">
        <ele>420.2</ele>
        <time>2019-08-19T14:28:25.000Z</time>
      </trkpt>
      <trkpt lat="45.1182" lon="5.76249">
        <ele>421.96</ele>
        <time>2019-08-19T14:28:30.000Z</time>
      </trkpt>
      <trkpt lat="45.11813" lon="5.76235">
        <ele>422.5</ele>
        <time>2019-08-19T14:28:35.000Z</time>
      </trkpt>
      <trkpt lat="45.11792" lon="5.76218">
        <ele>417.84</ele>
        <time>2019-08-19T14:28:40.000Z</time>
      </trkpt>
      <trkpt lat="45.11762" lon="5.76205">
        <ele>412.06</ele>
        <time>2019-08-19T14:28:45.000Z</time>
      </trkpt>
      <trkpt lat="45.11734" lon="5.76194">
        <ele>407.99</ele>
        <time>2019-08-19T14:28:50.000Z</time>
      </trkpt>
      <trkpt lat="45.11709" lon="5.76179">
        <ele>405.31</ele>
        <time>2019-08-19T14:28:55.000Z</time>
      </trkpt>
      <trkpt lat="45.11687" lon="5.7616">
        <ele>403.85</ele>
        <time>2019-08-19T14:29:00.000Z</time>
      </trkpt>
      <trkpt lat="45.11665" lon="5.76144">
        <ele>403.55</ele>
        <time>2019-08-19T14:29:05.000Z</time>
      </trkpt>
      <trkpt lat="45.11648" lon="5.76129">
        <ele>404.7</ele>
        <time>2019-08-19T14:29:10.000Z</time>
      </trkpt>
      <trkpt lat="45.11626" lon="5.76123">
        <ele>404.19</ele>
        <time>2019-08-19T14:29:15.000Z</time>
      </trkpt>
      <trkpt lat="45.11599" lon="5.76109">
        <ele>401.64</ele>
        <time>2019-08-19T14:29:20.000Z</time>
      </trkpt>
      <trkpt lat="45.11573" lon="5.76088">
        <ele>400.48</ele>
        <time>2019-08-19T14:29:25.000Z</time>
      </trkpt>
      <trkpt lat="45.11556" lon="5.76078">
        <ele>400.76</ele>
        <time>2019-08-19T14:29:30.000Z</time>
      </trkpt>
      <trkpt lat="45.11553" lon="5.76065">
        <ele>401.02</ele>
        <time>2019-08-19T14:29:36.000Z</time>
      </trkpt>
      <trkpt lat="45.11563" lon="5.76035">
        <ele>401.28</ele>
        <time>2019-08-19T14:29:41.000Z</time>
      </trkpt>
      <trkpt lat="45.1157" lon="5.76004">
        <ele>399.24</ele>
        <time>2019-08-19T14:29:46.000Z</time>
      </trkpt>
      <trkpt lat="45.11586" lon="5.75987">
        <ele>396.94</ele>
        <time>2019-08-19T14:29:51.000Z</time>
      </trkpt>
      <trkpt lat="45.11609" lon="5.75993">
        <ele>396.77</ele>
        <time>2019-08-19T14:29:56.000Z</time>
      </trkpt>
      <trkpt lat="45.11634" lon="5.75995">
        <ele>393.67</ele>
        <time>2019-08-19T14:30:01.000Z</time>
      </trkpt>
      <trkpt lat="45.1166" lon="5.75992">
        <ele>390.96</ele>
        <time>2019-08-19T14:30:06.000Z</time>
      </trkpt>
      <trkpt lat="45.11689" lon="5.75999">
        <ele>391.17</ele>
        <time>2019-08-19T14:30:11.000Z</time>
      </trkpt>
      <trkpt lat="45.11717" lon="5.76011">
        <ele>392.28</ele>
        <time>2019-08-19T14:30:16.000Z</time>
      </trkpt>
      <trkpt lat="45.11741" lon="5.76025">
        <ele>388.7</ele>
        <time>2019-08-19T14:30:21.000Z</time>
      </trkpt>
      <trkpt lat="45.11766" lon="5.76027">
        <ele>387.91</ele>
        <time>2019-08-19T14:30:26.000Z</time>
      </trkpt>
      <trkpt lat="45.11791" lon="5.7603">
        <ele>386.17</ele>
        <time>2019-08-19T14:30:31.000Z</time>
      </trkpt>
      <trkpt lat="45.1182" lon="5.76029">
        <ele>386.15</ele>
        <time>2019-08-19T14:30:36.000Z</time>
      </trkpt>
      <trkpt lat="45.11849" lon="5.76027">
        <ele>390.9</ele>
        <time>2019-08-19T14:30:41.000Z</time>
      </trkpt>
      <trkpt lat="45.11871" lon="5.7602">
        <ele>389.47</ele>
        <time>2019-08-19T14:30:46.000Z</time>
      </trkpt>
      <trkpt lat="45.1189" lon="5.76011">
        <ele>386.29</ele>
        <time>2019-08-19T14:30:51.000Z</time>
      </trkpt>
      <trkpt lat="45.11914" lon="5.76002">
        <ele>385.5</ele>
        <time>2019-08-19T14:30:56.000Z</time>
      </trkpt>
      <trkpt lat="45.11946" lon="5.75996">
        <ele>386.32</ele>
        <time>2019-08-19T14:31:01.000Z</time>
      </trkpt>
      <trkpt lat="45.11975" lon="5.75985">
        <ele>386.55</ele>
        <time>2019-08-19T14:31:06.000Z</time>
      </trkpt>
      <trkpt lat="45.12007" lon="5.75983">
        <ele>385.37</ele>
        <time>2019-08-19T14:31:11.000Z</time>
      </trkpt>
      <trkpt lat="45.12031" lon="5.75977">
        <ele>379.12</ele>
        <time>2019-08-19T14:31:16.000Z</time>
      </trkpt>
      <trkpt lat="45.12061" lon="5.75965">
        <ele>381.08</ele>
        <time>2019-08-19T14:31:21.000Z</time>
      </trkpt>
      <trkpt lat="45.1209" lon="5.75964">
        <ele>380.26</ele>
        <time>2019-08-19T14:31:26.000Z</time>
      </trkpt>
      <trkpt lat="45.12125" lon="5.75973">
        <ele>379.52</ele>
        <time>2019-08-19T14:31:31.000Z</time>
      </trkpt>
      <trkpt lat="45.12164" lon="5.75975">
        <ele>378.68</ele>
        <time>2019-08-19T14:31:36.000Z</time>
      </trkpt>
      <trkpt lat="45.12204" lon="5.75973">
        <ele>378.6</ele>
        <time>2019-08-19T14:31:41.000Z</time>
      </trkpt>
      <trkpt lat="45.12242" lon="5.7598">
        <ele>373.03</ele>
        <time>2019-08-19T14:31:46.000Z</time>
      </trkpt>
      <trkpt lat="45.12278" lon="5.7599">
        <ele>370.78</ele>
        <time>2019-08-19T14:31:51.000Z</time>
      </trkpt>
      <trkpt lat="45.12318" lon="5.75989">
        <ele>366.49</ele>
        <time>2019-08-19T14:31:56.000Z</time>
      </trkpt>
      <trkpt lat="45.12352" lon="5.75985">
        <ele>367.61</ele>
        <time>2019-08-19T14:32:01.000Z</time>
      </trkpt>
      <trkpt lat="45.12381" lon="5.75989">
        <ele>368.91</ele>
        <time>2019-08-19T14:32:06.000Z</time>
      </trkpt>
      <trkpt lat="45.12407" lon="5.75992">
        <ele>369.44</ele>
        <time>2019-08-19T14:32:11.000Z</time>
      </trkpt>
      <trkpt lat="45.12437" lon="5.76008">
        <ele>369.27</ele>
        <time>2019-08-19T14:32:16.000Z</time>
      </trkpt>
      <trkpt lat="45.12466" lon="5.76027">
        <ele>369.39</ele>
        <time>2019-08-19T14:32:21.000Z</time>
      </trkpt>
      <trkpt lat="45.12492" lon="5.76045">
        <ele>367.34</ele>
        <time>2019-08-19T14:32:26.000Z</time>
      </trkpt>
      <trkpt lat="45.12515" lon="5.76063">
        <ele>366.58</ele>
        <time>2019-08-19T14:32:31.000Z</time>
      </trkpt>
      <trkpt lat="45.12541" lon="5.7608">
        <ele>366.95</ele>
        <time>2019-08-19T14:32:36.000Z</time>
      </trkpt>
      <trkpt lat="45.12574" lon="5.76088">
        <ele>367.4</ele>
        <time>2019-08-19T14:32:41.000Z</time>
      </trkpt>
      <trkpt lat="45.12606" lon="5.76109">
        <ele>369.59</ele>
        <time>2019-08-19T14:32:46.000Z</time>
      </trkpt>
      <trkpt lat="45.12639" lon="5.76132">
        <ele>365.51</ele>
        <time>2019-08-19T14:32:51.000Z</time>
      </trkpt>
      <trkpt lat="45.12672" lon="5.7617">
        <ele>359.23</ele>
        <time>2019-08-19T14:32:56.000Z</time>
      </trkpt>
      <trkpt lat="45.12711" lon="5.7621">
        <ele>353.83</ele>
        <time>2019-08-19T14:33:01.000Z</time>
      </trkpt>
      <trkpt lat="45.12747" lon="5.76243">
        <ele>352.48</ele>
        <time>2019-08-19T14:33:06.000Z</time>
      </trkpt>
      <trkpt lat="45.1278" lon="5.76274">
        <ele>356.86</ele>
        <time>2019-08-19T14:33:11.000Z</time>
      </trkpt>
      <trkpt lat="45.12806" lon="5.76305">
        <ele>359.84</ele>
        <time>2019-08-19T14:33:16.000Z</time>
      </trkpt>
      <trkpt lat="45.12828" lon="5.76329">
        <ele>363.17</ele>
        <time>2019-08-19T14:33:21.000Z</time>
      </trkpt>
      <trkpt lat="45.12843" lon="5.76346">
        <ele>364.25</ele>
        <time>2019-08-19T14:33:26.000Z</time>
      </trkpt>
      <trkpt lat="45.12867" lon="5.76331">
        <ele>363.7</ele>
        <time>2019-08-19T14:33:31.000Z</time>
      </trkpt>
      <trkpt lat="45.1288" lon="5.76296">
        <ele>363.15</ele>
        <time>2019-08-19T14:33:36.000Z</time>
      </trkpt>
      <trkpt lat="45.1287" lon="5.76254">
        <ele>364.67</ele>
        <time>2019-08-19T14:33:41.000Z</time>
      </trkpt>
      <trkpt lat="45.1286" lon="5.76213">
        <ele>363.7</ele>
        <time>2019-08-19T14:33:46.000Z</time>
      </trkpt>
      <trkpt lat="45.1285" lon="5.76175">
        <ele>363.9</ele>
        <time>2019-08-19T14:33:51.000Z</time>
      </trkpt>
      <trkpt lat="45.1284" lon="5.7613">
        <ele>365.6</ele>
        <time>2019-08-19T14:33:56.000Z</time>
      </trkpt>
      <trkpt lat="45.12834" lon="5.76085">
        <ele>366.45</ele>
        <time>2019-08-19T14:34:01.000Z</time>
      </trkpt>
      <trkpt lat="45.12834" lon="5.76036">
        <ele>363.08</ele>
        <time>2019-08-19T14:34:06.000Z</time>
      </trkpt>
      <trkpt lat="45.12844" lon="5.75999">
        <ele>364.5</ele>
        <time>2019-08-19T14:34:11.000Z</time>
      </trkpt>
      <trkpt lat="45.12856" lon="5.75948">
        <ele>363.09</ele>
        <time>2019-08-19T14:34:16.000Z</time>
      </trkpt>
      <trkpt lat="45.12859" lon="5.759">
        <ele>362.36</ele>
        <time>2019-08-19T14:34:21.000Z</time>
      </trkpt>
      <trkpt lat="45.12863" lon="5.75851">
        <ele>365.12</ele>
        <time>2019-08-19T14:34:26.000Z</time>
      </trkpt>
      <trkpt lat="45.12843" lon="5.75807">
        <ele>366.22</ele>
        <time>2019-08-19T14:34:31.000Z</time>
      </trkpt>
      <trkpt lat="45.12816" lon="5.75772">
        <ele>365.91</ele>
        <time>2019-08-19T14:34:36.000Z</time>
      </trkpt>
      <trkpt lat="45.12793" lon="5.7573">
        <ele>362.63</ele>
        <time>2019-08-19T14:34:41.000Z</time>
      </trkpt>
      <trkpt lat="45.12809" lon="5.75687">
        <ele>363.61</ele>
        <time>2019-08-19T14:34:46.000Z</time>
      </trkpt>
      <trkpt lat="45.12824" lon="5.75648">
        <ele>363.14</ele>
        <time>2019-08-19T14:34:51.000Z</time>
      </trkpt>
      <trkpt lat="45.1281" lon="5.75615">
        <ele>359.59</ele>
        <time>2019-08-19T14:34:56.000Z</time>
      </trkpt>
      <trkpt lat="45.12788" lon="5.75593">
        <ele>357.41</ele>
        <time>2019-08-19T14:35:01.000Z</time>
      </trkpt>
      <trkpt lat="45.1277" lon="5.75566">
        <ele>352.73</ele>
        <time>2019-08-19T14:35:06.000Z</time>
      </trkpt>
      <trkpt lat="45.12756" lon="5.75543">
        <ele>353.87</ele>
        <time>2019-08-19T14:35:11.000Z</time>
      </trkpt>
      <trkpt lat="45.1274" lon="5.75525">
        <ele>357.91</ele>
        <time>2019-08-19T14:35:16.000Z</time>
      </trkpt>
      <trkpt lat="45.12716" lon="5.75507">
        <ele>360.34</ele>
        <time>2019-08-19T14:35:21.000Z</time>
      </trkpt>
      <trkpt lat="45.12705" lon="5.75481">
        <ele>361.17</ele>
        <time>2019-08-19T14:35:26.000Z</time>
      </trkpt>
      <trkpt lat="45.1271" lon="5.75454">
        <ele>362.24</ele>
        <time>2019-08-19T14:35:31.000Z</time>
      </trkpt>
      <trkpt lat="45.12714" lon="5.75426">
        <ele>362.78</ele>
        <time>2019-08-19T14:35:36.000Z</time>
      </trkpt>
      <trkpt lat="45.12719" lon="5.75409">
        <ele>362.6</ele>
        <time>2019-08-19T14:35:41.000Z</time>
      </trkpt>
      <trkpt lat="45.12728" lon="5.75398">
        <ele>361.94</ele>
        <time>2019-08-19T14:35:46.000Z</time>
      </trkpt>
      <trkpt lat="45.12745" lon="5.75384">
        <ele>363.57</ele>
        <time>2019-08-19T14:35:51.000Z</time>
      </trkpt>
      <trkpt lat="45.12763" lon="5.75366">
        <ele>364.4</ele>
        <time>2019-08-19T14:35:56.000Z</time>
      </trkpt>
      <trkpt lat="45.12785" lon="5.75347">
        <ele>366.34</ele>
        <time>2019-08-19T14:36:01.000Z</time>
      </trkpt>
      <trkpt lat="45.12813" lon="5.75327">
        <ele>366.02</ele>
        <time>2019-08-19T14:36:06.000Z</time>
      </trkpt>
      <trkpt lat="45.12835" lon="5.75308">
        <ele>364.95</ele>
        <time>2019-08-19T14:36:11.000Z</time>
      </trkpt>
      <trkpt lat="45.12862" lon="5.75286">
        <ele>364.13</ele>
        <time>2019-08-19T14:36:16.000Z</time>
      </trkpt>
      <trkpt lat="45.12884" lon="5.75267">
        <ele>363.57</ele>
        <time>2019-08-19T14:36:21.000Z</time>
      </trkpt>
      <trkpt lat="45.12908" lon="5.75252">
        <ele>363.43</ele>
        <time>2019-08-19T14:36:26.000Z</time>
      </trkpt>
      <trkpt lat="45.12929" lon="5.75241">
        <ele>361.7</ele>
        <time>2019-08-19T14:36:31.000Z</time>
      </trkpt>
      <trkpt lat="45.12949" lon="5.75226">
        <ele>362.79</ele>
        <time>2019-08-19T14:36:36.000Z</time>
      </trkpt>
      <trkpt lat="45.12973" lon="5.75209">
        <ele>364.65</ele>
        <time>2019-08-19T14:36:41.000Z</time>
      </trkpt>
      <trkpt lat="45.12998" lon="5.75195">
        <ele>368</ele>
        <time>2019-08-19T14:36:46.000Z</time>
      </trkpt>
      <trkpt lat="45.13031" lon="5.75181">
        <ele>369.3</ele>
        <time>2019-08-19T14:36:51.000Z</time>
      </trkpt>
      <trkpt lat="45.13051" lon="5.75175">
        <ele>367.1</ele>
        <time>2019-08-19T14:36:56.000Z</time>
      </trkpt>
      <trkpt lat="45.13082" lon="5.75165">
        <ele>368.5</ele>
        <time>2019-08-19T14:37:01.000Z</time>
      </trkpt>
      <trkpt lat="45.13109" lon="5.75154">
        <ele>369.51</ele>
        <time>2019-08-19T14:37:06.000Z</time>
      </trkpt>
      <trkpt lat="45.13135" lon="5.75136">
        <ele>369.45</ele>
        <time>2019-08-19T14:37:11.000Z</time>
      </trkpt>
      <trkpt lat="45.13162" lon="5.75128">
        <ele>368.53</ele>
        <time>2019-08-19T14:37:16.000Z</time>
      </trkpt>
      <trkpt lat="45.13188" lon="5.75109">
        <ele>369.32</ele>
        <time>2019-08-19T14:37:21.000Z</time>
      </trkpt>
      <trkpt lat="45.1322" lon="5.75092">
        <ele>367.68</ele>
        <time>2019-08-19T14:37:26.000Z</time>
      </trkpt>
      <trkpt lat="45.13249" lon="5.75074">
        <ele>365.99</ele>
        <time>2019-08-19T14:37:31.000Z</time>
      </trkpt>
      <trkpt lat="45.1329" lon="5.75047">
        <ele>365.58</ele>
        <time>2019-08-19T14:37:39.000Z</time>
      </trkpt>
      <trkpt lat="45.13309" lon="5.7503">
        <ele>364.5</ele>
        <time>2019-08-19T14:37:44.000Z</time>
      </trkpt>
      <trkpt lat="45.13314" lon="5.75019">
        <ele>362.42</ele>
        <time>2019-08-19T14:37:54.000Z</time>
      </trkpt>
      <trkpt lat="45.13323" lon="5.75018">
        <ele>356.53</ele>
        <time>2019-08-19T14:38:01.000Z</time>
      </trkpt>
      <trkpt lat="45.13332" lon="5.75012">
        <ele>354.18</ele>
        <time>2019-08-19T14:38:09.000Z</time>
      </trkpt>
      <trkpt lat="45.13352" lon="5.74995">
        <ele>350.1</ele>
        <time>2019-08-19T14:38:15.000Z</time>
      </trkpt>
      <trkpt lat="45.13387" lon="5.74983">
        <ele>347.99</ele>
        <time>2019-08-19T14:38:20.000Z</time>
      </trkpt>
      <trkpt lat="45.1341" lon="5.74975">
        <ele>339.59</ele>
        <time>2019-08-19T14:38:25.000Z</time>
      </trkpt>
      <trkpt lat="45.1343" lon="5.74977">
        <ele>336.34</ele>
        <time>2019-08-19T14:38:30.000Z</time>
      </trkpt>
      <trkpt lat="45.13407" lon="5.75004">
        <ele>330.71</ele>
        <time>2019-08-19T14:38:35.000Z</time>
      </trkpt>
      <trkpt lat="45.13406" lon="5.75042">
        <ele>330.03</ele>
        <time>2019-08-19T14:38:40.000Z</time>
      </trkpt>
      <trkpt lat="45.13418" lon="5.75082">
        <ele>329.94</ele>
        <time>2019-08-19T14:38:45.000Z</time>
      </trkpt>
      <trkpt lat="45.13445" lon="5.75067">
        <ele>322.38</ele>
        <time>2019-08-19T14:38:50.000Z</time>
      </trkpt>
      <trkpt lat="45.13473" lon="5.75031">
        <ele>319.54</ele>
        <time>2019-08-19T14:38:55.000Z</time>
      </trkpt>
      <trkpt lat="45.1349" lon="5.74991">
        <ele>314.81</ele>
        <time>2019-08-19T14:39:00.000Z</time>
      </trkpt>
      <trkpt lat="45.13499" lon="5.7495">
        <ele>310.92</ele>
        <time>2019-08-19T14:39:05.000Z</time>
      </trkpt>
      <trkpt lat="45.13521" lon="5.74934">
        <ele>309.71</ele>
        <time>2019-08-19T14:39:10.000Z</time>
      </trkpt>
      <trkpt lat="45.13549" lon="5.74928">
        <ele>304.7</ele>
        <time>2019-08-19T14:39:15.000Z</time>
      </trkpt>
      <trkpt lat="45.13581" lon="5.74923">
        <ele>297.76</ele>
        <time>2019-08-19T14:39:20.000Z</time>
      </trkpt>
      <trkpt lat="45.13608" lon="5.7491">
        <ele>294.51</ele>
        <time>2019-08-19T14:39:25.000Z</time>
      </trkpt>
      <trkpt lat="45.13631" lon="5.74881">
        <ele>293.33</ele>
        <time>2019-08-19T14:39:30.000Z</time>
      </trkpt>
      <trkpt lat="45.13656" lon="5.74867">
        <ele>290.48</ele>
        <time>2019-08-19T14:39:35.000Z</time>
      </trkpt>
      <trkpt lat="45.1369" lon="5.74867">
        <ele>284.02</ele>
        <time>2019-08-19T14:39:40.000Z</time>
      </trkpt>
      <trkpt lat="45.13721" lon="5.74871">
        <ele>281.21</ele>
        <time>2019-08-19T14:39:45.000Z</time>
      </trkpt>
      <trkpt lat="45.13741" lon="5.74858">
        <ele>278.36</ele>
        <time>2019-08-19T14:39:50.000Z</time>
      </trkpt>
      <trkpt lat="45.13755" lon="5.74836">
        <ele>276.54</ele>
        <time>2019-08-19T14:39:55.000Z</time>
      </trkpt>
      <trkpt lat="45.13776" lon="5.74829">
        <ele>271.4</ele>
        <time>2019-08-19T14:40:00.000Z</time>
      </trkpt>
      <trkpt lat="45.13787" lon="5.74834">
        <ele>269.31</ele>
        <time>2019-08-19T14:40:06.000Z</time>
      </trkpt>
      <trkpt lat="45.13794" lon="5.7486">
        <ele>268.13</ele>
        <time>2019-08-19T14:40:11.000Z</time>
      </trkpt>
      <trkpt lat="45.13784" lon="5.74897">
        <ele>264.91</ele>
        <time>2019-08-19T14:40:16.000Z</time>
      </trkpt>
      <trkpt lat="45.13783" lon="5.74933">
        <ele>261.68</ele>
        <time>2019-08-19T14:40:21.000Z</time>
      </trkpt>
      <trkpt lat="45.13802" lon="5.74969">
        <ele>259.23</ele>
        <time>2019-08-19T14:40:26.000Z</time>
      </trkpt>
      <trkpt lat="45.1382" lon="5.75004">
        <ele>261.08</ele>
        <time>2019-08-19T14:40:31.000Z</time>
      </trkpt>
      <trkpt lat="45.13845" lon="5.75032">
        <ele>261.81</ele>
        <time>2019-08-19T14:40:36.000Z</time>
      </trkpt>
      <trkpt lat="45.13873" lon="5.75056">
        <ele>261.19</ele>
        <time>2019-08-19T14:40:41.000Z</time>
      </trkpt>
      <trkpt lat="45.13906" lon="5.7507">
        <ele>260.38</ele>
        <time>2019-08-19T14:40:46.000Z</time>
      </trkpt>
      <trkpt lat="45.13938" lon="5.75064">
        <ele>259.77</ele>
        <time>2019-08-19T14:40:51.000Z</time>
      </trkpt>
      <trkpt lat="45.13971" lon="5.75056">
        <ele>259.86</ele>
        <time>2019-08-19T14:40:56.000Z</time>
      </trkpt>
      <trkpt lat="45.14008" lon="5.75042">
        <ele>258.2</ele>
        <time>2019-08-19T14:41:01.000Z</time>
      </trkpt>
      <trkpt lat="45.14043" lon="5.75024">
        <ele>256.63</ele>
        <time>2019-08-19T14:41:06.000Z</time>
      </trkpt>
      <trkpt lat="45.14075" lon="5.75006">
        <ele>257.43</ele>
        <time>2019-08-19T14:41:11.000Z</time>
      </trkpt>
      <trkpt lat="45.14107" lon="5.74988">
        <ele>256.35</ele>
        <time>2019-08-19T14:41:16.000Z</time>
      </trkpt>
      <trkpt lat="45.14139" lon="5.74972">
        <ele>255.88</ele>
        <time>2019-08-19T14:41:21.000Z</time>
      </trkpt>
      <trkpt lat="45.14165" lon="5.74951">
        <ele>255.53</ele>
        <time>2019-08-19T14:41:26.000Z</time>
      </trkpt>
      <trkpt lat="45.14188" lon="5.74933">
        <ele>255.84</ele>
        <time>2019-08-19T14:41:31.000Z</time>
      </trkpt>
      <trkpt lat="45.14215" lon="5.74919">
        <ele>256.09</ele>
        <time>2019-08-19T14:41:36.000Z</time>
      </trkpt>
      <trkpt lat="45.14241" lon="5.74904">
        <ele>255.46</ele>
        <time>2019-08-19T14:41:41.000Z</time>
      </trkpt>
      <trkpt lat="45.14269" lon="5.74896">
        <ele>255.17</ele>
        <time>2019-08-19T14:41:46.000Z</time>
      </trkpt>
      <trkpt lat="45.143" lon="5.7489">
        <ele>253.25</ele>
        <time>2019-08-19T14:41:51.000Z</time>
      </trkpt>
      <trkpt lat="45.14328" lon="5.74879">
        <ele>253.36</ele>
        <time>2019-08-19T14:41:56.000Z</time>
      </trkpt>
      <trkpt lat="45.14356" lon="5.74873">
        <ele>251.82</ele>
        <time>2019-08-19T14:42:01.000Z</time>
      </trkpt>
      <trkpt lat="45.14382" lon="5.74868">
        <ele>250.96</ele>
        <time>2019-08-19T14:42:06.000Z</time>
      </trkpt>
      <trkpt lat="45.14408" lon="5.74863">
        <ele>251.5</ele>
        <time>2019-08-19T14:42:11.000Z</time>
      </trkpt>
      <trkpt lat="45.14433" lon="5.74856">
        <ele>253.86</ele>
        <time>2019-08-19T14:42:16.000Z</time>
      </trkpt>
      <trkpt lat="45.14456" lon="5.74851">
        <ele>254.16</ele>
        <time>2019-08-19T14:42:21.000Z</time>
      </trkpt>
      <trkpt lat="45.14478" lon="5.74849">
        <ele>254.64</ele>
        <time>2019-08-19T14:42:26.000Z</time>
      </trkpt>
      <trkpt lat="45.14502" lon="5.74847">
        <ele>253.2</ele>
        <time>2019-08-19T14:42:31.000Z</time>
      </trkpt>
      <trkpt lat="45.1453" lon="5.74844">
        <ele>253.74</ele>
        <time>2019-08-19T14:42:36.000Z</time>
      </trkpt>
      <trkpt lat="45.14554" lon="5.74834">
        <ele>252.93</ele>
        <time>2019-08-19T14:42:41.000Z</time>
      </trkpt>
      <trkpt lat="45.14577" lon="5.74825">
        <ele>252.46</ele>
        <time>2019-08-19T14:42:46.000Z</time>
      </trkpt>
      <trkpt lat="45.146" lon="5.74812">
        <ele>252.64</ele>
        <time>2019-08-19T14:42:51.000Z</time>
      </trkpt>
      <trkpt lat="45.14622" lon="5.7479">
        <ele>252</ele>
        <time>2019-08-19T14:42:56.000Z</time>
      </trkpt>
      <trkpt lat="45.1465" lon="5.74773">
        <ele>249.37</ele>
        <time>2019-08-19T14:43:01.000Z</time>
      </trkpt>
      <trkpt lat="45.14684" lon="5.74767">
        <ele>247.67</ele>
        <time>2019-08-19T14:43:06.000Z</time>
      </trkpt>
      <trkpt lat="45.14722" lon="5.74786">
        <ele>244.82</ele>
        <time>2019-08-19T14:43:11.000Z</time>
      </trkpt>
      <trkpt lat="45.14731" lon="5.74839">
        <ele>247.15</ele>
        <time>2019-08-19T14:43:16.000Z</time>
      </trkpt>
      <trkpt lat="45.14715" lon="5.74891">
        <ele>246.62</ele>
        <time>2019-08-19T14:43:21.000Z</time>
      </trkpt>
      <trkpt lat="45.14712" lon="5.74929">
        <ele>246.22</ele>
        <time>2019-08-19T14:43:26.000Z</time>
      </trkpt>
      <trkpt lat="45.14724" lon="5.74958">
        <ele>245.03</ele>
        <time>2019-08-19T14:43:31.000Z</time>
      </trkpt>
      <trkpt lat="45.14729" lon="5.74993">
        <ele>241.62</ele>
        <time>2019-08-19T14:43:36.000Z</time>
      </trkpt>
      <trkpt lat="45.14729" lon="5.75023">
        <ele>236.07</ele>
        <time>2019-08-19T14:43:41.000Z</time>
      </trkpt>
      <trkpt lat="45.1473" lon="5.7506">
        <ele>234.9</ele>
        <time>2019-08-19T14:43:46.000Z</time>
      </trkpt>
      <trkpt lat="45.14731" lon="5.75092">
        <ele>236.97</ele>
        <time>2019-08-19T14:43:51.000Z</time>
      </trkpt>
      <trkpt lat="45.14733" lon="5.75113">
        <ele>236.64</ele>
        <time>2019-08-19T14:43:56.000Z</time>
      </trkpt>
      <trkpt lat="45.14727" lon="5.75126">
        <ele>235.33</ele>
        <time>2019-08-19T14:44:09.000Z</time>
      </trkpt>
      <trkpt lat="45.14728" lon="5.75145">
        <ele>237.05</ele>
        <time>2019-08-19T14:44:14.000Z</time>
      </trkpt>
      <trkpt lat="45.14744" lon="5.75134">
        <ele>237.63</ele>
        <time>2019-08-19T14:44:19.000Z</time>
      </trkpt>
      <trkpt lat="45.14759" lon="5.75125">
        <ele>237.32</ele>
        <time>2019-08-19T14:44:24.000Z</time>
      </trkpt>
      <trkpt lat="45.14776" lon="5.75117">
        <ele>238.52</ele>
        <time>2019-08-19T14:44:29.000Z</time>
      </trkpt>
      <trkpt lat="45.14792" lon="5.7511">
        <ele>240.14</ele>
        <time>2019-08-19T14:44:34.000Z</time>
      </trkpt>
      <trkpt lat="45.14807" lon="5.75106">
        <ele>236.87</ele>
        <time>2019-08-19T14:44:39.000Z</time>
      </trkpt>
      <trkpt lat="45.14816" lon="5.75105">
        <ele>238.92</ele>
        <time>2019-08-19T14:44:54.000Z</time>
      </trkpt>
      <trkpt lat="45.14837" lon="5.751">
        <ele>235.89</ele>
        <time>2019-08-19T14:44:59.000Z</time>
      </trkpt>
      <trkpt lat="45.1486" lon="5.75086">
        <ele>237.66</ele>
        <time>2019-08-19T14:45:04.000Z</time>
      </trkpt>
      <trkpt lat="45.1489" lon="5.75067">
        <ele>237.22</ele>
        <time>2019-08-19T14:45:09.000Z</time>
      </trkpt>
      <trkpt lat="45.14925" lon="5.75048">
        <ele>236.15</ele>
        <time>2019-08-19T14:45:14.000Z</time>
      </trkpt>
      <trkpt lat="45.14964" lon="5.75034">
        <ele>240.6</ele>
        <time>2019-08-19T14:45:19.000Z</time>
      </trkpt>
      <trkpt lat="45.15" lon="5.75016">
        <ele>238.65</ele>
        <time>2019-08-19T14:45:24.000Z</time>
      </trkpt>
      <trkpt lat="45.1503" lon="5.74996">
        <ele>239.68</ele>
        <time>2019-08-19T14:45:29.000Z</time>
      </trkpt>
      <trkpt lat="45.15062" lon="5.74982">
        <ele>235.58</ele>
        <time>2019-08-19T14:45:34.000Z</time>
      </trkpt>
      <trkpt lat="45.15092" lon="5.74963">
        <ele>233.08</ele>
        <time>2019-08-19T14:45:39.000Z</time>
      </trkpt>
      <trkpt lat="45.15125" lon="5.74951">
        <ele>228.9</ele>
        <time>2019-08-19T14:45:44.000Z</time>
      </trkpt>
      <trkpt lat="45.1516" lon="5.74933">
        <ele>228.06</ele>
        <time>2019-08-19T14:45:49.000Z</time>
      </trkpt>
      <trkpt lat="45.15194" lon="5.74918">
        <ele>225.92</ele>
        <time>2019-08-19T14:45:54.000Z</time>
      </trkpt>
      <trkpt lat="45.15219" lon="5.74908">
        <ele>225.18</ele>
        <time>2019-08-19T14:45:59.000Z</time>
      </trkpt>
      <trkpt lat="45.15231" lon="5.74901">
        <ele>226.54</ele>
        <time>2019-08-19T14:46:04.000Z</time>
      </trkpt>
      <trkpt lat="45.15239" lon="5.74897">
        <ele>229.16</ele>
        <time>2019-08-19T14:48:07.000Z</time>
      </trkpt>
      <trkpt lat="45.15248" lon="5.74892">
        <ele>230.06</ele>
        <time>2019-08-19T14:48:12.000Z</time>
      </trkpt>
      <trkpt lat="45.15263" lon="5.74885">
        <ele>228.54</ele>
        <time>2019-08-19T14:48:17.000Z</time>
      </trkpt>
      <trkpt lat="45.15276" lon="5.74888">
        <ele>228.53</ele>
        <time>2019-08-19T14:48:22.000Z</time>
      </trkpt>
      <trkpt lat="45.15285" lon="5.74908">
        <ele>225.92</ele>
        <time>2019-08-19T14:48:27.000Z</time>
      </trkpt>
      <trkpt lat="45.15297" lon="5.74929">
        <ele>225.63</ele>
        <time>2019-08-19T14:48:32.000Z</time>
      </trkpt>
      <trkpt lat="45.15311" lon="5.74951">
        <ele>225.64</ele>
        <time>2019-08-19T14:48:37.000Z</time>
      </trkpt>
      <trkpt lat="45.15328" lon="5.74976">
        <ele>225.89</ele>
        <time>2019-08-19T14:48:42.000Z</time>
      </trkpt>
      <trkpt lat="45.15346" lon="5.74989">
        <ele>223.15</ele>
        <time>2019-08-19T14:48:47.000Z</time>
      </trkpt>
      <trkpt lat="45.15356" lon="5.75009">
        <ele>222.43</ele>
        <time>2019-08-19T14:48:52.000Z</time>
      </trkpt>
      <trkpt lat="45.15365" lon="5.75026">
        <ele>222.19</ele>
        <time>2019-08-19T14:48:57.000Z</time>
      </trkpt>
      <trkpt lat="45.15374" lon="5.75052">
        <ele>220.71</ele>
        <time>2019-08-19T14:49:02.000Z</time>
      </trkpt>
      <trkpt lat="45.15382" lon="5.75082">
        <ele>221.51</ele>
        <time>2019-08-19T14:49:07.000Z</time>
      </trkpt>
      <trkpt lat="45.15386" lon="5.75114">
        <ele>222.37</ele>
        <time>2019-08-19T14:49:12.000Z</time>
      </trkpt>
      <trkpt lat="45.15393" lon="5.75143">
        <ele>219.3</ele>
        <time>2019-08-19T14:49:17.000Z</time>
      </trkpt>
      <trkpt lat="45.15411" lon="5.75168">
        <ele>219.1</ele>
        <time>2019-08-19T14:49:22.000Z</time>
      </trkpt>
      <trkpt lat="45.15429" lon="5.75198">
        <ele>216.11</ele>
        <time>2019-08-19T14:49:27.000Z</time>
      </trkpt>
      <trkpt lat="45.15452" lon="5.75221">
        <ele>217.96</ele>
        <time>2019-08-19T14:49:32.000Z</time>
      </trkpt>
      <trkpt lat="45.15468" lon="5.75249">
        <ele>218.28</ele>
        <time>2019-08-19T14:49:37.000Z</time>
      </trkpt>
      <trkpt lat="45.15487" lon="5.75275">
        <ele>216.76</ele>
        <time>2019-08-19T14:49:42.000Z</time>
      </trkpt>
      <trkpt lat="45.15509" lon="5.75296">
        <ele>214.91</ele>
        <time>2019-08-19T14:49:47.000Z</time>
      </trkpt>
      <trkpt lat="45.15523" lon="5.75321">
        <ele>215.16</ele>
        <time>2019-08-19T14:49:52.000Z</time>
      </trkpt>
      <trkpt lat="45.15538" lon="5.75344">
        <ele>216.59</ele>
        <time>2019-08-19T14:49:57.000Z</time>
      </trkpt>
      <trkpt lat="45.15553" lon="5.75367">
        <ele>216.89</ele>
        <time>2019-08-19T14:50:02.000Z</time>
      </trkpt>
      <trkpt lat="45.15569" lon="5.75394">
        <ele>219.63</ele>
        <time>2019-08-19T14:50:07.000Z</time>
      </trkpt>
      <trkpt lat="45.15585" lon="5.75418">
        <ele>221.34</ele>
        <time>2019-08-19T14:50:12.000Z</time>
      </trkpt>
      <trkpt lat="45.15601" lon="5.75447">
        <ele>223.35</ele>
        <time>2019-08-19T14:50:17.000Z</time>
      </trkpt>
      <trkpt lat="45.15619" lon="5.75471">
        <ele>222.14</ele>
        <time>2019-08-19T14:50:22.000Z</time>
      </trkpt>
      <trkpt lat="45.15637" lon="5.75497">
        <ele>221.95</ele>
        <time>2019-08-19T14:50:27.000Z</time>
      </trkpt>
      <trkpt lat="45.15652" lon="5.75523">
        <ele>219.75</ele>
        <time>2019-08-19T14:50:32.000Z</time>
      </trkpt>
      <trkpt lat="45.15667" lon="5.75555">
        <ele>220.08</ele>
        <time>2019-08-19T14:50:37.000Z</time>
      </trkpt>
      <trkpt lat="45.15682" lon="5.75583">
        <ele>218.93</ele>
        <time>2019-08-19T14:50:42.000Z</time>
      </trkpt>
      <trkpt lat="45.15695" lon="5.75608">
        <ele>215.75</ele>
        <time>2019-08-19T14:50:47.000Z</time>
      </trkpt>
      <trkpt lat="45.15713" lon="5.75641">
        <ele>218.31</ele>
        <time>2019-08-19T14:50:52.000Z</time>
      </trkpt>
      <trkpt lat="45.15733" lon="5.75669">
        <ele>216.79</ele>
        <time>2019-08-19T14:50:57.000Z</time>
      </trkpt>
      <trkpt lat="45.15749" lon="5.75697">
        <ele>215.31</ele>
        <time>2019-08-19T14:51:02.000Z</time>
      </trkpt>
      <trkpt lat="45.15765" lon="5.75727">
        <ele>216.24</ele>
        <time>2019-08-19T14:51:07.000Z</time>
      </trkpt>
      <trkpt lat="45.15781" lon="5.75757">
        <ele>217.39</ele>
        <time>2019-08-19T14:51:12.000Z</time>
      </trkpt>
      <trkpt lat="45.15795" lon="5.75781">
        <ele>216.31</ele>
        <time>2019-08-19T14:51:17.000Z</time>
      </trkpt>
      <trkpt lat="45.1581" lon="5.75798">
        <ele>216.14</ele>
        <time>2019-08-19T14:51:22.000Z</time>
      </trkpt>
      <trkpt lat="45.15821" lon="5.75818">
        <ele>212.91</ele>
        <time>2019-08-19T14:51:27.000Z</time>
      </trkpt>
      <trkpt lat="45.15833" lon="5.75837">
        <ele>214.45</ele>
        <time>2019-08-19T14:51:32.000Z</time>
      </trkpt>
      <trkpt lat="45.15845" lon="5.75865">
        <ele>215.51</ele>
        <time>2019-08-19T14:51:37.000Z</time>
      </trkpt>
      <trkpt lat="45.15858" lon="5.75885">
        <ele>213.08</ele>
        <time>2019-08-19T14:51:42.000Z</time>
      </trkpt>
      <trkpt lat="45.15873" lon="5.75891">
        <ele>214.88</ele>
        <time>2019-08-19T14:51:47.000Z</time>
      </trkpt>
      <trkpt lat="45.15879" lon="5.75902">
        <ele>214.79</ele>
        <time>2019-08-19T14:51:53.000Z</time>
      </trkpt>
      <trkpt lat="45.15883" lon="5.75924">
        <ele>217.66</ele>
        <time>2019-08-19T14:51:58.000Z</time>
      </trkpt>
      <trkpt lat="45.15896" lon="5.75943">
        <ele>218.17</ele>
        <time>2019-08-19T14:52:03.000Z</time>
      </trkpt>
      <trkpt lat="45.1591" lon="5.7596">
        <ele>218.19</ele>
        <time>2019-08-19T14:52:08.000Z</time>
      </trkpt>
      <trkpt lat="45.15919" lon="5.7597">
        <ele>219.66</ele>
        <time>2019-08-19T14:52:13.000Z</time>
      </trkpt>
      <trkpt lat="45.1593" lon="5.7598">
        <ele>220.14</ele>
        <time>2019-08-19T14:52:18.000Z</time>
      </trkpt>
      <trkpt lat="45.15942" lon="5.75996">
        <ele>219.87</ele>
        <time>2019-08-19T14:52:23.000Z</time>
      </trkpt>
      <trkpt lat="45.15954" lon="5.76013">
        <ele>223.13</ele>
        <time>2019-08-19T14:52:28.000Z</time>
      </trkpt>
      <trkpt lat="45.15966" lon="5.7603">
        <ele>223.08</ele>
        <time>2019-08-19T14:52:33.000Z</time>
      </trkpt>
      <trkpt lat="45.15982" lon="5.76048">
        <ele>222.16</ele>
        <time>2019-08-19T14:52:38.000Z</time>
      </trkpt>
      <trkpt lat="45.15999" lon="5.76068">
        <ele>223.96</ele>
        <time>2019-08-19T14:52:43.000Z</time>
      </trkpt>
      <trkpt lat="45.16018" lon="5.76091">
        <ele>223.59</ele>
        <time>2019-08-19T14:52:48.000Z</time>
      </trkpt>
      <trkpt lat="45.16041" lon="5.76106">
        <ele>218.99</ele>
        <time>2019-08-19T14:52:53.000Z</time>
      </trkpt>
      <trkpt lat="45.16053" lon="5.76108">
        <ele>220.89</ele>
        <time>2019-08-19T14:52:58.000Z</time>
      </trkpt>
      <trkpt lat="45.1606" lon="5.76127">
        <ele>217.29</ele>
        <time>2019-08-19T14:53:03.000Z</time>
      </trkpt>
      <trkpt lat="45.16075" lon="5.76144">
        <ele>218.38</ele>
        <time>2019-08-19T14:53:08.000Z</time>
      </trkpt>
      <trkpt lat="45.16095" lon="5.76157">
        <ele>214.72</ele>
        <time>2019-08-19T14:53:13.000Z</time>
      </trkpt>
      <trkpt lat="45.16118" lon="5.76178">
        <ele>213.79</ele>
        <time>2019-08-19T14:53:18.000Z</time>
      </trkpt>
      <trkpt lat="45.16138" lon="5.76194">
        <ele>213.74</ele>
        <time>2019-08-19T14:53:23.000Z</time>
      </trkpt>
      <trkpt lat="45.16161" lon="5.76208">
        <ele>212.6</ele>
        <time>2019-08-19T14:53:28.000Z</time>
      </trkpt>
      <trkpt lat="45.1617" lon="5.76209">
        <ele>219.13</ele>
        <time>2019-08-19T14:53:47.000Z</time>
      </trkpt>
      <trkpt lat="45.16182" lon="5.76221">
        <ele>219.45</ele>
        <time>2019-08-19T14:53:52.000Z</time>
      </trkpt>
      <trkpt lat="45.16198" lon="5.76236">
        <ele>220.4</ele>
        <time>2019-08-19T14:53:57.000Z</time>
      </trkpt>
      <trkpt lat="45.1621" lon="5.76235">
        <ele>222.47</ele>
        <time>2019-08-19T14:54:02.000Z</time>
      </trkpt>
      <trkpt lat="45.16219" lon="5.76245">
        <ele>219.13</ele>
        <time>2019-08-19T14:54:31.000Z</time>
      </trkpt>
      <trkpt lat="45.16235" lon="5.7625">
        <ele>220.66</ele>
        <time>2019-08-19T14:54:36.000Z</time>
      </trkpt>
      <trkpt lat="45.16245" lon="5.76226">
        <ele>221</ele>
        <time>2019-08-19T14:54:41.000Z</time>
      </trkpt>
      <trkpt lat="45.16265" lon="5.76205">
        <ele>221.32</ele>
        <time>2019-08-19T14:54:46.000Z</time>
      </trkpt>
      <trkpt lat="45.16285" lon="5.76183">
        <ele>222.78</ele>
        <time>2019-08-19T14:54:51.000Z</time>
      </trkpt>
      <trkpt lat="45.16305" lon="5.76164">
        <ele>222.27</ele>
        <time>2019-08-19T14:54:56.000Z</time>
      </trkpt>
      <trkpt lat="45.1633" lon="5.76146">
        <ele>221.65</ele>
        <time>2019-08-19T14:55:01.000Z</time>
      </trkpt>
      <trkpt lat="45.16354" lon="5.76119">
        <ele>222.06</ele>
        <time>2019-08-19T14:55:06.000Z</time>
      </trkpt>
      <trkpt lat="45.16382" lon="5.76095">
        <ele>218.95</ele>
        <time>2019-08-19T14:55:11.000Z</time>
      </trkpt>
      <trkpt lat="45.16403" lon="5.76068">
        <ele>221.29</ele>
        <time>2019-08-19T14:55:16.000Z</time>
      </trkpt>
      <trkpt lat="45.16426" lon="5.76039">
        <ele>219.41</ele>
        <time>2019-08-19T14:55:21.000Z</time>
      </trkpt>
      <trkpt lat="45.16448" lon="5.76017">
        <ele>217.13</ele>
        <time>2019-08-19T14:55:26.000Z</time>
      </trkpt>
      <trkpt lat="45.16465" lon="5.76019">
        <ele>218.56</ele>
        <time>2019-08-19T14:55:31.000Z</time>
      </trkpt>
      <trkpt lat="45.16479" lon="5.76045">
        <ele>216.62</ele>
        <time>2019-08-19T14:55:36.000Z</time>
      </trkpt>
      <trkpt lat="45.16492" lon="5.76078">
        <ele>218.1</ele>
        <time>2019-08-19T14:55:41.000Z</time>
      </trkpt>
      <trkpt lat="45.16508" lon="5.76103">
        <ele>220.94</ele>
        <time>2019-08-19T14:55:46.000Z</time>
      </trkpt>
      <trkpt lat="45.16527" lon="5.761">
        <ele>220.19</ele>
        <time>2019-08-19T14:55:51.000Z</time>
      </trkpt>
      <trkpt lat="45.16548" lon="5.76087">
        <ele>221.28</ele>
        <time>2019-08-19T14:55:56.000Z</time>
      </trkpt>
      <trkpt lat="45.16573" lon="5.76078">
        <ele>221.86</ele>
        <time>2019-08-19T14:56:01.000Z</time>
      </trkpt>
      <trkpt lat="45.16597" lon="5.76067">
        <ele>222.98</ele>
        <time>2019-08-19T14:56:06.000Z</time>
      </trkpt>
      <trkpt lat="45.16623" lon="5.76058">
        <ele>222.84</ele>
        <time>2019-08-19T14:56:11.000Z</time>
      </trkpt>
      <trkpt lat="45.1665" lon="5.7604">
        <ele>222.78</ele>
        <time>2019-08-19T14:56:16.000Z</time>
      </trkpt>
      <trkpt lat="45.16676" lon="5.76032">
        <ele>222.62</ele>
        <time>2019-08-19T14:56:21.000Z</time>
      </trkpt>
      <trkpt lat="45.16707" lon="5.76029">
        <ele>223.79</ele>
        <time>2019-08-19T14:56:26.000Z</time>
      </trkpt>
      <trkpt lat="45.16716" lon="5.76039">
        <ele>224.19</ele>
        <time>2019-08-19T14:56:31.000Z</time>
      </trkpt>
      <trkpt lat="45.1673" lon="5.76036">
        <ele>225.98</ele>
        <time>2019-08-19T14:56:36.000Z</time>
      </trkpt>
      <trkpt lat="45.16746" lon="5.76016">
        <ele>224.55</ele>
        <time>2019-08-19T14:56:41.000Z</time>
      </trkpt>
      <trkpt lat="45.16755" lon="5.76004">
        <ele>226.04</ele>
        <time>2019-08-19T14:56:46.000Z</time>
      </trkpt>
      <trkpt lat="45.16767" lon="5.75984">
        <ele>224.19</ele>
        <time>2019-08-19T14:56:51.000Z</time>
      </trkpt>
      <trkpt lat="45.16765" lon="5.75961">
        <ele>225.63</ele>
        <time>2019-08-19T14:56:56.000Z</time>
      </trkpt>
      <trkpt lat="45.16751" lon="5.75963">
        <ele>225.72</ele>
        <time>2019-08-19T14:57:01.000Z</time>
      </trkpt>
      <trkpt lat="45.16751" lon="5.75977">
        <ele>213.44</ele>
        <time>2019-08-19T14:59:17.000Z</time>
      </trkpt>
      <trkpt lat="45.16747" lon="5.75965">
        <ele>193.98</ele>
        <time>2019-08-19T15:07:53.000Z</time>
      </trkpt>
      <trkpt lat="45.16741" lon="5.75954">
        <ele>199.32</ele>
        <time>2019-08-19T15:08:05.000Z</time>
      </trkpt>
      <trkpt lat="45.16732" lon="5.75956">
        <ele>200.94</ele>
        <time>2019-08-19T15:08:10.000Z</time>
      </trkpt>
      <trkpt lat="45.16772" lon="5.75967">
        <ele>198.43</ele>
        <time>2019-08-19T15:08:15.000Z</time>
      </trkpt>
      <trkpt lat="45.1677" lon="5.75981">
        <ele>204.6</ele>
        <time>2019-08-19T15:08:28.000Z</time>
      </trkpt>
      <trkpt lat="45.16778" lon="5.75988">
        <ele>202.02</ele>
        <time>2019-08-19T15:08:45.000Z</time>
      </trkpt>
      <trkpt lat="45.16769" lon="5.75992">
        <ele>191.82</ele>
        <time>2019-08-19T15:09:04.000Z</time>
      </trkpt>
      <trkpt lat="45.1676" lon="5.75984">
        <ele>189.72</ele>
        <time>2019-08-19T15:09:11.000Z</time>
      </trkpt>
      <trkpt lat="45.16755" lon="5.75972">
        <ele>183.39</ele>
        <time>2019-08-19T15:09:18.000Z</time>
      </trkpt>
      <trkpt lat="45.16748" lon="5.75963">
        <ele>182.77</ele>
        <time>2019-08-19T15:09:28.000Z</time>
      </trkpt>
      <trkpt lat="45.16752" lon="5.75945">
        <ele>185.5</ele>
        <time>2019-08-19T15:09:33.000Z</time>
      </trkpt>
      <trkpt lat="45.16753" lon="5.75975">
        <ele>186.28</ele>
        <time>2019-08-19T15:09:38.000Z</time>
      </trkpt>
      <trkpt lat="45.16754" lon="5.75962">
        <ele>190.48</ele>
        <time>2019-08-19T15:09:45.000Z</time>
      </trkpt>
      <trkpt lat="45.16753" lon="5.75974">
        <ele>205.18</ele>
        <time>2019-08-19T15:10:45.000Z</time>
      </trkpt>
      <trkpt lat="45.16762" lon="5.75979">
        <ele>211.05</ele>
        <time>2019-08-19T15:15:12.000Z</time>
      </trkpt>
      <trkpt lat="45.16766" lon="5.75991">
        <ele>210.6</ele>
        <time>2019-08-19T15:15:18.000Z</time>
      </trkpt>
      <trkpt lat="45.16758" lon="5.76">
        <ele>212.13</ele>
        <time>2019-08-19T15:15:25.000Z</time>
      </trkpt>
      <trkpt lat="45.16751" lon="5.7601">
        <ele>214.47</ele>
        <time>2019-08-19T15:15:31.000Z</time>
      </trkpt>
      <trkpt lat="45.16742" lon="5.76016">
        <ele>221</ele>
        <time>2019-08-19T15:15:36.000Z</time>
      </trkpt>
      <trkpt lat="45.16732" lon="5.76028">
        <ele>220.99</ele>
        <time>2019-08-19T15:15:41.000Z</time>
      </trkpt>
      <trkpt lat="45.16726" lon="5.7604">
        <ele>221.47</ele>
        <time>2019-08-19T15:15:46.000Z</time>
      </trkpt>
      <trkpt lat="45.16727" lon="5.76054">
        <ele>220.9</ele>
        <time>2019-08-19T15:16:14.000Z</time>
      </trkpt>
      <trkpt lat="45.16745" lon="5.76063">
        <ele>220.97</ele>
        <time>2019-08-19T15:16:19.000Z</time>
      </trkpt>
      <trkpt lat="45.16761" lon="5.76072">
        <ele>220.27</ele>
        <time>2019-08-19T15:16:24.000Z</time>
      </trkpt>
      <trkpt lat="45.16763" lon="5.76092">
        <ele>220.82</ele>
        <time>2019-08-19T15:16:29.000Z</time>
      </trkpt>
      <trkpt lat="45.16756" lon="5.76122">
        <ele>218.62</ele>
        <time>2019-08-19T15:16:34.000Z</time>
      </trkpt>
      <trkpt lat="45.16756" lon="5.76151">
        <ele>218.32</ele>
        <time>2019-08-19T15:16:39.000Z</time>
      </trkpt>
      <trkpt lat="45.16759" lon="5.76179">
        <ele>219.54</ele>
        <time>2019-08-19T15:16:44.000Z</time>
      </trkpt>
      <trkpt lat="45.16763" lon="5.76201">
        <ele>220.77</ele>
        <time>2019-08-19T15:16:49.000Z</time>
      </trkpt>
      <trkpt lat="45.1677" lon="5.76224">
        <ele>218.89</ele>
        <time>2019-08-19T15:16:54.000Z</time>
      </trkpt>
      <trkpt lat="45.16787" lon="5.7624">
        <ele>213.99</ele>
        <time>2019-08-19T15:16:59.000Z</time>
      </trkpt>
      <trkpt lat="45.16812" lon="5.76256">
        <ele>213.9</ele>
        <time>2019-08-19T15:17:04.000Z</time>
      </trkpt>
      <trkpt lat="45.16837" lon="5.76274">
        <ele>212.07</ele>
        <time>2019-08-19T15:17:09.000Z</time>
      </trkpt>
      <trkpt lat="45.1686" lon="5.76289">
        <ele>215.23</ele>
        <time>2019-08-19T15:17:14.000Z</time>
      </trkpt>
      <trkpt lat="45.16885" lon="5.76305">
        <ele>215.31</ele>
        <time>2019-08-19T15:17:19.000Z</time>
      </trkpt>
      <trkpt lat="45.16907" lon="5.76322">
        <ele>216.31</ele>
        <time>2019-08-19T15:17:24.000Z</time>
      </trkpt>
      <trkpt lat="45.16931" lon="5.76346">
        <ele>216.62</ele>
        <time>2019-08-19T15:17:29.000Z</time>
      </trkpt>
      <trkpt lat="45.16953" lon="5.76362">
        <ele>218.25</ele>
        <time>2019-08-19T15:17:34.000Z</time>
      </trkpt>
      <trkpt lat="45.16974" lon="5.76376">
        <ele>216.58</ele>
        <time>2019-08-19T15:17:39.000Z</time>
      </trkpt>
      <trkpt lat="45.17001" lon="5.76393">
        <ele>216.22</ele>
        <time>2019-08-19T15:17:44.000Z</time>
      </trkpt>
      <trkpt lat="45.17024" lon="5.76408">
        <ele>217.07</ele>
        <time>2019-08-19T15:17:49.000Z</time>
      </trkpt>
      <trkpt lat="45.1705" lon="5.76428">
        <ele>216.15</ele>
        <time>2019-08-19T15:17:54.000Z</time>
      </trkpt>
      <trkpt lat="45.1707" lon="5.76442">
        <ele>214.61</ele>
        <time>2019-08-19T15:17:59.000Z</time>
      </trkpt>
      <trkpt lat="45.17087" lon="5.76457">
        <ele>214.37</ele>
        <time>2019-08-19T15:18:04.000Z</time>
      </trkpt>
      <trkpt lat="45.1711" lon="5.7647">
        <ele>215.59</ele>
        <time>2019-08-19T15:18:09.000Z</time>
      </trkpt>
      <trkpt lat="45.17134" lon="5.76481">
        <ele>215.49</ele>
        <time>2019-08-19T15:18:14.000Z</time>
      </trkpt>
      <trkpt lat="45.17161" lon="5.76491">
        <ele>212.46</ele>
        <time>2019-08-19T15:18:19.000Z</time>
      </trkpt>
      <trkpt lat="45.17179" lon="5.765">
        <ele>210.52</ele>
        <time>2019-08-19T15:18:24.000Z</time>
      </trkpt>
      <trkpt lat="45.17199" lon="5.76516">
        <ele>211.13</ele>
        <time>2019-08-19T15:18:29.000Z</time>
      </trkpt>
      <trkpt lat="45.17215" lon="5.76527">
        <ele>210.27</ele>
        <time>2019-08-19T15:18:34.000Z</time>
      </trkpt>
      <trkpt lat="45.17223" lon="5.76522">
        <ele>212.2</ele>
        <time>2019-08-19T15:18:40.000Z</time>
      </trkpt>
      <trkpt lat="45.17223" lon="5.76499">
        <ele>209.52</ele>
        <time>2019-08-19T15:18:45.000Z</time>
      </trkpt>
      <trkpt lat="45.17223" lon="5.7647">
        <ele>211.26</ele>
        <time>2019-08-19T15:18:50.000Z</time>
      </trkpt>
      <trkpt lat="45.17228" lon="5.7644">
        <ele>211.26</ele>
        <time>2019-08-19T15:18:55.000Z</time>
      </trkpt>
      <trkpt lat="45.17238" lon="5.76415">
        <ele>210.98</ele>
        <time>2019-08-19T15:19:00.000Z</time>
      </trkpt>
      <trkpt lat="45.17232" lon="5.76393">
        <ele>212.05</ele>
        <time>2019-08-19T15:19:05.000Z</time>
      </trkpt>
      <trkpt lat="45.17215" lon="5.76382">
        <ele>213.89</ele>
        <time>2019-08-19T15:19:10.000Z</time>
      </trkpt>
      <trkpt lat="45.17198" lon="5.76394">
        <ele>215.36</ele>
        <time>2019-08-19T15:19:15.000Z</time>
      </trkpt>
      <trkpt lat="45.17202" lon="5.76421">
        <ele>216.49</ele>
        <time>2019-08-19T15:19:20.000Z</time>
      </trkpt>
      <trkpt lat="45.17221" lon="5.76419">
        <ele>219.2</ele>
        <time>2019-08-19T15:19:25.000Z</time>
      </trkpt>
      <trkpt lat="45.17232" lon="5.76398">
        <ele>221.73</ele>
        <time>2019-08-19T15:19:30.000Z</time>
      </trkpt>
      <trkpt lat="45.17245" lon="5.76377">
        <ele>223.05</ele>
        <time>2019-08-19T15:19:35.000Z</time>
      </trkpt>
      <trkpt lat="45.17256" lon="5.76357">
        <ele>225.46</ele>
        <time>2019-08-19T15:19:40.000Z</time>
      </trkpt>
      <trkpt lat="45.17266" lon="5.76338">
        <ele>227.38</ele>
        <time>2019-08-19T15:19:45.000Z</time>
      </trkpt>
      <trkpt lat="45.17274" lon="5.76323">
        <ele>228.1</ele>
        <time>2019-08-19T15:19:50.000Z</time>
      </trkpt>
      <trkpt lat="45.17284" lon="5.76323">
        <ele>222.77</ele>
        <time>2019-08-19T15:19:57.000Z</time>
      </trkpt>
      <trkpt lat="45.17296" lon="5.76335">
        <ele>220.73</ele>
        <time>2019-08-19T15:20:02.000Z</time>
      </trkpt>
      <trkpt lat="45.1731" lon="5.76349">
        <ele>220.19</ele>
        <time>2019-08-19T15:20:07.000Z</time>
      </trkpt>
      <trkpt lat="45.17316" lon="5.76361">
        <ele>220.15</ele>
        <time>2019-08-19T15:20:12.000Z</time>
      </trkpt>
      <trkpt lat="45.17293" lon="5.76345">
        <ele>218.13</ele>
        <time>2019-08-19T15:20:17.000Z</time>
      </trkpt>
      <trkpt lat="45.17283" lon="5.76344">
        <ele>216.54</ele>
        <time>2019-08-19T15:20:22.000Z</time>
      </trkpt>
      <trkpt lat="45.17294" lon="5.76356">
        <ele>217.73</ele>
        <time>2019-08-19T15:20:27.000Z</time>
      </trkpt>
      <trkpt lat="45.17307" lon="5.7637">
        <ele>214.86</ele>
        <time>2019-08-19T15:20:32.000Z</time>
      </trkpt>
      <trkpt lat="45.17321" lon="5.76385">
        <ele>213.23</ele>
        <time>2019-08-19T15:20:37.000Z</time>
      </trkpt>
      <trkpt lat="45.17337" lon="5.76402">
        <ele>211.46</ele>
        <time>2019-08-19T15:20:42.000Z</time>
      </trkpt>
      <trkpt lat="45.17353" lon="5.76422">
        <ele>212.58</ele>
        <time>2019-08-19T15:20:47.000Z</time>
      </trkpt>
      <trkpt lat="45.17369" lon="5.76439">
        <ele>210.23</ele>
        <time>2019-08-19T15:20:52.000Z</time>
      </trkpt>
      <trkpt lat="45.17386" lon="5.76457">
        <ele>211.29</ele>
        <time>2019-08-19T15:20:57.000Z</time>
      </trkpt>
      <trkpt lat="45.174" lon="5.76477">
        <ele>211.8</ele>
        <time>2019-08-19T15:21:02.000Z</time>
      </trkpt>
      <trkpt lat="45.17413" lon="5.76494">
        <ele>210</ele>
        <time>2019-08-19T15:21:07.000Z</time>
      </trkpt>
      <trkpt lat="45.17428" lon="5.76512">
        <ele>211.98</ele>
        <time>2019-08-19T15:21:12.000Z</time>
      </trkpt>
      <trkpt lat="45.17445" lon="5.76531">
        <ele>214.26</ele>
        <time>2019-08-19T15:21:17.000Z</time>
      </trkpt>
      <trkpt lat="45.17461" lon="5.7655">
        <ele>213.97</ele>
        <time>2019-08-19T15:21:22.000Z</time>
      </trkpt>
      <trkpt lat="45.17477" lon="5.76569">
        <ele>213.02</ele>
        <time>2019-08-19T15:21:27.000Z</time>
      </trkpt>
      <trkpt lat="45.17492" lon="5.7659">
        <ele>211.72</ele>
        <time>2019-08-19T15:21:32.000Z</time>
      </trkpt>
      <trkpt lat="45.1751" lon="5.76613">
        <ele>209.37</ele>
        <time>2019-08-19T15:21:37.000Z</time>
      </trkpt>
      <trkpt lat="45.17529" lon="5.76631">
        <ele>212.23</ele>
        <time>2019-08-19T15:21:42.000Z</time>
      </trkpt>
      <trkpt lat="45.17546" lon="5.7665">
        <ele>211.98</ele>
        <time>2019-08-19T15:21:47.000Z</time>
      </trkpt>
      <trkpt lat="45.17564" lon="5.7667">
        <ele>212.86</ele>
        <time>2019-08-19T15:21:52.000Z</time>
      </trkpt>
      <trkpt lat="45.1758" lon="5.76689">
        <ele>213.03</ele>
        <time>2019-08-19T15:21:57.000Z</time>
      </trkpt>
      <trkpt lat="45.17596" lon="5.7671">
        <ele>215.04</ele>
        <time>2019-08-19T15:22:02.000Z</time>
      </trkpt>
      <trkpt lat="45.17613" lon="5.7673">
        <ele>214.17</ele>
        <time>2019-08-19T15:22:07.000Z</time>
      </trkpt>
      <trkpt lat="45.17628" lon="5.76747">
        <ele>215.31</ele>
        <time>2019-08-19T15:22:12.000Z</time>
      </trkpt>
      <trkpt lat="45.17642" lon="5.76741">
        <ele>214.38</ele>
        <time>2019-08-19T15:22:17.000Z</time>
      </trkpt>
      <trkpt lat="45.1765" lon="5.76732">
        <ele>214.92</ele>
        <time>2019-08-19T15:22:22.000Z</time>
      </trkpt>
      <trkpt lat="45.17662" lon="5.76743">
        <ele>210.12</ele>
        <time>2019-08-19T15:22:27.000Z</time>
      </trkpt>
      <trkpt lat="45.17675" lon="5.76762">
        <ele>211.07</ele>
        <time>2019-08-19T15:22:32.000Z</time>
      </trkpt>
      <trkpt lat="45.1769" lon="5.7678">
        <ele>210.5</ele>
        <time>2019-08-19T15:22:37.000Z</time>
      </trkpt>
      <trkpt lat="45.17697" lon="5.76789">
        <ele>210.14</ele>
        <time>2019-08-19T15:22:42.000Z</time>
      </trkpt>
      <trkpt lat="45.17703" lon="5.76799">
        <ele>210.4</ele>
        <time>2019-08-19T15:22:48.000Z</time>
      </trkpt>
      <trkpt lat="45.17712" lon="5.76809">
        <ele>209.07</ele>
        <time>2019-08-19T15:22:53.000Z</time>
      </trkpt>
      <trkpt lat="45.17723" lon="5.7682">
        <ele>208.52</ele>
        <time>2019-08-19T15:22:58.000Z</time>
      </trkpt>
      <trkpt lat="45.17733" lon="5.76829">
        <ele>205.73</ele>
        <time>2019-08-19T15:23:03.000Z</time>
      </trkpt>
      <trkpt lat="45.17742" lon="5.76839">
        <ele>206.68</ele>
        <time>2019-08-19T15:23:08.000Z</time>
      </trkpt>
      <trkpt lat="45.17747" lon="5.7685">
        <ele>208.44</ele>
        <time>2019-08-19T15:23:17.000Z</time>
      </trkpt>
      <trkpt lat="45.17742" lon="5.76861">
        <ele>209.87</ele>
        <time>2019-08-19T15:23:25.000Z</time>
      </trkpt>
      <trkpt lat="45.17737" lon="5.76871">
        <ele>209.67</ele>
        <time>2019-08-19T15:23:33.000Z</time>
      </trkpt>
      <trkpt lat="45.17743" lon="5.7686">
        <ele>209.58</ele>
        <time>2019-08-19T15:23:55.000Z</time>
      </trkpt>
      <trkpt lat="45.17744" lon="5.76847">
        <ele>216.09</ele>
        <time>2019-08-19T15:24:56.000Z</time>
      </trkpt>
      <trkpt lat="45.17736" lon="5.76837">
        <ele>214.21</ele>
        <time>2019-08-19T15:25:01.000Z</time>
      </trkpt>
      <trkpt lat="45.17728" lon="5.76826">
        <ele>211.54</ele>
        <time>2019-08-19T15:25:06.000Z</time>
      </trkpt>
      <trkpt lat="45.17721" lon="5.76816">
        <ele>211.18</ele>
        <time>2019-08-19T15:25:11.000Z</time>
      </trkpt>
      <trkpt lat="45.17714" lon="5.76807">
        <ele>212.28</ele>
        <time>2019-08-19T15:25:16.000Z</time>
      </trkpt>
      <trkpt lat="45.17706" lon="5.76798">
        <ele>211.07</ele>
        <time>2019-08-19T15:25:21.000Z</time>
      </trkpt>
      <trkpt lat="45.17699" lon="5.76789">
        <ele>210.32</ele>
        <time>2019-08-19T15:25:26.000Z</time>
      </trkpt>
      <trkpt lat="45.17692" lon="5.76779">
        <ele>211.7</ele>
        <time>2019-08-19T15:25:44.000Z</time>
      </trkpt>
      <trkpt lat="45.17682" lon="5.76767">
        <ele>211.72</ele>
        <time>2019-08-19T15:25:49.000Z</time>
      </trkpt>
      <trkpt lat="45.17673" lon="5.76757">
        <ele>211.13</ele>
        <time>2019-08-19T15:25:54.000Z</time>
      </trkpt>
      <trkpt lat="45.17664" lon="5.76747">
        <ele>210.57</ele>
        <time>2019-08-19T15:25:59.000Z</time>
      </trkpt>
      <trkpt lat="45.17656" lon="5.76734">
        <ele>210.08</ele>
        <time>2019-08-19T15:26:04.000Z</time>
      </trkpt>
      <trkpt lat="45.17651" lon="5.76722">
        <ele>207.64</ele>
        <time>2019-08-19T15:26:09.000Z</time>
      </trkpt>
      <trkpt lat="45.1766" lon="5.76715">
        <ele>208.93</ele>
        <time>2019-08-19T15:26:14.000Z</time>
      </trkpt>
      <trkpt lat="45.17661" lon="5.76702">
        <ele>206.8</ele>
        <time>2019-08-19T15:26:20.000Z</time>
      </trkpt>
      <trkpt lat="45.1767" lon="5.76695">
        <ele>206.29</ele>
        <time>2019-08-19T15:26:26.000Z</time>
      </trkpt>
      <trkpt lat="45.17685" lon="5.76694">
        <ele>210.84</ele>
        <time>2019-08-19T15:26:31.000Z</time>
      </trkpt>
      <trkpt lat="45.17698" lon="5.76674">
        <ele>211.2</ele>
        <time>2019-08-19T15:26:36.000Z</time>
      </trkpt>
      <trkpt lat="45.17709" lon="5.76655">
        <ele>214.62</ele>
        <time>2019-08-19T15:26:41.000Z</time>
      </trkpt>
      <trkpt lat="45.17718" lon="5.76649">
        <ele>214.05</ele>
        <time>2019-08-19T15:26:46.000Z</time>
      </trkpt>
      <trkpt lat="45.17726" lon="5.76663">
        <ele>217.15</ele>
        <time>2019-08-19T15:26:51.000Z</time>
      </trkpt>
      <trkpt lat="45.17736" lon="5.76679">
        <ele>217.32</ele>
        <time>2019-08-19T15:26:56.000Z</time>
      </trkpt>
      <trkpt lat="45.17747" lon="5.76694">
        <ele>216.76</ele>
        <time>2019-08-19T15:27:01.000Z</time>
      </trkpt>
      <trkpt lat="45.17759" lon="5.76706">
        <ele>219.67</ele>
        <time>2019-08-19T15:27:06.000Z</time>
      </trkpt>
      <trkpt lat="45.17768" lon="5.76717">
        <ele>217.18</ele>
        <time>2019-08-19T15:27:11.000Z</time>
      </trkpt>
      <trkpt lat="45.17775" lon="5.76704">
        <ele>211.61</ele>
        <time>2019-08-19T15:27:16.000Z</time>
      </trkpt>
      <trkpt lat="45.17785" lon="5.76687">
        <ele>211.54</ele>
        <time>2019-08-19T15:27:21.000Z</time>
      </trkpt>
      <trkpt lat="45.17799" lon="5.76673">
        <ele>210.52</ele>
        <time>2019-08-19T15:27:26.000Z</time>
      </trkpt>
      <trkpt lat="45.17812" lon="5.76657">
        <ele>210.79</ele>
        <time>2019-08-19T15:27:31.000Z</time>
      </trkpt>
      <trkpt lat="45.17827" lon="5.76638">
        <ele>212.22</ele>
        <time>2019-08-19T15:27:36.000Z</time>
      </trkpt>
      <trkpt lat="45.17842" lon="5.76617">
        <ele>213.23</ele>
        <time>2019-08-19T15:27:41.000Z</time>
      </trkpt>
      <trkpt lat="45.17857" lon="5.76595">
        <ele>212.23</ele>
        <time>2019-08-19T15:27:46.000Z</time>
      </trkpt>
      <trkpt lat="45.17873" lon="5.76574">
        <ele>211.3</ele>
        <time>2019-08-19T15:27:51.000Z</time>
      </trkpt>
      <trkpt lat="45.1789" lon="5.76559">
        <ele>210.68</ele>
        <time>2019-08-19T15:27:56.000Z</time>
      </trkpt>
      <trkpt lat="45.17909" lon="5.76538">
        <ele>211.7</ele>
        <time>2019-08-19T15:28:01.000Z</time>
      </trkpt>
      <trkpt lat="45.17927" lon="5.76514">
        <ele>215.71</ele>
        <time>2019-08-19T15:28:06.000Z</time>
      </trkpt>
      <trkpt lat="45.17945" lon="5.76495">
        <ele>216.23</ele>
        <time>2019-08-19T15:28:11.000Z</time>
      </trkpt>
      <trkpt lat="45.17966" lon="5.76477">
        <ele>211.66</ele>
        <time>2019-08-19T15:28:16.000Z</time>
      </trkpt>
      <trkpt lat="45.17974" lon="5.76469">
        <ele>211.42</ele>
        <time>2019-08-19T15:28:21.000Z</time>
      </trkpt>
      <trkpt lat="45.17978" lon="5.76457">
        <ele>213.36</ele>
        <time>2019-08-19T15:28:37.000Z</time>
      </trkpt>
      <trkpt lat="45.17988" lon="5.76462">
        <ele>214.7</ele>
        <time>2019-08-19T15:28:42.000Z</time>
      </trkpt>
      <trkpt lat="45.17993" lon="5.76489">
        <ele>212.16</ele>
        <time>2019-08-19T15:28:47.000Z</time>
      </trkpt>
      <trkpt lat="45.17999" lon="5.76518">
        <ele>214.02</ele>
        <time>2019-08-19T15:28:52.000Z</time>
      </trkpt>
      <trkpt lat="45.18006" lon="5.76546">
        <ele>214.76</ele>
        <time>2019-08-19T15:28:57.000Z</time>
      </trkpt>
      <trkpt lat="45.18013" lon="5.76578">
        <ele>213.07</ele>
        <time>2019-08-19T15:29:02.000Z</time>
      </trkpt>
      <trkpt lat="45.18023" lon="5.76604">
        <ele>216.44</ele>
        <time>2019-08-19T15:29:07.000Z</time>
      </trkpt>
      <trkpt lat="45.18041" lon="5.7662">
        <ele>214.19</ele>
        <time>2019-08-19T15:29:12.000Z</time>
      </trkpt>
      <trkpt lat="45.18049" lon="5.76627">
        <ele>213.88</ele>
        <time>2019-08-19T15:29:37.000Z</time>
      </trkpt>
      <trkpt lat="45.18058" lon="5.76634">
        <ele>213.96</ele>
        <time>2019-08-19T15:29:56.000Z</time>
      </trkpt>
      <trkpt lat="45.18074" lon="5.76651">
        <ele>211.87</ele>
        <time>2019-08-19T15:30:01.000Z</time>
      </trkpt>
      <trkpt lat="45.18086" lon="5.76678">
        <ele>214.04</ele>
        <time>2019-08-19T15:30:06.000Z</time>
      </trkpt>
      <trkpt lat="45.18098" lon="5.76709">
        <ele>214.2</ele>
        <time>2019-08-19T15:30:11.000Z</time>
      </trkpt>
      <trkpt lat="45.18115" lon="5.76741">
        <ele>210.92</ele>
        <time>2019-08-19T15:30:16.000Z</time>
      </trkpt>
      <trkpt lat="45.18127" lon="5.76766">
        <ele>211.46</ele>
        <time>2019-08-19T15:30:21.000Z</time>
      </trkpt>
      <trkpt lat="45.18143" lon="5.76787">
        <ele>213.4</ele>
        <time>2019-08-19T15:30:26.000Z</time>
      </trkpt>
      <trkpt lat="45.18166" lon="5.76802">
        <ele>212.18</ele>
        <time>2019-08-19T15:30:31.000Z</time>
      </trkpt>
      <trkpt lat="45.18191" lon="5.76804">
        <ele>212.73</ele>
        <time>2019-08-19T15:30:36.000Z</time>
      </trkpt>
      <trkpt lat="45.18218" lon="5.76802">
        <ele>211.05</ele>
        <time>2019-08-19T15:30:41.000Z</time>
      </trkpt>
      <trkpt lat="45.18245" lon="5.76804">
        <ele>211.53</ele>
        <time>2019-08-19T15:30:46.000Z</time>
      </trkpt>
      <trkpt lat="45.18268" lon="5.76803">
        <ele>211.13</ele>
        <time>2019-08-19T15:30:51.000Z</time>
      </trkpt>
      <trkpt lat="45.1828" lon="5.76807">
        <ele>211.4</ele>
        <time>2019-08-19T15:30:56.000Z</time>
      </trkpt>
      <trkpt lat="45.18289" lon="5.76806">
        <ele>210.1</ele>
        <time>2019-08-19T15:31:03.000Z</time>
      </trkpt>
      <trkpt lat="45.18294" lon="5.76819">
        <ele>210.12</ele>
        <time>2019-08-19T15:31:10.000Z</time>
      </trkpt>
      <trkpt lat="45.18304" lon="5.76824">
        <ele>209.89</ele>
        <time>2019-08-19T15:31:15.000Z</time>
      </trkpt>
      <trkpt lat="45.18314" lon="5.76826">
        <ele>210.96</ele>
        <time>2019-08-19T15:31:20.000Z</time>
      </trkpt>
      <trkpt lat="45.18325" lon="5.76826">
        <ele>209.42</ele>
        <time>2019-08-19T15:31:35.000Z</time>
      </trkpt>
      <trkpt lat="45.18344" lon="5.76827">
        <ele>209.95</ele>
        <time>2019-08-19T15:31:40.000Z</time>
      </trkpt>
      <trkpt lat="45.18365" lon="5.76827">
        <ele>211.27</ele>
        <time>2019-08-19T15:31:45.000Z</time>
      </trkpt>
      <trkpt lat="45.18393" lon="5.76836">
        <ele>214.57</ele>
        <time>2019-08-19T15:31:50.000Z</time>
      </trkpt>
      <trkpt lat="45.1842" lon="5.76838">
        <ele>214.7</ele>
        <time>2019-08-19T15:31:55.000Z</time>
      </trkpt>
      <trkpt lat="45.18439" lon="5.7684">
        <ele>215.21</ele>
        <time>2019-08-19T15:32:00.000Z</time>
      </trkpt>
      <trkpt lat="45.18467" lon="5.76845">
        <ele>213.87</ele>
        <time>2019-08-19T15:32:05.000Z</time>
      </trkpt>
      <trkpt lat="45.18494" lon="5.7685">
        <ele>215.68</ele>
        <time>2019-08-19T15:32:10.000Z</time>
      </trkpt>
      <trkpt lat="45.18517" lon="5.76865">
        <ele>214.1</ele>
        <time>2019-08-19T15:32:15.000Z</time>
      </trkpt>
      <trkpt lat="45.18537" lon="5.76884">
        <ele>218.19</ele>
        <time>2019-08-19T15:32:20.000Z</time>
      </trkpt>
      <trkpt lat="45.18565" lon="5.76908">
        <ele>217.61</ele>
        <time>2019-08-19T15:32:25.000Z</time>
      </trkpt>
      <trkpt lat="45.18584" lon="5.76925">
        <ele>218.09</ele>
        <time>2019-08-19T15:32:30.000Z</time>
      </trkpt>
      <trkpt lat="45.18593" lon="5.76929">
        <ele>215.96</ele>
        <time>2019-08-19T15:32:39.000Z</time>
      </trkpt>
      <trkpt lat="45.18603" lon="5.76936">
        <ele>217.66</ele>
        <time>2019-08-19T15:33:22.000Z</time>
      </trkpt>
      <trkpt lat="45.18623" lon="5.76947">
        <ele>216.94</ele>
        <time>2019-08-19T15:33:27.000Z</time>
      </trkpt>
      <trkpt lat="45.18647" lon="5.76967">
        <ele>217.33</ele>
        <time>2019-08-19T15:33:32.000Z</time>
      </trkpt>
      <trkpt lat="45.18675" lon="5.76979">
        <ele>212.49</ele>
        <time>2019-08-19T15:33:37.000Z</time>
      </trkpt>
      <trkpt lat="45.18704" lon="5.76974">
        <ele>210.96</ele>
        <time>2019-08-19T15:33:42.000Z</time>
      </trkpt>
      <trkpt lat="45.1873" lon="5.76967">
        <ele>208.92</ele>
        <time>2019-08-19T15:33:47.000Z</time>
      </trkpt>
      <trkpt lat="45.18755" lon="5.76964">
        <ele>207.85</ele>
        <time>2019-08-19T15:33:52.000Z</time>
      </trkpt>
      <trkpt lat="45.18784" lon="5.7696">
        <ele>210.15</ele>
        <time>2019-08-19T15:33:57.000Z</time>
      </trkpt>
      <trkpt lat="45.18812" lon="5.76958">
        <ele>212.85</ele>
        <time>2019-08-19T15:34:02.000Z</time>
      </trkpt>
      <trkpt lat="45.18841" lon="5.76953">
        <ele>212.02</ele>
        <time>2019-08-19T15:34:07.000Z</time>
      </trkpt>
      <trkpt lat="45.18867" lon="5.76952">
        <ele>212.68</ele>
        <time>2019-08-19T15:34:12.000Z</time>
      </trkpt>
      <trkpt lat="45.18894" lon="5.76946">
        <ele>211.16</ele>
        <time>2019-08-19T15:34:17.000Z</time>
      </trkpt>
      <trkpt lat="45.18925" lon="5.76943">
        <ele>207.48</ele>
        <time>2019-08-19T15:34:22.000Z</time>
      </trkpt>
      <trkpt lat="45.18949" lon="5.76939">
        <ele>209.7</ele>
        <time>2019-08-19T15:34:27.000Z</time>
      </trkpt>
      <trkpt lat="45.18972" lon="5.76934">
        <ele>211.74</ele>
        <time>2019-08-19T15:34:32.000Z</time>
      </trkpt>
      <trkpt lat="45.18998" lon="5.76932">
        <ele>212.84</ele>
        <time>2019-08-19T15:34:37.000Z</time>
      </trkpt>
      <trkpt lat="45.19024" lon="5.76926">
        <ele>214.22</ele>
        <time>2019-08-19T15:34:42.000Z</time>
      </trkpt>
      <trkpt lat="45.19049" lon="5.76921">
        <ele>216.53</ele>
        <time>2019-08-19T15:34:47.000Z</time>
      </trkpt>
      <trkpt lat="45.19076" lon="5.76916">
        <ele>214.47</ele>
        <time>2019-08-19T15:34:52.000Z</time>
      </trkpt>
      <trkpt lat="45.19104" lon="5.76913">
        <ele>212.53</ele>
        <time>2019-08-19T15:34:57.000Z</time>
      </trkpt>
      <trkpt lat="45.19131" lon="5.7691">
        <ele>213.36</ele>
        <time>2019-08-19T15:35:02.000Z</time>
      </trkpt>
      <trkpt lat="45.19159" lon="5.7691">
        <ele>212.49</ele>
        <time>2019-08-19T15:35:07.000Z</time>
      </trkpt>
      <trkpt lat="45.19177" lon="5.76903">
        <ele>213.04</ele>
        <time>2019-08-19T15:35:12.000Z</time>
      </trkpt>
      <trkpt lat="45.1919" lon="5.76882">
        <ele>213.87</ele>
        <time>2019-08-19T15:35:17.000Z</time>
      </trkpt>
      <trkpt lat="45.19212" lon="5.76867">
        <ele>213.72</ele>
        <time>2019-08-19T15:35:22.000Z</time>
      </trkpt>
      <trkpt lat="45.19235" lon="5.76852">
        <ele>214.27</ele>
        <time>2019-08-19T15:35:27.000Z</time>
      </trkpt>
      <trkpt lat="45.19249" lon="5.76817">
        <ele>213.68</ele>
        <time>2019-08-19T15:35:32.000Z</time>
      </trkpt>
      <trkpt lat="45.19268" lon="5.76791">
        <ele>213.52</ele>
        <time>2019-08-19T15:35:37.000Z</time>
      </trkpt>
      <trkpt lat="45.19285" lon="5.76791">
        <ele>211.48</ele>
        <time>2019-08-19T15:35:42.000Z</time>
      </trkpt>
      <trkpt lat="45.19306" lon="5.76791">
        <ele>211.58</ele>
        <time>2019-08-19T15:35:47.000Z</time>
      </trkpt>
      <trkpt lat="45.19328" lon="5.76786">
        <ele>210.68</ele>
        <time>2019-08-19T15:35:52.000Z</time>
      </trkpt>
      <trkpt lat="45.1935" lon="5.76785">
        <ele>211.61</ele>
        <time>2019-08-19T15:35:57.000Z</time>
      </trkpt>
      <trkpt lat="45.19376" lon="5.7678">
        <ele>212.97</ele>
        <time>2019-08-19T15:36:02.000Z</time>
      </trkpt>
      <trkpt lat="45.19394" lon="5.7678">
        <ele>214.09</ele>
        <time>2019-08-19T15:36:07.000Z</time>
      </trkpt>
      <trkpt lat="45.19404" lon="5.76774">
        <ele>214.84</ele>
        <time>2019-08-19T15:36:12.000Z</time>
      </trkpt>
      <trkpt lat="45.19415" lon="5.76772">
        <ele>217.29</ele>
        <time>2019-08-19T15:36:21.000Z</time>
      </trkpt>
      <trkpt lat="45.19432" lon="5.76769">
        <ele>216.48</ele>
        <time>2019-08-19T15:36:26.000Z</time>
      </trkpt>
      <trkpt lat="45.19455" lon="5.76765">
        <ele>216.92</ele>
        <time>2019-08-19T15:36:31.000Z</time>
      </trkpt>
      <trkpt lat="45.19476" lon="5.76763">
        <ele>217.19</ele>
        <time>2019-08-19T15:36:36.000Z</time>
      </trkpt>
      <trkpt lat="45.19498" lon="5.76762">
        <ele>216.53</ele>
        <time>2019-08-19T15:36:41.000Z</time>
      </trkpt>
      <trkpt lat="45.19522" lon="5.76761">
        <ele>214.38</ele>
        <time>2019-08-19T15:36:46.000Z</time>
      </trkpt>
      <trkpt lat="45.19542" lon="5.76755">
        <ele>215.83</ele>
        <time>2019-08-19T15:36:51.000Z</time>
      </trkpt>
      <trkpt lat="45.1956" lon="5.76752">
        <ele>219.38</ele>
        <time>2019-08-19T15:36:56.000Z</time>
      </trkpt>
      <trkpt lat="45.19586" lon="5.76749">
        <ele>220.2</ele>
        <time>2019-08-19T15:37:01.000Z</time>
      </trkpt>
      <trkpt lat="45.19611" lon="5.76748">
        <ele>217.01</ele>
        <time>2019-08-19T15:37:06.000Z</time>
      </trkpt>
      <trkpt lat="45.19623" lon="5.76749">
        <ele>216.03</ele>
        <time>2019-08-19T15:37:11.000Z</time>
      </trkpt>
      <trkpt lat="45.19639" lon="5.7675">
        <ele>216.58</ele>
        <time>2019-08-19T15:37:16.000Z</time>
      </trkpt>
      <trkpt lat="45.19662" lon="5.76766">
        <ele>214.57</ele>
        <time>2019-08-19T15:37:21.000Z</time>
      </trkpt>
      <trkpt lat="45.19673" lon="5.76772">
        <ele>215.89</ele>
        <time>2019-08-19T15:37:26.000Z</time>
      </trkpt>
      <trkpt lat="45.1967" lon="5.76756">
        <ele>216.75</ele>
        <time>2019-08-19T15:37:31.000Z</time>
      </trkpt>
      <trkpt lat="45.19678" lon="5.76764">
        <ele>220.47</ele>
        <time>2019-08-19T15:37:44.000Z</time>
      </trkpt>
      <trkpt lat="45.19686" lon="5.76779">
        <ele>214.88</ele>
        <time>2019-08-19T15:37:49.000Z</time>
      </trkpt>
      <trkpt lat="45.19693" lon="5.76795">
        <ele>216.76</ele>
        <time>2019-08-19T15:37:54.000Z</time>
      </trkpt>
      <trkpt lat="45.19705" lon="5.76817">
        <ele>213.79</ele>
        <time>2019-08-19T15:37:59.000Z</time>
      </trkpt>
      <trkpt lat="45.19716" lon="5.76844">
        <ele>216.33</ele>
        <time>2019-08-19T15:38:04.000Z</time>
      </trkpt>
      <trkpt lat="45.1973" lon="5.76877">
        <ele>217.56</ele>
        <time>2019-08-19T15:38:09.000Z</time>
      </trkpt>
      <trkpt lat="45.19745" lon="5.76908">
        <ele>218.57</ele>
        <time>2019-08-19T15:38:14.000Z</time>
      </trkpt>
      <trkpt lat="45.19762" lon="5.76946">
        <ele>218.78</ele>
        <time>2019-08-19T15:38:19.000Z</time>
      </trkpt>
      <trkpt lat="45.19781" lon="5.76983">
        <ele>216.64</ele>
        <time>2019-08-19T15:38:24.000Z</time>
      </trkpt>
      <trkpt lat="45.198" lon="5.7701">
        <ele>219.23</ele>
        <time>2019-08-19T15:38:29.000Z</time>
      </trkpt>
      <trkpt lat="45.19817" lon="5.77034">
        <ele>220.34</ele>
        <time>2019-08-19T15:38:34.000Z</time>
      </trkpt>
      <trkpt lat="45.19834" lon="5.77053">
        <ele>221.37</ele>
        <time>2019-08-19T15:38:39.000Z</time>
      </trkpt>
      <trkpt lat="45.19857" lon="5.77072">
        <ele>220.7</ele>
        <time>2019-08-19T15:38:44.000Z</time>
      </trkpt>
      <trkpt lat="45.19884" lon="5.77087">
        <ele>222.15</ele>
        <time>2019-08-19T15:38:49.000Z</time>
      </trkpt>
      <trkpt lat="45.19913" lon="5.77113">
        <ele>220.73</ele>
        <time>2019-08-19T15:38:54.000Z</time>
      </trkpt>
      <trkpt lat="45.19938" lon="5.77139">
        <ele>220.35</ele>
        <time>2019-08-19T15:38:59.000Z</time>
      </trkpt>
      <trkpt lat="45.19963" lon="5.77169">
        <ele>221.35</ele>
        <time>2019-08-19T15:39:04.000Z</time>
      </trkpt>
      <trkpt lat="45.19988" lon="5.77204">
        <ele>219.63</ele>
        <time>2019-08-19T15:39:09.000Z</time>
      </trkpt>
      <trkpt lat="45.20004" lon="5.77244">
        <ele>220.15</ele>
        <time>2019-08-19T15:39:14.000Z</time>
      </trkpt>
      <trkpt lat="45.20019" lon="5.77287">
        <ele>219.94</ele>
        <time>2019-08-19T15:39:19.000Z</time>
      </trkpt>
      <trkpt lat="45.20029" lon="5.7733">
        <ele>221.77</ele>
        <time>2019-08-19T15:39:24.000Z</time>
      </trkpt>
      <trkpt lat="45.2004" lon="5.77375">
        <ele>221.65</ele>
        <time>2019-08-19T15:39:29.000Z</time>
      </trkpt>
      <trkpt lat="45.20048" lon="5.77418">
        <ele>225.28</ele>
        <time>2019-08-19T15:39:34.000Z</time>
      </trkpt>
      <trkpt lat="45.20052" lon="5.77463">
        <ele>225.79</ele>
        <time>2019-08-19T15:39:39.000Z</time>
      </trkpt>
      <trkpt lat="45.2005" lon="5.77512">
        <ele>224.19</ele>
        <time>2019-08-19T15:39:44.000Z</time>
      </trkpt>
      <trkpt lat="45.20043" lon="5.77559">
        <ele>223.38</ele>
        <time>2019-08-19T15:39:49.000Z</time>
      </trkpt>
      <trkpt lat="45.20031" lon="5.77605">
        <ele>219.39</ele>
        <time>2019-08-19T15:39:54.000Z</time>
      </trkpt>
      <trkpt lat="45.20015" lon="5.77646">
        <ele>219.19</ele>
        <time>2019-08-19T15:39:59.000Z</time>
      </trkpt>
      <trkpt lat="45.19996" lon="5.77681">
        <ele>217.41</ele>
        <time>2019-08-19T15:40:04.000Z</time>
      </trkpt>
      <trkpt lat="45.19972" lon="5.77711">
        <ele>219.06</ele>
        <time>2019-08-19T15:40:09.000Z</time>
      </trkpt>
      <trkpt lat="45.19946" lon="5.77743">
        <ele>219.31</ele>
        <time>2019-08-19T15:40:14.000Z</time>
      </trkpt>
      <trkpt lat="45.19919" lon="5.77765">
        <ele>213.83</ele>
        <time>2019-08-19T15:40:19.000Z</time>
      </trkpt>
      <trkpt lat="45.1989" lon="5.77786">
        <ele>215.21</ele>
        <time>2019-08-19T15:40:24.000Z</time>
      </trkpt>
      <trkpt lat="45.19861" lon="5.77806">
        <ele>214.46</ele>
        <time>2019-08-19T15:40:29.000Z</time>
      </trkpt>
      <trkpt lat="45.1983" lon="5.77821">
        <ele>215.32</ele>
        <time>2019-08-19T15:40:34.000Z</time>
      </trkpt>
      <trkpt lat="45.19798" lon="5.77834">
        <ele>215.72</ele>
        <time>2019-08-19T15:40:39.000Z</time>
      </trkpt>
      <trkpt lat="45.19766" lon="5.77843">
        <ele>217.06</ele>
        <time>2019-08-19T15:40:44.000Z</time>
      </trkpt>
      <trkpt lat="45.19734" lon="5.77853">
        <ele>216.95</ele>
        <time>2019-08-19T15:40:49.000Z</time>
      </trkpt>
      <trkpt lat="45.19703" lon="5.77864">
        <ele>217.32</ele>
        <time>2019-08-19T15:40:54.000Z</time>
      </trkpt>
      <trkpt lat="45.19671" lon="5.77873">
        <ele>216.39</ele>
        <time>2019-08-19T15:40:59.000Z</time>
      </trkpt>
      <trkpt lat="45.19638" lon="5.77884">
        <ele>216.74</ele>
        <time>2019-08-19T15:41:04.000Z</time>
      </trkpt>
      <trkpt lat="45.19606" lon="5.77897">
        <ele>215.2</ele>
        <time>2019-08-19T15:41:09.000Z</time>
      </trkpt>
      <trkpt lat="45.19577" lon="5.7791">
        <ele>215.71</ele>
        <time>2019-08-19T15:41:14.000Z</time>
      </trkpt>
      <trkpt lat="45.19549" lon="5.77923">
        <ele>215.37</ele>
        <time>2019-08-19T15:41:19.000Z</time>
      </trkpt>
      <trkpt lat="45.1952" lon="5.77936">
        <ele>215.79</ele>
        <time>2019-08-19T15:41:24.000Z</time>
      </trkpt>
      <trkpt lat="45.19489" lon="5.77947">
        <ele>216.25</ele>
        <time>2019-08-19T15:41:29.000Z</time>
      </trkpt>
      <trkpt lat="45.19457" lon="5.77958">
        <ele>218.24</ele>
        <time>2019-08-19T15:41:34.000Z</time>
      </trkpt>
      <trkpt lat="45.19423" lon="5.77959">
        <ele>217.14</ele>
        <time>2019-08-19T15:41:39.000Z</time>
      </trkpt>
      <trkpt lat="45.19389" lon="5.77965">
        <ele>215.57</ele>
        <time>2019-08-19T15:41:44.000Z</time>
      </trkpt>
      <trkpt lat="45.19355" lon="5.77968">
        <ele>214.93</ele>
        <time>2019-08-19T15:41:49.000Z</time>
      </trkpt>
      <trkpt lat="45.19322" lon="5.77967">
        <ele>214.9</ele>
        <time>2019-08-19T15:41:54.000Z</time>
      </trkpt>
      <trkpt lat="45.19288" lon="5.7797">
        <ele>214.53</ele>
        <time>2019-08-19T15:41:59.000Z</time>
      </trkpt>
      <trkpt lat="45.19255" lon="5.77978">
        <ele>214.6</ele>
        <time>2019-08-19T15:42:04.000Z</time>
      </trkpt>
      <trkpt lat="45.19223" lon="5.77991">
        <ele>215.3</ele>
        <time>2019-08-19T15:42:09.000Z</time>
      </trkpt>
      <trkpt lat="45.19197" lon="5.78018">
        <ele>216.01</ele>
        <time>2019-08-19T15:42:14.000Z</time>
      </trkpt>
      <trkpt lat="45.1917" lon="5.78045">
        <ele>217.22</ele>
        <time>2019-08-19T15:42:19.000Z</time>
      </trkpt>
      <trkpt lat="45.19147" lon="5.78079">
        <ele>218.75</ele>
        <time>2019-08-19T15:42:24.000Z</time>
      </trkpt>
      <trkpt lat="45.19129" lon="5.78118">
        <ele>221.66</ele>
        <time>2019-08-19T15:42:29.000Z</time>
      </trkpt>
      <trkpt lat="45.19113" lon="5.78157">
        <ele>217.99</ele>
        <time>2019-08-19T15:42:34.000Z</time>
      </trkpt>
      <trkpt lat="45.19094" lon="5.78196">
        <ele>215.8</ele>
        <time>2019-08-19T15:42:39.000Z</time>
      </trkpt>
      <trkpt lat="45.19073" lon="5.78237">
        <ele>219.71</ele>
        <time>2019-08-19T15:42:44.000Z</time>
      </trkpt>
      <trkpt lat="45.19059" lon="5.78273">
        <ele>219.5</ele>
        <time>2019-08-19T15:42:49.000Z</time>
      </trkpt>
      <trkpt lat="45.19042" lon="5.78304">
        <ele>216.24</ele>
        <time>2019-08-19T15:42:54.000Z</time>
      </trkpt>
      <trkpt lat="45.19028" lon="5.7834">
        <ele>217.97</ele>
        <time>2019-08-19T15:42:59.000Z</time>
      </trkpt>
      <trkpt lat="45.19014" lon="5.78375">
        <ele>217.62</ele>
        <time>2019-08-19T15:43:04.000Z</time>
      </trkpt>
      <trkpt lat="45.19004" lon="5.78419">
        <ele>213.02</ele>
        <time>2019-08-19T15:43:09.000Z</time>
      </trkpt>
      <trkpt lat="45.18995" lon="5.78459">
        <ele>212.92</ele>
        <time>2019-08-19T15:43:14.000Z</time>
      </trkpt>
      <trkpt lat="45.18985" lon="5.785">
        <ele>214.41</ele>
        <time>2019-08-19T15:43:19.000Z</time>
      </trkpt>
      <trkpt lat="45.18976" lon="5.78541">
        <ele>215.47</ele>
        <time>2019-08-19T15:43:24.000Z</time>
      </trkpt>
      <trkpt lat="45.18968" lon="5.78584">
        <ele>215.66</ele>
        <time>2019-08-19T15:43:29.000Z</time>
      </trkpt>
      <trkpt lat="45.18958" lon="5.78632">
        <ele>217.38</ele>
        <time>2019-08-19T15:43:34.000Z</time>
      </trkpt>
      <trkpt lat="45.18948" lon="5.78677">
        <ele>215.04</ele>
        <time>2019-08-19T15:43:39.000Z</time>
      </trkpt>
      <trkpt lat="45.1894" lon="5.78725">
        <ele>214.6</ele>
        <time>2019-08-19T15:43:44.000Z</time>
      </trkpt>
      <trkpt lat="45.18931" lon="5.78769">
        <ele>214.14</ele>
        <time>2019-08-19T15:43:49.000Z</time>
      </trkpt>
      <trkpt lat="45.18919" lon="5.78813">
        <ele>213.97</ele>
        <time>2019-08-19T15:43:54.000Z</time>
      </trkpt>
      <trkpt lat="45.18909" lon="5.78857">
        <ele>215.23</ele>
        <time>2019-08-19T15:43:59.000Z</time>
      </trkpt>
      <trkpt lat="45.18899" lon="5.78902">
        <ele>215.05</ele>
        <time>2019-08-19T15:44:04.000Z</time>
      </trkpt>
      <trkpt lat="45.18891" lon="5.78945">
        <ele>215.72</ele>
        <time>2019-08-19T15:44:09.000Z</time>
      </trkpt>
      <trkpt lat="45.18887" lon="5.78991">
        <ele>215.3</ele>
        <time>2019-08-19T15:44:14.000Z</time>
      </trkpt>
      <trkpt lat="45.18889" lon="5.79039">
        <ele>215.27</ele>
        <time>2019-08-19T15:44:19.000Z</time>
      </trkpt>
      <trkpt lat="45.18891" lon="5.79088">
        <ele>215.8</ele>
        <time>2019-08-19T15:44:24.000Z</time>
      </trkpt>
      <trkpt lat="45.18895" lon="5.79134">
        <ele>215.69</ele>
        <time>2019-08-19T15:44:29.000Z</time>
      </trkpt>
      <trkpt lat="45.18896" lon="5.79181">
        <ele>214.75</ele>
        <time>2019-08-19T15:44:34.000Z</time>
      </trkpt>
      <trkpt lat="45.18897" lon="5.79229">
        <ele>214.96</ele>
        <time>2019-08-19T15:44:39.000Z</time>
      </trkpt>
      <trkpt lat="45.18897" lon="5.79271">
        <ele>216.37</ele>
        <time>2019-08-19T15:44:44.000Z</time>
      </trkpt>
      <trkpt lat="45.18899" lon="5.7931">
        <ele>215.88</ele>
        <time>2019-08-19T15:44:49.000Z</time>
      </trkpt>
      <trkpt lat="45.189" lon="5.79353">
        <ele>216.4</ele>
        <time>2019-08-19T15:44:54.000Z</time>
      </trkpt>
      <trkpt lat="45.18903" lon="5.79399">
        <ele>214.62</ele>
        <time>2019-08-19T15:44:59.000Z</time>
      </trkpt>
      <trkpt lat="45.189" lon="5.79446">
        <ele>214.45</ele>
        <time>2019-08-19T15:45:04.000Z</time>
      </trkpt>
      <trkpt lat="45.18897" lon="5.79493">
        <ele>214.54</ele>
        <time>2019-08-19T15:45:09.000Z</time>
      </trkpt>
      <trkpt lat="45.1889" lon="5.79539">
        <ele>215.77</ele>
        <time>2019-08-19T15:45:14.000Z</time>
      </trkpt>
      <trkpt lat="45.18887" lon="5.79584">
        <ele>216.98</ele>
        <time>2019-08-19T15:45:19.000Z</time>
      </trkpt>
      <trkpt lat="45.18881" lon="5.7963">
        <ele>217.41</ele>
        <time>2019-08-19T15:45:24.000Z</time>
      </trkpt>
      <trkpt lat="45.1887" lon="5.79676">
        <ele>216.37</ele>
        <time>2019-08-19T15:45:29.000Z</time>
      </trkpt>
      <trkpt lat="45.18857" lon="5.79721">
        <ele>215.14</ele>
        <time>2019-08-19T15:45:34.000Z</time>
      </trkpt>
      <trkpt lat="45.18842" lon="5.79762">
        <ele>215.51</ele>
        <time>2019-08-19T15:45:39.000Z</time>
      </trkpt>
      <trkpt lat="45.18826" lon="5.79801">
        <ele>214.79</ele>
        <time>2019-08-19T15:45:44.000Z</time>
      </trkpt>
      <trkpt lat="45.18806" lon="5.79841">
        <ele>217.41</ele>
        <time>2019-08-19T15:45:49.000Z</time>
      </trkpt>
      <trkpt lat="45.18787" lon="5.79876">
        <ele>216.46</ele>
        <time>2019-08-19T15:45:54.000Z</time>
      </trkpt>
      <trkpt lat="45.18773" lon="5.79919">
        <ele>217.3</ele>
        <time>2019-08-19T15:45:59.000Z</time>
      </trkpt>
      <trkpt lat="45.18758" lon="5.79958">
        <ele>218.45</ele>
        <time>2019-08-19T15:46:04.000Z</time>
      </trkpt>
      <trkpt lat="45.18736" lon="5.79995">
        <ele>216.2</ele>
        <time>2019-08-19T15:46:09.000Z</time>
      </trkpt>
      <trkpt lat="45.1872" lon="5.8003">
        <ele>214.43</ele>
        <time>2019-08-19T15:46:14.000Z</time>
      </trkpt>
      <trkpt lat="45.18709" lon="5.80064">
        <ele>216.61</ele>
        <time>2019-08-19T15:46:19.000Z</time>
      </trkpt>
      <trkpt lat="45.18703" lon="5.80103">
        <ele>217.9</ele>
        <time>2019-08-19T15:46:24.000Z</time>
      </trkpt>
      <trkpt lat="45.18694" lon="5.80147">
        <ele>218.56</ele>
        <time>2019-08-19T15:46:29.000Z</time>
      </trkpt>
      <trkpt lat="45.18682" lon="5.80187">
        <ele>219.19</ele>
        <time>2019-08-19T15:46:34.000Z</time>
      </trkpt>
      <trkpt lat="45.18664" lon="5.80229">
        <ele>218.13</ele>
        <time>2019-08-19T15:46:39.000Z</time>
      </trkpt>
      <trkpt lat="45.18657" lon="5.80276">
        <ele>218.17</ele>
        <time>2019-08-19T15:46:44.000Z</time>
      </trkpt>
      <trkpt lat="45.18656" lon="5.80322">
        <ele>217.14</ele>
        <time>2019-08-19T15:46:49.000Z</time>
      </trkpt>
      <trkpt lat="45.1866" lon="5.80368">
        <ele>217.59</ele>
        <time>2019-08-19T15:46:54.000Z</time>
      </trkpt>
      <trkpt lat="45.18669" lon="5.80411">
        <ele>216.2</ele>
        <time>2019-08-19T15:46:59.000Z</time>
      </trkpt>
      <trkpt lat="45.18672" lon="5.80459">
        <ele>214.47</ele>
        <time>2019-08-19T15:47:04.000Z</time>
      </trkpt>
      <trkpt lat="45.18683" lon="5.80506">
        <ele>215.51</ele>
        <time>2019-08-19T15:47:09.000Z</time>
      </trkpt>
      <trkpt lat="45.18701" lon="5.80547">
        <ele>215.66</ele>
        <time>2019-08-19T15:47:14.000Z</time>
      </trkpt>
      <trkpt lat="45.18719" lon="5.80588">
        <ele>216.43</ele>
        <time>2019-08-19T15:47:19.000Z</time>
      </trkpt>
      <trkpt lat="45.18748" lon="5.80617">
        <ele>215.53</ele>
        <time>2019-08-19T15:47:24.000Z</time>
      </trkpt>
      <trkpt lat="45.18778" lon="5.80639">
        <ele>214.8</ele>
        <time>2019-08-19T15:47:29.000Z</time>
      </trkpt>
      <trkpt lat="45.18807" lon="5.80654">
        <ele>214.57</ele>
        <time>2019-08-19T15:47:34.000Z</time>
      </trkpt>
      <trkpt lat="45.18834" lon="5.80665">
        <ele>214.89</ele>
        <time>2019-08-19T15:47:39.000Z</time>
      </trkpt>
      <trkpt lat="45.18858" lon="5.80677">
        <ele>219.12</ele>
        <time>2019-08-19T15:47:44.000Z</time>
      </trkpt>
      <trkpt lat="45.18842" lon="5.80705">
        <ele>215.8</ele>
        <time>2019-08-19T15:47:49.000Z</time>
      </trkpt>
      <trkpt lat="45.18813" lon="5.80719">
        <ele>214.8</ele>
        <time>2019-08-19T15:47:54.000Z</time>
      </trkpt>
      <trkpt lat="45.18789" lon="5.80723">
        <ele>216.59</ele>
        <time>2019-08-19T15:47:59.000Z</time>
      </trkpt>
      <trkpt lat="45.18779" lon="5.80727">
        <ele>217.79</ele>
        <time>2019-08-19T15:48:12.000Z</time>
      </trkpt>
      <trkpt lat="45.18768" lon="5.80743">
        <ele>218.6</ele>
        <time>2019-08-19T15:48:17.000Z</time>
      </trkpt>
      <trkpt lat="45.18769" lon="5.80771">
        <ele>220.34</ele>
        <time>2019-08-19T15:48:22.000Z</time>
      </trkpt>
      <trkpt lat="45.1879" lon="5.80793">
        <ele>221.73</ele>
        <time>2019-08-19T15:48:27.000Z</time>
      </trkpt>
      <trkpt lat="45.18808" lon="5.80818">
        <ele>220.59</ele>
        <time>2019-08-19T15:48:32.000Z</time>
      </trkpt>
      <trkpt lat="45.18822" lon="5.80848">
        <ele>221.25</ele>
        <time>2019-08-19T15:48:37.000Z</time>
      </trkpt>
      <trkpt lat="45.1884" lon="5.80884">
        <ele>215.19</ele>
        <time>2019-08-19T15:48:42.000Z</time>
      </trkpt>
      <trkpt lat="45.18854" lon="5.80919">
        <ele>213.1</ele>
        <time>2019-08-19T15:48:47.000Z</time>
      </trkpt>
      <trkpt lat="45.18867" lon="5.80949">
        <ele>211.26</ele>
        <time>2019-08-19T15:48:52.000Z</time>
      </trkpt>
      <trkpt lat="45.1888" lon="5.80979">
        <ele>213.45</ele>
        <time>2019-08-19T15:48:57.000Z</time>
      </trkpt>
      <trkpt lat="45.18891" lon="5.81006">
        <ele>216.12</ele>
        <time>2019-08-19T15:49:02.000Z</time>
      </trkpt>
      <trkpt lat="45.18902" lon="5.81029">
        <ele>217.44</ele>
        <time>2019-08-19T15:49:07.000Z</time>
      </trkpt>
      <trkpt lat="45.18916" lon="5.81056">
        <ele>217.23</ele>
        <time>2019-08-19T15:49:12.000Z</time>
      </trkpt>
      <trkpt lat="45.1893" lon="5.81086">
        <ele>217.02</ele>
        <time>2019-08-19T15:49:17.000Z</time>
      </trkpt>
      <trkpt lat="45.18945" lon="5.81119">
        <ele>218.39</ele>
        <time>2019-08-19T15:49:22.000Z</time>
      </trkpt>
      <trkpt lat="45.18959" lon="5.81148">
        <ele>218.84</ele>
        <time>2019-08-19T15:49:27.000Z</time>
      </trkpt>
      <trkpt lat="45.18976" lon="5.81186">
        <ele>221.49</ele>
        <time>2019-08-19T15:49:32.000Z</time>
      </trkpt>
      <trkpt lat="45.18994" lon="5.81229">
        <ele>220.83</ele>
        <time>2019-08-19T15:49:37.000Z</time>
      </trkpt>
      <trkpt lat="45.19008" lon="5.81271">
        <ele>221.1</ele>
        <time>2019-08-19T15:49:42.000Z</time>
      </trkpt>
      <trkpt lat="45.19026" lon="5.81307">
        <ele>222.24</ele>
        <time>2019-08-19T15:49:47.000Z</time>
      </trkpt>
      <trkpt lat="45.19039" lon="5.81336">
        <ele>221.72</ele>
        <time>2019-08-19T15:49:52.000Z</time>
      </trkpt>
      <trkpt lat="45.19054" lon="5.81369">
        <ele>222.73</ele>
        <time>2019-08-19T15:49:57.000Z</time>
      </trkpt>
      <trkpt lat="45.19069" lon="5.81405">
        <ele>222.01</ele>
        <time>2019-08-19T15:50:02.000Z</time>
      </trkpt>
      <trkpt lat="45.19087" lon="5.81442">
        <ele>221.93</ele>
        <time>2019-08-19T15:50:07.000Z</time>
      </trkpt>
      <trkpt lat="45.19106" lon="5.81478">
        <ele>221.67</ele>
        <time>2019-08-19T15:50:12.000Z</time>
      </trkpt>
      <trkpt lat="45.19123" lon="5.81516">
        <ele>220.44</ele>
        <time>2019-08-19T15:50:17.000Z</time>
      </trkpt>
      <trkpt lat="45.19137" lon="5.81551">
        <ele>220.42</ele>
        <time>2019-08-19T15:50:22.000Z</time>
      </trkpt>
      <trkpt lat="45.19146" lon="5.81586">
        <ele>221.09</ele>
        <time>2019-08-19T15:50:27.000Z</time>
      </trkpt>
      <trkpt lat="45.1916" lon="5.81617">
        <ele>222.31</ele>
        <time>2019-08-19T15:50:32.000Z</time>
      </trkpt>
      <trkpt lat="45.19172" lon="5.81649">
        <ele>223.18</ele>
        <time>2019-08-19T15:50:37.000Z</time>
      </trkpt>
      <trkpt lat="45.19187" lon="5.81674">
        <ele>221.74</ele>
        <time>2019-08-19T15:50:42.000Z</time>
      </trkpt>
      <trkpt lat="45.19193" lon="5.8169">
        <ele>223.26</ele>
        <time>2019-08-19T15:50:47.000Z</time>
      </trkpt>
      <trkpt lat="45.19198" lon="5.81702">
        <ele>226.59</ele>
        <time>2019-08-19T15:50:52.000Z</time>
      </trkpt>
      <trkpt lat="45.19204" lon="5.81715">
        <ele>223.23</ele>
        <time>2019-08-19T15:51:03.000Z</time>
      </trkpt>
      <trkpt lat="45.19216" lon="5.81732">
        <ele>223.12</ele>
        <time>2019-08-19T15:51:08.000Z</time>
      </trkpt>
      <trkpt lat="45.19226" lon="5.81753">
        <ele>223.16</ele>
        <time>2019-08-19T15:51:13.000Z</time>
      </trkpt>
      <trkpt lat="45.19233" lon="5.81773">
        <ele>224.68</ele>
        <time>2019-08-19T15:51:18.000Z</time>
      </trkpt>
      <trkpt lat="45.19241" lon="5.81797">
        <ele>224.75</ele>
        <time>2019-08-19T15:51:23.000Z</time>
      </trkpt>
      <trkpt lat="45.19251" lon="5.81827">
        <ele>224.65</ele>
        <time>2019-08-19T15:51:28.000Z</time>
      </trkpt>
      <trkpt lat="45.19262" lon="5.81866">
        <ele>224.01</ele>
        <time>2019-08-19T15:51:33.000Z</time>
      </trkpt>
      <trkpt lat="45.19279" lon="5.8191">
        <ele>223.06</ele>
        <time>2019-08-19T15:51:38.000Z</time>
      </trkpt>
      <trkpt lat="45.19295" lon="5.81961">
        <ele>222.53</ele>
        <time>2019-08-19T15:51:43.000Z</time>
      </trkpt>
      <trkpt lat="45.19313" lon="5.82009">
        <ele>222.95</ele>
        <time>2019-08-19T15:51:48.000Z</time>
      </trkpt>
      <trkpt lat="45.19323" lon="5.82042">
        <ele>221.91</ele>
        <time>2019-08-19T15:51:53.000Z</time>
      </trkpt>
      <trkpt lat="45.19336" lon="5.82076">
        <ele>222.08</ele>
        <time>2019-08-19T15:51:58.000Z</time>
      </trkpt>
      <trkpt lat="45.1935" lon="5.82109">
        <ele>222.52</ele>
        <time>2019-08-19T15:52:03.000Z</time>
      </trkpt>
      <trkpt lat="45.19362" lon="5.82143">
        <ele>221.13</ele>
        <time>2019-08-19T15:52:08.000Z</time>
      </trkpt>
      <trkpt lat="45.19374" lon="5.82175">
        <ele>220.76</ele>
        <time>2019-08-19T15:52:13.000Z</time>
      </trkpt>
      <trkpt lat="45.19386" lon="5.8221">
        <ele>220.58</ele>
        <time>2019-08-19T15:52:18.000Z</time>
      </trkpt>
      <trkpt lat="45.19399" lon="5.82244">
        <ele>219.94</ele>
        <time>2019-08-19T15:52:23.000Z</time>
      </trkpt>
      <trkpt lat="45.19411" lon="5.82278">
        <ele>219.5</ele>
        <time>2019-08-19T15:52:28.000Z</time>
      </trkpt>
      <trkpt lat="45.19423" lon="5.82312">
        <ele>221.11</ele>
        <time>2019-08-19T15:52:33.000Z</time>
      </trkpt>
      <trkpt lat="45.19436" lon="5.82348">
        <ele>220.59</ele>
        <time>2019-08-19T15:52:38.000Z</time>
      </trkpt>
      <trkpt lat="45.19451" lon="5.82386">
        <ele>220.63</ele>
        <time>2019-08-19T15:52:43.000Z</time>
      </trkpt>
      <trkpt lat="45.19462" lon="5.82423">
        <ele>220.87</ele>
        <time>2019-08-19T15:52:48.000Z</time>
      </trkpt>
      <trkpt lat="45.19476" lon="5.82459">
        <ele>221.66</ele>
        <time>2019-08-19T15:52:53.000Z</time>
      </trkpt>
      <trkpt lat="45.19487" lon="5.82495">
        <ele>221.36</ele>
        <time>2019-08-19T15:52:58.000Z</time>
      </trkpt>
      <trkpt lat="45.19503" lon="5.82531">
        <ele>220.47</ele>
        <time>2019-08-19T15:53:03.000Z</time>
      </trkpt>
      <trkpt lat="45.19519" lon="5.82573">
        <ele>220.17</ele>
        <time>2019-08-19T15:53:08.000Z</time>
      </trkpt>
      <trkpt lat="45.19538" lon="5.82609">
        <ele>218.87</ele>
        <time>2019-08-19T15:53:13.000Z</time>
      </trkpt>
      <trkpt lat="45.19553" lon="5.82646">
        <ele>218.19</ele>
        <time>2019-08-19T15:53:18.000Z</time>
      </trkpt>
      <trkpt lat="45.19569" lon="5.82686">
        <ele>218.14</ele>
        <time>2019-08-19T15:53:23.000Z</time>
      </trkpt>
      <trkpt lat="45.19582" lon="5.82723">
        <ele>218.81</ele>
        <time>2019-08-19T15:53:28.000Z</time>
      </trkpt>
      <trkpt lat="45.19594" lon="5.82759">
        <ele>219.82</ele>
        <time>2019-08-19T15:53:33.000Z</time>
      </trkpt>
      <trkpt lat="45.19607" lon="5.82794">
        <ele>220.38</ele>
        <time>2019-08-19T15:53:38.000Z</time>
      </trkpt>
      <trkpt lat="45.19617" lon="5.82825">
        <ele>221.07</ele>
        <time>2019-08-19T15:53:43.000Z</time>
      </trkpt>
      <trkpt lat="45.19629" lon="5.82854">
        <ele>217.93</ele>
        <time>2019-08-19T15:53:48.000Z</time>
      </trkpt>
      <trkpt lat="45.19643" lon="5.82883">
        <ele>219.53</ele>
        <time>2019-08-19T15:53:53.000Z</time>
      </trkpt>
      <trkpt lat="45.19652" lon="5.82909">
        <ele>220.22</ele>
        <time>2019-08-19T15:53:58.000Z</time>
      </trkpt>
      <trkpt lat="45.19663" lon="5.82919">
        <ele>224.77</ele>
        <time>2019-08-19T15:54:03.000Z</time>
      </trkpt>
      <trkpt lat="45.19669" lon="5.82941">
        <ele>228.01</ele>
        <time>2019-08-19T15:54:08.000Z</time>
      </trkpt>
      <trkpt lat="45.19667" lon="5.82969">
        <ele>229.1</ele>
        <time>2019-08-19T15:54:13.000Z</time>
      </trkpt>
      <trkpt lat="45.19678" lon="5.82996">
        <ele>227.45</ele>
        <time>2019-08-19T15:54:18.000Z</time>
      </trkpt>
      <trkpt lat="45.19688" lon="5.83025">
        <ele>227.77</ele>
        <time>2019-08-19T15:54:23.000Z</time>
      </trkpt>
      <trkpt lat="45.19698" lon="5.83056">
        <ele>229.17</ele>
        <time>2019-08-19T15:54:28.000Z</time>
      </trkpt>
      <trkpt lat="45.19709" lon="5.83089">
        <ele>230.55</ele>
        <time>2019-08-19T15:54:33.000Z</time>
      </trkpt>
      <trkpt lat="45.1972" lon="5.83119">
        <ele>233.61</ele>
        <time>2019-08-19T15:54:38.000Z</time>
      </trkpt>
      <trkpt lat="45.19731" lon="5.83149">
        <ele>232.28</ele>
        <time>2019-08-19T15:54:43.000Z</time>
      </trkpt>
      <trkpt lat="45.19742" lon="5.83179">
        <ele>234.04</ele>
        <time>2019-08-19T15:54:48.000Z</time>
      </trkpt>
      <trkpt lat="45.19754" lon="5.83213">
        <ele>232.38</ele>
        <time>2019-08-19T15:54:53.000Z</time>
      </trkpt>
      <trkpt lat="45.19765" lon="5.83245">
        <ele>233.32</ele>
        <time>2019-08-19T15:54:58.000Z</time>
      </trkpt>
      <trkpt lat="45.19777" lon="5.8328">
        <ele>232.35</ele>
        <time>2019-08-19T15:55:03.000Z</time>
      </trkpt>
      <trkpt lat="45.19789" lon="5.83312">
        <ele>234.38</ele>
        <time>2019-08-19T15:55:08.000Z</time>
      </trkpt>
      <trkpt lat="45.19801" lon="5.83345">
        <ele>233.26</ele>
        <time>2019-08-19T15:55:13.000Z</time>
      </trkpt>
      <trkpt lat="45.19811" lon="5.83377">
        <ele>233.49</ele>
        <time>2019-08-19T15:55:18.000Z</time>
      </trkpt>
      <trkpt lat="45.19823" lon="5.83401">
        <ele>230.83</ele>
        <time>2019-08-19T15:55:23.000Z</time>
      </trkpt>
      <trkpt lat="45.19831" lon="5.83428">
        <ele>231.51</ele>
        <time>2019-08-19T15:55:28.000Z</time>
      </trkpt>
      <trkpt lat="45.19838" lon="5.83455">
        <ele>232.05</ele>
        <time>2019-08-19T15:55:33.000Z</time>
      </trkpt>
      <trkpt lat="45.1985" lon="5.83483">
        <ele>231.61</ele>
        <time>2019-08-19T15:55:38.000Z</time>
      </trkpt>
      <trkpt lat="45.19861" lon="5.83513">
        <ele>233.34</ele>
        <time>2019-08-19T15:55:43.000Z</time>
      </trkpt>
      <trkpt lat="45.19872" lon="5.83543">
        <ele>233.89</ele>
        <time>2019-08-19T15:55:48.000Z</time>
      </trkpt>
      <trkpt lat="45.19882" lon="5.83573">
        <ele>235.36</ele>
        <time>2019-08-19T15:55:53.000Z</time>
      </trkpt>
      <trkpt lat="45.19896" lon="5.83604">
        <ele>235.79</ele>
        <time>2019-08-19T15:55:58.000Z</time>
      </trkpt>
      <trkpt lat="45.19912" lon="5.83633">
        <ele>235.89</ele>
        <time>2019-08-19T15:56:03.000Z</time>
      </trkpt>
      <trkpt lat="45.19928" lon="5.83662">
        <ele>239.44</ele>
        <time>2019-08-19T15:56:08.000Z</time>
      </trkpt>
      <trkpt lat="45.19948" lon="5.83687">
        <ele>239.34</ele>
        <time>2019-08-19T15:56:13.000Z</time>
      </trkpt>
      <trkpt lat="45.19967" lon="5.83717">
        <ele>241.11</ele>
        <time>2019-08-19T15:56:18.000Z</time>
      </trkpt>
      <trkpt lat="45.19988" lon="5.83739">
        <ele>238.86</ele>
        <time>2019-08-19T15:56:23.000Z</time>
      </trkpt>
      <trkpt lat="45.20008" lon="5.83762">
        <ele>240.52</ele>
        <time>2019-08-19T15:56:28.000Z</time>
      </trkpt>
      <trkpt lat="45.20018" lon="5.83774">
        <ele>240.19</ele>
        <time>2019-08-19T15:56:33.000Z</time>
      </trkpt>
      <trkpt lat="45.20024" lon="5.83787">
        <ele>238.79</ele>
        <time>2019-08-19T15:56:39.000Z</time>
      </trkpt>
      <trkpt lat="45.20039" lon="5.83805">
        <ele>241.1</ele>
        <time>2019-08-19T15:56:44.000Z</time>
      </trkpt>
      <trkpt lat="45.20059" lon="5.83822">
        <ele>240.34</ele>
        <time>2019-08-19T15:56:49.000Z</time>
      </trkpt>
      <trkpt lat="45.20081" lon="5.83839">
        <ele>243.67</ele>
        <time>2019-08-19T15:56:54.000Z</time>
      </trkpt>
      <trkpt lat="45.201" lon="5.83865">
        <ele>244.72</ele>
        <time>2019-08-19T15:56:59.000Z</time>
      </trkpt>
      <trkpt lat="45.20107" lon="5.83898">
        <ele>246.51</ele>
        <time>2019-08-19T15:57:04.000Z</time>
      </trkpt>
      <trkpt lat="45.20118" lon="5.83931">
        <ele>247.72</ele>
        <time>2019-08-19T15:57:09.000Z</time>
      </trkpt>
      <trkpt lat="45.20123" lon="5.8396">
        <ele>250.91</ele>
        <time>2019-08-19T15:57:14.000Z</time>
      </trkpt>
      <trkpt lat="45.20128" lon="5.83986">
        <ele>251.82</ele>
        <time>2019-08-19T15:57:19.000Z</time>
      </trkpt>
      <trkpt lat="45.20136" lon="5.84005">
        <ele>250.45</ele>
        <time>2019-08-19T15:57:24.000Z</time>
      </trkpt>
      <trkpt lat="45.20136" lon="5.8403">
        <ele>254.94</ele>
        <time>2019-08-19T15:57:29.000Z</time>
      </trkpt>
      <trkpt lat="45.20113" lon="5.84056">
        <ele>253.18</ele>
        <time>2019-08-19T15:57:34.000Z</time>
      </trkpt>
      <trkpt lat="45.20101" lon="5.8408">
        <ele>254.19</ele>
        <time>2019-08-19T15:57:39.000Z</time>
      </trkpt>
      <trkpt lat="45.20096" lon="5.84102">
        <ele>255.87</ele>
        <time>2019-08-19T15:57:44.000Z</time>
      </trkpt>
      <trkpt lat="45.20097" lon="5.84119">
        <ele>254.52</ele>
        <time>2019-08-19T15:58:35.000Z</time>
      </trkpt>
      <trkpt lat="45.20084" lon="5.84143">
        <ele>253.55</ele>
        <time>2019-08-19T15:58:40.000Z</time>
      </trkpt>
      <trkpt lat="45.20071" lon="5.84166">
        <ele>256.78</ele>
        <time>2019-08-19T15:58:45.000Z</time>
      </trkpt>
      <trkpt lat="45.20055" lon="5.84182">
        <ele>256.5</ele>
        <time>2019-08-19T15:58:50.000Z</time>
      </trkpt>
      <trkpt lat="45.20034" lon="5.84197">
        <ele>256.52</ele>
        <time>2019-08-19T15:58:55.000Z</time>
      </trkpt>
      <trkpt lat="45.20014" lon="5.84212">
        <ele>258.48</ele>
        <time>2019-08-19T15:59:00.000Z</time>
      </trkpt>
      <trkpt lat="45.19997" lon="5.84233">
        <ele>259.11</ele>
        <time>2019-08-19T15:59:05.000Z</time>
      </trkpt>
      <trkpt lat="45.20002" lon="5.8426">
        <ele>258.99</ele>
        <time>2019-08-19T15:59:10.000Z</time>
      </trkpt>
      <trkpt lat="45.20018" lon="5.8426">
        <ele>260.77</ele>
        <time>2019-08-19T15:59:15.000Z</time>
      </trkpt>
      <trkpt lat="45.20029" lon="5.84262">
        <ele>261.92</ele>
        <time>2019-08-19T15:59:37.000Z</time>
      </trkpt>
      <trkpt lat="45.20046" lon="5.84261">
        <ele>260.85</ele>
        <time>2019-08-19T15:59:42.000Z</time>
      </trkpt>
      <trkpt lat="45.20065" lon="5.84256">
        <ele>262.07</ele>
        <time>2019-08-19T15:59:47.000Z</time>
      </trkpt>
      <trkpt lat="45.20084" lon="5.84251">
        <ele>262.22</ele>
        <time>2019-08-19T15:59:52.000Z</time>
      </trkpt>
      <trkpt lat="45.20105" lon="5.84246">
        <ele>263.64</ele>
        <time>2019-08-19T15:59:57.000Z</time>
      </trkpt>
      <trkpt lat="45.20124" lon="5.84234">
        <ele>265.03</ele>
        <time>2019-08-19T16:00:02.000Z</time>
      </trkpt>
      <trkpt lat="45.20144" lon="5.84225">
        <ele>266.69</ele>
        <time>2019-08-19T16:00:07.000Z</time>
      </trkpt>
      <trkpt lat="45.20163" lon="5.84234">
        <ele>265.52</ele>
        <time>2019-08-19T16:00:12.000Z</time>
      </trkpt>
      <trkpt lat="45.20174" lon="5.84256">
        <ele>268.21</ele>
        <time>2019-08-19T16:00:17.000Z</time>
      </trkpt>
      <trkpt lat="45.20175" lon="5.84269">
        <ele>269.68</ele>
        <time>2019-08-19T16:00:22.000Z</time>
      </trkpt>
      <trkpt lat="45.20178" lon="5.84281">
        <ele>270.89</ele>
        <time>2019-08-19T16:00:34.000Z</time>
      </trkpt>
      <trkpt lat="45.20183" lon="5.84292">
        <ele>270.75</ele>
        <time>2019-08-19T16:00:40.000Z</time>
      </trkpt>
      <trkpt lat="45.20189" lon="5.84302">
        <ele>273.56</ele>
        <time>2019-08-19T16:00:47.000Z</time>
      </trkpt>
      <trkpt lat="45.20194" lon="5.84314">
        <ele>278.25</ele>
        <time>2019-08-19T16:01:19.000Z</time>
      </trkpt>
      <trkpt lat="45.20202" lon="5.84332">
        <ele>279.18</ele>
        <time>2019-08-19T16:01:24.000Z</time>
      </trkpt>
      <trkpt lat="45.20209" lon="5.8435">
        <ele>280.95</ele>
        <time>2019-08-19T16:01:29.000Z</time>
      </trkpt>
      <trkpt lat="45.20216" lon="5.84371">
        <ele>279.89</ele>
        <time>2019-08-19T16:01:34.000Z</time>
      </trkpt>
      <trkpt lat="45.2022" lon="5.84396">
        <ele>284.15</ele>
        <time>2019-08-19T16:01:39.000Z</time>
      </trkpt>
      <trkpt lat="45.20225" lon="5.84421">
        <ele>282.19</ele>
        <time>2019-08-19T16:01:44.000Z</time>
      </trkpt>
      <trkpt lat="45.20228" lon="5.8445">
        <ele>286.07</ele>
        <time>2019-08-19T16:01:49.000Z</time>
      </trkpt>
      <trkpt lat="45.20231" lon="5.84479">
        <ele>287.87</ele>
        <time>2019-08-19T16:01:54.000Z</time>
      </trkpt>
      <trkpt lat="45.20236" lon="5.84507">
        <ele>289.07</ele>
        <time>2019-08-19T16:01:59.000Z</time>
      </trkpt>
      <trkpt lat="45.20246" lon="5.84535">
        <ele>291.3</ele>
        <time>2019-08-19T16:02:04.000Z</time>
      </trkpt>
      <trkpt lat="45.20255" lon="5.84561">
        <ele>295.19</ele>
        <time>2019-08-19T16:02:09.000Z</time>
      </trkpt>
      <trkpt lat="45.20262" lon="5.84587">
        <ele>298.02</ele>
        <time>2019-08-19T16:02:14.000Z</time>
      </trkpt>
      <trkpt lat="45.20267" lon="5.84616">
        <ele>302.94</ele>
        <time>2019-08-19T16:02:19.000Z</time>
      </trkpt>
      <trkpt lat="45.20278" lon="5.84642">
        <ele>306.88</ele>
        <time>2019-08-19T16:02:24.000Z</time>
      </trkpt>
      <trkpt lat="45.20295" lon="5.84664">
        <ele>310.04</ele>
        <time>2019-08-19T16:02:29.000Z</time>
      </trkpt>
      <trkpt lat="45.20305" lon="5.84685">
        <ele>312.45</ele>
        <time>2019-08-19T16:02:34.000Z</time>
      </trkpt>
      <trkpt lat="45.2031" lon="5.84714">
        <ele>315.07</ele>
        <time>2019-08-19T16:02:39.000Z</time>
      </trkpt>
      <trkpt lat="45.20315" lon="5.84743">
        <ele>316.89</ele>
        <time>2019-08-19T16:02:44.000Z</time>
      </trkpt>
      <trkpt lat="45.20319" lon="5.84774">
        <ele>318.09</ele>
        <time>2019-08-19T16:02:49.000Z</time>
      </trkpt>
      <trkpt lat="45.20322" lon="5.84803">
        <ele>319.9</ele>
        <time>2019-08-19T16:02:54.000Z</time>
      </trkpt>
      <trkpt lat="45.20325" lon="5.84832">
        <ele>322.67</ele>
        <time>2019-08-19T16:02:59.000Z</time>
      </trkpt>
      <trkpt lat="45.20327" lon="5.8486">
        <ele>325.42</ele>
        <time>2019-08-19T16:03:04.000Z</time>
      </trkpt>
      <trkpt lat="45.20334" lon="5.84887">
        <ele>326.4</ele>
        <time>2019-08-19T16:03:09.000Z</time>
      </trkpt>
      <trkpt lat="45.20345" lon="5.84912">
        <ele>327.34</ele>
        <time>2019-08-19T16:03:14.000Z</time>
      </trkpt>
      <trkpt lat="45.20355" lon="5.84937">
        <ele>328.99</ele>
        <time>2019-08-19T16:03:19.000Z</time>
      </trkpt>
      <trkpt lat="45.20364" lon="5.84963">
        <ele>328.44</ele>
        <time>2019-08-19T16:03:24.000Z</time>
      </trkpt>
      <trkpt lat="45.20374" lon="5.84988">
        <ele>333.77</ele>
        <time>2019-08-19T16:03:29.000Z</time>
      </trkpt>
      <trkpt lat="45.20382" lon="5.85013">
        <ele>337.88</ele>
        <time>2019-08-19T16:03:34.000Z</time>
      </trkpt>
      <trkpt lat="45.20391" lon="5.85038">
        <ele>340.11</ele>
        <time>2019-08-19T16:03:39.000Z</time>
      </trkpt>
      <trkpt lat="45.20402" lon="5.85063">
        <ele>341.31</ele>
        <time>2019-08-19T16:03:44.000Z</time>
      </trkpt>
      <trkpt lat="45.2041" lon="5.85086">
        <ele>341.38</ele>
        <time>2019-08-19T16:03:49.000Z</time>
      </trkpt>
      <trkpt lat="45.20413" lon="5.851">
        <ele>342.57</ele>
        <time>2019-08-19T16:03:54.000Z</time>
      </trkpt>
      <trkpt lat="45.20411" lon="5.85113">
        <ele>342.23</ele>
        <time>2019-08-19T16:04:10.000Z</time>
      </trkpt>
      <trkpt lat="45.20401" lon="5.85114">
        <ele>342.56</ele>
        <time>2019-08-19T16:04:42.000Z</time>
      </trkpt>
      <trkpt lat="45.20391" lon="5.85097">
        <ele>344.47</ele>
        <time>2019-08-19T16:04:47.000Z</time>
      </trkpt>
      <trkpt lat="45.20387" lon="5.85073">
        <ele>343.23</ele>
        <time>2019-08-19T16:04:52.000Z</time>
      </trkpt>
      <trkpt lat="45.20381" lon="5.85054">
        <ele>344.88</ele>
        <time>2019-08-19T16:04:57.000Z</time>
      </trkpt>
      <trkpt lat="45.20369" lon="5.85037">
        <ele>343.73</ele>
        <time>2019-08-19T16:05:02.000Z</time>
      </trkpt>
      <trkpt lat="45.20358" lon="5.85018">
        <ele>345.99</ele>
        <time>2019-08-19T16:05:07.000Z</time>
      </trkpt>
      <trkpt lat="45.20349" lon="5.84995">
        <ele>351.07</ele>
        <time>2019-08-19T16:05:12.000Z</time>
      </trkpt>
      <trkpt lat="45.20338" lon="5.84973">
        <ele>351.84</ele>
        <time>2019-08-19T16:05:17.000Z</time>
      </trkpt>
      <trkpt lat="45.20327" lon="5.84952">
        <ele>350.12</ele>
        <time>2019-08-19T16:05:22.000Z</time>
      </trkpt>
      <trkpt lat="45.20315" lon="5.84931">
        <ele>351.31</ele>
        <time>2019-08-19T16:05:27.000Z</time>
      </trkpt>
      <trkpt lat="45.20303" lon="5.84911">
        <ele>357.09</ele>
        <time>2019-08-19T16:05:32.000Z</time>
      </trkpt>
      <trkpt lat="45.20292" lon="5.84889">
        <ele>360.27</ele>
        <time>2019-08-19T16:05:37.000Z</time>
      </trkpt>
      <trkpt lat="45.20283" lon="5.84863">
        <ele>363.7</ele>
        <time>2019-08-19T16:05:42.000Z</time>
      </trkpt>
      <trkpt lat="45.20276" lon="5.84837">
        <ele>358.92</ele>
        <time>2019-08-19T16:05:47.000Z</time>
      </trkpt>
      <trkpt lat="45.20267" lon="5.84811">
        <ele>358.12</ele>
        <time>2019-08-19T16:05:52.000Z</time>
      </trkpt>
      <trkpt lat="45.20261" lon="5.84784">
        <ele>359.99</ele>
        <time>2019-08-19T16:05:57.000Z</time>
      </trkpt>
      <trkpt lat="45.20254" lon="5.84759">
        <ele>362.41</ele>
        <time>2019-08-19T16:06:02.000Z</time>
      </trkpt>
      <trkpt lat="45.20241" lon="5.84736">
        <ele>365.28</ele>
        <time>2019-08-19T16:06:07.000Z</time>
      </trkpt>
      <trkpt lat="45.20226" lon="5.84718">
        <ele>368.15</ele>
        <time>2019-08-19T16:06:12.000Z</time>
      </trkpt>
      <trkpt lat="45.20211" lon="5.84704">
        <ele>368.94</ele>
        <time>2019-08-19T16:06:17.000Z</time>
      </trkpt>
      <trkpt lat="45.20196" lon="5.84687">
        <ele>368.08</ele>
        <time>2019-08-19T16:06:22.000Z</time>
      </trkpt>
      <trkpt lat="45.2018" lon="5.8467">
        <ele>368.7</ele>
        <time>2019-08-19T16:06:27.000Z</time>
      </trkpt>
      <trkpt lat="45.20169" lon="5.84646">
        <ele>371.38</ele>
        <time>2019-08-19T16:06:32.000Z</time>
      </trkpt>
      <trkpt lat="45.20162" lon="5.84619">
        <ele>375.95</ele>
        <time>2019-08-19T16:06:37.000Z</time>
      </trkpt>
      <trkpt lat="45.20151" lon="5.84593">
        <ele>371.8</ele>
        <time>2019-08-19T16:06:42.000Z</time>
      </trkpt>
      <trkpt lat="45.20142" lon="5.84568">
        <ele>376.44</ele>
        <time>2019-08-19T16:06:47.000Z</time>
      </trkpt>
      <trkpt lat="45.20131" lon="5.84544">
        <ele>379.8</ele>
        <time>2019-08-19T16:06:52.000Z</time>
      </trkpt>
      <trkpt lat="45.20118" lon="5.84519">
        <ele>379.7</ele>
        <time>2019-08-19T16:06:57.000Z</time>
      </trkpt>
      <trkpt lat="45.20106" lon="5.84497">
        <ele>382.66</ele>
        <time>2019-08-19T16:07:02.000Z</time>
      </trkpt>
      <trkpt lat="45.20094" lon="5.84475">
        <ele>384.41</ele>
        <time>2019-08-19T16:07:07.000Z</time>
      </trkpt>
      <trkpt lat="45.20076" lon="5.84467">
        <ele>387.58</ele>
        <time>2019-08-19T16:07:12.000Z</time>
      </trkpt>
      <trkpt lat="45.20056" lon="5.8447">
        <ele>388.49</ele>
        <time>2019-08-19T16:07:17.000Z</time>
      </trkpt>
      <trkpt lat="45.20036" lon="5.84478">
        <ele>390.09</ele>
        <time>2019-08-19T16:07:22.000Z</time>
      </trkpt>
      <trkpt lat="45.20017" lon="5.84485">
        <ele>390.91</ele>
        <time>2019-08-19T16:07:27.000Z</time>
      </trkpt>
      <trkpt lat="45.19998" lon="5.84492">
        <ele>390.84</ele>
        <time>2019-08-19T16:07:32.000Z</time>
      </trkpt>
      <trkpt lat="45.1998" lon="5.84496">
        <ele>394.25</ele>
        <time>2019-08-19T16:07:37.000Z</time>
      </trkpt>
      <trkpt lat="45.19962" lon="5.84504">
        <ele>395.83</ele>
        <time>2019-08-19T16:07:42.000Z</time>
      </trkpt>
      <trkpt lat="45.19948" lon="5.84525">
        <ele>397.46</ele>
        <time>2019-08-19T16:07:47.000Z</time>
      </trkpt>
      <trkpt lat="45.1994" lon="5.84551">
        <ele>398.36</ele>
        <time>2019-08-19T16:07:52.000Z</time>
      </trkpt>
      <trkpt lat="45.19931" lon="5.84575">
        <ele>404.13</ele>
        <time>2019-08-19T16:07:57.000Z</time>
      </trkpt>
      <trkpt lat="45.1992" lon="5.84596">
        <ele>410.18</ele>
        <time>2019-08-19T16:08:02.000Z</time>
      </trkpt>
      <trkpt lat="45.19906" lon="5.84613">
        <ele>414.54</ele>
        <time>2019-08-19T16:08:07.000Z</time>
      </trkpt>
      <trkpt lat="45.1989" lon="5.8463">
        <ele>416.81</ele>
        <time>2019-08-19T16:08:12.000Z</time>
      </trkpt>
      <trkpt lat="45.19876" lon="5.84652">
        <ele>418.81</ele>
        <time>2019-08-19T16:08:17.000Z</time>
      </trkpt>
      <trkpt lat="45.19863" lon="5.84674">
        <ele>420.73</ele>
        <time>2019-08-19T16:08:22.000Z</time>
      </trkpt>
      <trkpt lat="45.19851" lon="5.84697">
        <ele>423.14</ele>
        <time>2019-08-19T16:08:27.000Z</time>
      </trkpt>
      <trkpt lat="45.19849" lon="5.84726">
        <ele>423.07</ele>
        <time>2019-08-19T16:08:32.000Z</time>
      </trkpt>
      <trkpt lat="45.19857" lon="5.84752">
        <ele>425.47</ele>
        <time>2019-08-19T16:08:37.000Z</time>
      </trkpt>
      <trkpt lat="45.19865" lon="5.84777">
        <ele>425.91</ele>
        <time>2019-08-19T16:08:42.000Z</time>
      </trkpt>
      <trkpt lat="45.19844" lon="5.84786">
        <ele>427.15</ele>
        <time>2019-08-19T16:08:47.000Z</time>
      </trkpt>
      <trkpt lat="45.19822" lon="5.84788">
        <ele>430.55</ele>
        <time>2019-08-19T16:08:52.000Z</time>
      </trkpt>
      <trkpt lat="45.19801" lon="5.84802">
        <ele>432.24</ele>
        <time>2019-08-19T16:08:57.000Z</time>
      </trkpt>
      <trkpt lat="45.19781" lon="5.84816">
        <ele>433.27</ele>
        <time>2019-08-19T16:09:02.000Z</time>
      </trkpt>
      <trkpt lat="45.1976" lon="5.8483">
        <ele>434.28</ele>
        <time>2019-08-19T16:09:07.000Z</time>
      </trkpt>
      <trkpt lat="45.19738" lon="5.8484">
        <ele>434.15</ele>
        <time>2019-08-19T16:09:12.000Z</time>
      </trkpt>
      <trkpt lat="45.19718" lon="5.84848">
        <ele>438.1</ele>
        <time>2019-08-19T16:09:17.000Z</time>
      </trkpt>
      <trkpt lat="45.19701" lon="5.84865">
        <ele>440.68</ele>
        <time>2019-08-19T16:09:22.000Z</time>
      </trkpt>
      <trkpt lat="45.19681" lon="5.84878">
        <ele>442.32</ele>
        <time>2019-08-19T16:09:27.000Z</time>
      </trkpt>
      <trkpt lat="45.19661" lon="5.84896">
        <ele>443.49</ele>
        <time>2019-08-19T16:09:32.000Z</time>
      </trkpt>
      <trkpt lat="45.19647" lon="5.84922">
        <ele>442.97</ele>
        <time>2019-08-19T16:09:37.000Z</time>
      </trkpt>
      <trkpt lat="45.19632" lon="5.84943">
        <ele>443.54</ele>
        <time>2019-08-19T16:09:42.000Z</time>
      </trkpt>
      <trkpt lat="45.19615" lon="5.84957">
        <ele>450.42</ele>
        <time>2019-08-19T16:09:47.000Z</time>
      </trkpt>
      <trkpt lat="45.19597" lon="5.84971">
        <ele>453.5</ele>
        <time>2019-08-19T16:09:52.000Z</time>
      </trkpt>
      <trkpt lat="45.19578" lon="5.84986">
        <ele>455.36</ele>
        <time>2019-08-19T16:09:57.000Z</time>
      </trkpt>
      <trkpt lat="45.19561" lon="5.84998">
        <ele>459.57</ele>
        <time>2019-08-19T16:10:02.000Z</time>
      </trkpt>
      <trkpt lat="45.1954" lon="5.85007">
        <ele>461.59</ele>
        <time>2019-08-19T16:10:07.000Z</time>
      </trkpt>
      <trkpt lat="45.1952" lon="5.85019">
        <ele>463.34</ele>
        <time>2019-08-19T16:10:12.000Z</time>
      </trkpt>
      <trkpt lat="45.19503" lon="5.85037">
        <ele>461.74</ele>
        <time>2019-08-19T16:10:17.000Z</time>
      </trkpt>
      <trkpt lat="45.19483" lon="5.8506">
        <ele>465.85</ele>
        <time>2019-08-19T16:10:22.000Z</time>
      </trkpt>
      <trkpt lat="45.1947" lon="5.85085">
        <ele>467.47</ele>
        <time>2019-08-19T16:10:27.000Z</time>
      </trkpt>
      <trkpt lat="45.19464" lon="5.85117">
        <ele>471.67</ele>
        <time>2019-08-19T16:10:32.000Z</time>
      </trkpt>
      <trkpt lat="45.19465" lon="5.85149">
        <ele>473.94</ele>
        <time>2019-08-19T16:10:37.000Z</time>
      </trkpt>
      <trkpt lat="45.19458" lon="5.85177">
        <ele>478.56</ele>
        <time>2019-08-19T16:10:42.000Z</time>
      </trkpt>
      <trkpt lat="45.19437" lon="5.85182">
        <ele>480.14</ele>
        <time>2019-08-19T16:10:47.000Z</time>
      </trkpt>
      <trkpt lat="45.19417" lon="5.85177">
        <ele>481.7</ele>
        <time>2019-08-19T16:10:52.000Z</time>
      </trkpt>
      <trkpt lat="45.19397" lon="5.85187">
        <ele>483.04</ele>
        <time>2019-08-19T16:10:57.000Z</time>
      </trkpt>
      <trkpt lat="45.19384" lon="5.85212">
        <ele>479.34</ele>
        <time>2019-08-19T16:11:02.000Z</time>
      </trkpt>
      <trkpt lat="45.1938" lon="5.85244">
        <ele>481.46</ele>
        <time>2019-08-19T16:11:07.000Z</time>
      </trkpt>
      <trkpt lat="45.19379" lon="5.85274">
        <ele>484.68</ele>
        <time>2019-08-19T16:11:12.000Z</time>
      </trkpt>
      <trkpt lat="45.1938" lon="5.85305">
        <ele>484.65</ele>
        <time>2019-08-19T16:11:17.000Z</time>
      </trkpt>
      <trkpt lat="45.19384" lon="5.85337">
        <ele>483.98</ele>
        <time>2019-08-19T16:11:22.000Z</time>
      </trkpt>
      <trkpt lat="45.19385" lon="5.85366">
        <ele>485.53</ele>
        <time>2019-08-19T16:11:27.000Z</time>
      </trkpt>
      <trkpt lat="45.19361" lon="5.85368">
        <ele>494.53</ele>
        <time>2019-08-19T16:11:32.000Z</time>
      </trkpt>
      <trkpt lat="45.19348" lon="5.85337">
        <ele>495.25</ele>
        <time>2019-08-19T16:11:37.000Z</time>
      </trkpt>
      <trkpt lat="45.19322" lon="5.8533">
        <ele>497.94</ele>
        <time>2019-08-19T16:11:42.000Z</time>
      </trkpt>
      <trkpt lat="45.19295" lon="5.85338">
        <ele>500.09</ele>
        <time>2019-08-19T16:11:47.000Z</time>
      </trkpt>
      <trkpt lat="45.19271" lon="5.8535">
        <ele>501.59</ele>
        <time>2019-08-19T16:11:52.000Z</time>
      </trkpt>
      <trkpt lat="45.19249" lon="5.85362">
        <ele>501.47</ele>
        <time>2019-08-19T16:11:57.000Z</time>
      </trkpt>
      <trkpt lat="45.19227" lon="5.85365">
        <ele>503.08</ele>
        <time>2019-08-19T16:12:02.000Z</time>
      </trkpt>
      <trkpt lat="45.19204" lon="5.85372">
        <ele>504.84</ele>
        <time>2019-08-19T16:12:07.000Z</time>
      </trkpt>
      <trkpt lat="45.19183" lon="5.85382">
        <ele>509.1</ele>
        <time>2019-08-19T16:12:12.000Z</time>
      </trkpt>
      <trkpt lat="45.19162" lon="5.85399">
        <ele>512.08</ele>
        <time>2019-08-19T16:12:17.000Z</time>
      </trkpt>
      <trkpt lat="45.19142" lon="5.8542">
        <ele>512.88</ele>
        <time>2019-08-19T16:12:22.000Z</time>
      </trkpt>
      <trkpt lat="45.19122" lon="5.85446">
        <ele>514.31</ele>
        <time>2019-08-19T16:12:27.000Z</time>
      </trkpt>
      <trkpt lat="45.19104" lon="5.85469">
        <ele>517.09</ele>
        <time>2019-08-19T16:12:32.000Z</time>
      </trkpt>
      <trkpt lat="45.19084" lon="5.85488">
        <ele>518.95</ele>
        <time>2019-08-19T16:12:37.000Z</time>
      </trkpt>
      <trkpt lat="45.19062" lon="5.85501">
        <ele>520.74</ele>
        <time>2019-08-19T16:12:42.000Z</time>
      </trkpt>
      <trkpt lat="45.19038" lon="5.85511">
        <ele>522.59</ele>
        <time>2019-08-19T16:12:47.000Z</time>
      </trkpt>
      <trkpt lat="45.19016" lon="5.85523">
        <ele>523.57</ele>
        <time>2019-08-19T16:12:52.000Z</time>
      </trkpt>
      <trkpt lat="45.18999" lon="5.85535">
        <ele>524.04</ele>
        <time>2019-08-19T16:12:57.000Z</time>
      </trkpt>
      <trkpt lat="45.18982" lon="5.85558">
        <ele>526.85</ele>
        <time>2019-08-19T16:13:02.000Z</time>
      </trkpt>
      <trkpt lat="45.18969" lon="5.85587">
        <ele>529.74</ele>
        <time>2019-08-19T16:13:07.000Z</time>
      </trkpt>
      <trkpt lat="45.18959" lon="5.85614">
        <ele>531.92</ele>
        <time>2019-08-19T16:13:12.000Z</time>
      </trkpt>
      <trkpt lat="45.18947" lon="5.8564">
        <ele>532</ele>
        <time>2019-08-19T16:13:17.000Z</time>
      </trkpt>
      <trkpt lat="45.18942" lon="5.85669">
        <ele>532.63</ele>
        <time>2019-08-19T16:13:22.000Z</time>
      </trkpt>
      <trkpt lat="45.18946" lon="5.85703">
        <ele>534.42</ele>
        <time>2019-08-19T16:13:27.000Z</time>
      </trkpt>
      <trkpt lat="45.18952" lon="5.85734">
        <ele>537.67</ele>
        <time>2019-08-19T16:13:32.000Z</time>
      </trkpt>
      <trkpt lat="45.18959" lon="5.85766">
        <ele>539.74</ele>
        <time>2019-08-19T16:13:37.000Z</time>
      </trkpt>
      <trkpt lat="45.18959" lon="5.85798">
        <ele>540.74</ele>
        <time>2019-08-19T16:13:42.000Z</time>
      </trkpt>
      <trkpt lat="45.18962" lon="5.85831">
        <ele>541.57</ele>
        <time>2019-08-19T16:13:47.000Z</time>
      </trkpt>
      <trkpt lat="45.18961" lon="5.85863">
        <ele>544.28</ele>
        <time>2019-08-19T16:13:52.000Z</time>
      </trkpt>
      <trkpt lat="45.18964" lon="5.85896">
        <ele>544.88</ele>
        <time>2019-08-19T16:13:57.000Z</time>
      </trkpt>
      <trkpt lat="45.18966" lon="5.8593">
        <ele>553.64</ele>
        <time>2019-08-19T16:14:02.000Z</time>
      </trkpt>
      <trkpt lat="45.18969" lon="5.85964">
        <ele>557.62</ele>
        <time>2019-08-19T16:14:07.000Z</time>
      </trkpt>
      <trkpt lat="45.18964" lon="5.85998">
        <ele>556.64</ele>
        <time>2019-08-19T16:14:12.000Z</time>
      </trkpt>
      <trkpt lat="45.1896" lon="5.8603">
        <ele>551.14</ele>
        <time>2019-08-19T16:14:17.000Z</time>
      </trkpt>
      <trkpt lat="45.18951" lon="5.86064">
        <ele>552.62</ele>
        <time>2019-08-19T16:14:22.000Z</time>
      </trkpt>
      <trkpt lat="45.18943" lon="5.86099">
        <ele>554.92</ele>
        <time>2019-08-19T16:14:27.000Z</time>
      </trkpt>
      <trkpt lat="45.18939" lon="5.86131">
        <ele>558.43</ele>
        <time>2019-08-19T16:14:32.000Z</time>
      </trkpt>
      <trkpt lat="45.18937" lon="5.86168">
        <ele>559.44</ele>
        <time>2019-08-19T16:14:37.000Z</time>
      </trkpt>
      <trkpt lat="45.18932" lon="5.86198">
        <ele>563.47</ele>
        <time>2019-08-19T16:14:42.000Z</time>
      </trkpt>
      <trkpt lat="45.18928" lon="5.86228">
        <ele>565.02</ele>
        <time>2019-08-19T16:14:47.000Z</time>
      </trkpt>
      <trkpt lat="45.18922" lon="5.86259">
        <ele>568.83</ele>
        <time>2019-08-19T16:14:52.000Z</time>
      </trkpt>
      <trkpt lat="45.18912" lon="5.8629">
        <ele>571.5</ele>
        <time>2019-08-19T16:14:57.000Z</time>
      </trkpt>
      <trkpt lat="45.18907" lon="5.8632">
        <ele>571.66</ele>
        <time>2019-08-19T16:15:02.000Z</time>
      </trkpt>
      <trkpt lat="45.18899" lon="5.86349">
        <ele>576.36</ele>
        <time>2019-08-19T16:15:07.000Z</time>
      </trkpt>
      <trkpt lat="45.1889" lon="5.86374">
        <ele>579.13</ele>
        <time>2019-08-19T16:15:12.000Z</time>
      </trkpt>
      <trkpt lat="45.18875" lon="5.86396">
        <ele>581.64</ele>
        <time>2019-08-19T16:15:17.000Z</time>
      </trkpt>
      <trkpt lat="45.18859" lon="5.86418">
        <ele>585.67</ele>
        <time>2019-08-19T16:15:22.000Z</time>
      </trkpt>
      <trkpt lat="45.18843" lon="5.86438">
        <ele>585.85</ele>
        <time>2019-08-19T16:15:27.000Z</time>
      </trkpt>
      <trkpt lat="45.18823" lon="5.86452">
        <ele>588.75</ele>
        <time>2019-08-19T16:15:32.000Z</time>
      </trkpt>
      <trkpt lat="45.18802" lon="5.86454">
        <ele>590.92</ele>
        <time>2019-08-19T16:15:37.000Z</time>
      </trkpt>
      <trkpt lat="45.18782" lon="5.8646">
        <ele>592.89</ele>
        <time>2019-08-19T16:15:42.000Z</time>
      </trkpt>
      <trkpt lat="45.18775" lon="5.86489">
        <ele>594.4</ele>
        <time>2019-08-19T16:15:47.000Z</time>
      </trkpt>
      <trkpt lat="45.18785" lon="5.86521">
        <ele>597.09</ele>
        <time>2019-08-19T16:15:52.000Z</time>
      </trkpt>
      <trkpt lat="45.18792" lon="5.86551">
        <ele>599.79</ele>
        <time>2019-08-19T16:15:57.000Z</time>
      </trkpt>
      <trkpt lat="45.18797" lon="5.86583">
        <ele>601.75</ele>
        <time>2019-08-19T16:16:02.000Z</time>
      </trkpt>
      <trkpt lat="45.18796" lon="5.86614">
        <ele>602.71</ele>
        <time>2019-08-19T16:16:07.000Z</time>
      </trkpt>
      <trkpt lat="45.18787" lon="5.86644">
        <ele>604.04</ele>
        <time>2019-08-19T16:16:12.000Z</time>
      </trkpt>
      <trkpt lat="45.18774" lon="5.86668">
        <ele>605.38</ele>
        <time>2019-08-19T16:16:17.000Z</time>
      </trkpt>
      <trkpt lat="45.18758" lon="5.86689">
        <ele>609.15</ele>
        <time>2019-08-19T16:16:22.000Z</time>
      </trkpt>
      <trkpt lat="45.18742" lon="5.8671">
        <ele>611.37</ele>
        <time>2019-08-19T16:16:27.000Z</time>
      </trkpt>
      <trkpt lat="45.18726" lon="5.86731">
        <ele>611.99</ele>
        <time>2019-08-19T16:16:32.000Z</time>
      </trkpt>
      <trkpt lat="45.18712" lon="5.86755">
        <ele>614.29</ele>
        <time>2019-08-19T16:16:37.000Z</time>
      </trkpt>
      <trkpt lat="45.18701" lon="5.86779">
        <ele>614.17</ele>
        <time>2019-08-19T16:16:42.000Z</time>
      </trkpt>
      <trkpt lat="45.18687" lon="5.86807">
        <ele>619.5</ele>
        <time>2019-08-19T16:16:47.000Z</time>
      </trkpt>
      <trkpt lat="45.18675" lon="5.86834">
        <ele>620.83</ele>
        <time>2019-08-19T16:16:52.000Z</time>
      </trkpt>
      <trkpt lat="45.18665" lon="5.86862">
        <ele>623.43</ele>
        <time>2019-08-19T16:16:57.000Z</time>
      </trkpt>
      <trkpt lat="45.18661" lon="5.86893">
        <ele>625.64</ele>
        <time>2019-08-19T16:17:02.000Z</time>
      </trkpt>
      <trkpt lat="45.18649" lon="5.8692">
        <ele>626.26</ele>
        <time>2019-08-19T16:17:07.000Z</time>
      </trkpt>
      <trkpt lat="45.18627" lon="5.86922">
        <ele>626.57</ele>
        <time>2019-08-19T16:17:12.000Z</time>
      </trkpt>
      <trkpt lat="45.18612" lon="5.86905">
        <ele>624.22</ele>
        <time>2019-08-19T16:17:17.000Z</time>
      </trkpt>
      <trkpt lat="45.18603" lon="5.86877">
        <ele>624.62</ele>
        <time>2019-08-19T16:17:22.000Z</time>
      </trkpt>
      <trkpt lat="45.18585" lon="5.86862">
        <ele>627.12</ele>
        <time>2019-08-19T16:17:27.000Z</time>
      </trkpt>
      <trkpt lat="45.1857" lon="5.86871">
        <ele>629.06</ele>
        <time>2019-08-19T16:17:32.000Z</time>
      </trkpt>
      <trkpt lat="45.18575" lon="5.86889">
        <ele>628.82</ele>
        <time>2019-08-19T16:17:37.000Z</time>
      </trkpt>
      <trkpt lat="45.18587" lon="5.86915">
        <ele>630.18</ele>
        <time>2019-08-19T16:17:42.000Z</time>
      </trkpt>
      <trkpt lat="45.18591" lon="5.86951">
        <ele>631.38</ele>
        <time>2019-08-19T16:17:47.000Z</time>
      </trkpt>
      <trkpt lat="45.18591" lon="5.86984">
        <ele>634.35</ele>
        <time>2019-08-19T16:17:52.000Z</time>
      </trkpt>
      <trkpt lat="45.18582" lon="5.87013">
        <ele>634.54</ele>
        <time>2019-08-19T16:17:57.000Z</time>
      </trkpt>
      <trkpt lat="45.18573" lon="5.8704">
        <ele>637.47</ele>
        <time>2019-08-19T16:18:02.000Z</time>
      </trkpt>
      <trkpt lat="45.18561" lon="5.87057">
        <ele>642.78</ele>
        <time>2019-08-19T16:18:07.000Z</time>
      </trkpt>
      <trkpt lat="45.18543" lon="5.87059">
        <ele>647.44</ele>
        <time>2019-08-19T16:18:12.000Z</time>
      </trkpt>
      <trkpt lat="45.18525" lon="5.87056">
        <ele>649.69</ele>
        <time>2019-08-19T16:18:17.000Z</time>
      </trkpt>
      <trkpt lat="45.1851" lon="5.87063">
        <ele>652.67</ele>
        <time>2019-08-19T16:18:22.000Z</time>
      </trkpt>
      <trkpt lat="45.18497" lon="5.8708">
        <ele>656.02</ele>
        <time>2019-08-19T16:18:27.000Z</time>
      </trkpt>
      <trkpt lat="45.18481" lon="5.87092">
        <ele>657.33</ele>
        <time>2019-08-19T16:18:32.000Z</time>
      </trkpt>
      <trkpt lat="45.18461" lon="5.87099">
        <ele>658.29</ele>
        <time>2019-08-19T16:18:37.000Z</time>
      </trkpt>
      <trkpt lat="45.18441" lon="5.87105">
        <ele>660.02</ele>
        <time>2019-08-19T16:18:42.000Z</time>
      </trkpt>
      <trkpt lat="45.18421" lon="5.87112">
        <ele>661.32</ele>
        <time>2019-08-19T16:18:47.000Z</time>
      </trkpt>
      <trkpt lat="45.18405" lon="5.87128">
        <ele>661.5</ele>
        <time>2019-08-19T16:18:52.000Z</time>
      </trkpt>
      <trkpt lat="45.18406" lon="5.87157">
        <ele>659.2</ele>
        <time>2019-08-19T16:18:57.000Z</time>
      </trkpt>
      <trkpt lat="45.18425" lon="5.87173">
        <ele>661.76</ele>
        <time>2019-08-19T16:19:02.000Z</time>
      </trkpt>
      <trkpt lat="45.18436" lon="5.87188">
        <ele>660.79</ele>
        <time>2019-08-19T16:19:07.000Z</time>
      </trkpt>
      <trkpt lat="45.18428" lon="5.87206">
        <ele>662</ele>
        <time>2019-08-19T16:19:12.000Z</time>
      </trkpt>
      <trkpt lat="45.18414" lon="5.87219">
        <ele>664.01</ele>
        <time>2019-08-19T16:19:17.000Z</time>
      </trkpt>
      <trkpt lat="45.18404" lon="5.87236">
        <ele>665.26</ele>
        <time>2019-08-19T16:19:22.000Z</time>
      </trkpt>
      <trkpt lat="45.18394" lon="5.87254">
        <ele>670.45</ele>
        <time>2019-08-19T16:19:27.000Z</time>
      </trkpt>
      <trkpt lat="45.18387" lon="5.87274">
        <ele>672.87</ele>
        <time>2019-08-19T16:19:32.000Z</time>
      </trkpt>
      <trkpt lat="45.18386" lon="5.87296">
        <ele>674.61</ele>
        <time>2019-08-19T16:19:37.000Z</time>
      </trkpt>
      <trkpt lat="45.18391" lon="5.8732">
        <ele>677.77</ele>
        <time>2019-08-19T16:19:42.000Z</time>
      </trkpt>
      <trkpt lat="45.18395" lon="5.87342">
        <ele>681.65</ele>
        <time>2019-08-19T16:19:47.000Z</time>
      </trkpt>
      <trkpt lat="45.18394" lon="5.87364">
        <ele>685.51</ele>
        <time>2019-08-19T16:19:52.000Z</time>
      </trkpt>
      <trkpt lat="45.1839" lon="5.87385">
        <ele>685.96</ele>
        <time>2019-08-19T16:19:57.000Z</time>
      </trkpt>
      <trkpt lat="45.18384" lon="5.87404">
        <ele>684.29</ele>
        <time>2019-08-19T16:20:02.000Z</time>
      </trkpt>
      <trkpt lat="45.18375" lon="5.87421">
        <ele>687.57</ele>
        <time>2019-08-19T16:20:07.000Z</time>
      </trkpt>
      <trkpt lat="45.1837" lon="5.87441">
        <ele>694.29</ele>
        <time>2019-08-19T16:20:12.000Z</time>
      </trkpt>
      <trkpt lat="45.18365" lon="5.87459">
        <ele>697.13</ele>
        <time>2019-08-19T16:20:17.000Z</time>
      </trkpt>
      <trkpt lat="45.18357" lon="5.87476">
        <ele>696.31</ele>
        <time>2019-08-19T16:20:22.000Z</time>
      </trkpt>
      <trkpt lat="45.18349" lon="5.87492">
        <ele>700.28</ele>
        <time>2019-08-19T16:20:27.000Z</time>
      </trkpt>
      <trkpt lat="45.18355" lon="5.87481">
        <ele>698.99</ele>
        <time>2019-08-19T16:20:33.000Z</time>
      </trkpt>
      <trkpt lat="45.18362" lon="5.87461">
        <ele>700.33</ele>
        <time>2019-08-19T16:20:38.000Z</time>
      </trkpt>
      <trkpt lat="45.18373" lon="5.87429">
        <ele>691</ele>
        <time>2019-08-19T16:20:43.000Z</time>
      </trkpt>
      <trkpt lat="45.18382" lon="5.87403">
        <ele>689.18</ele>
        <time>2019-08-19T16:20:48.000Z</time>
      </trkpt>
      <trkpt lat="45.18387" lon="5.87385">
        <ele>689.16</ele>
        <time>2019-08-19T16:20:53.000Z</time>
      </trkpt>
      <trkpt lat="45.18382" lon="5.87382">
        <ele>690.69</ele>
        <time>2019-08-19T16:21:25.000Z</time>
      </trkpt>
    </trkseg>
  </trk>
</gpx>